Time,TemperatureF,DewpointF,PressureIn,WindDirection,WindDirectionDegrees,WindSpeedMPH,WindSpeedGustMPH,Humidity,HourlyPrecipIn,Conditions,Clouds,dailyrainin,SoftwareType,DateUTC
2013-11-14 00:00:00,31.6,15.6,29.96,South,177,5.6,13.7,51,0.00,,SKC,0.00,VWS V14.01,2013-11-14 06:00:00,
2013-11-14 00:01:00,31.6,15.6,29.96,South,182,9.7,11.3,51,0.00,,SKC,0.00,VWS V14.01,2013-11-14 06:01:00,
2013-11-14 00:02:00,31.8,15.8,29.96,SSE,167,4.0,9.7,51,0.00,,SKC,0.00,VWS V14.01,2013-11-14 06:02:00,
2013-11-14 00:03:00,31.8,15.8,29.96,South,184,5.6,13.7,51,0.00,,SKC,0.00,VWS V14.01,2013-11-14 06:03:00,
2013-11-14 00:04:00,31.8,15.8,29.96,South,181,0.0,5.6,51,0.00,,SKC,0.00,VWS V14.01,2013-11-14 06:04:00,
2013-11-14 00:05:00,31.8,15.8,29.96,SSW,206,10.5,12.9,51,0.00,,SKC,0.00,VWS V14.01,2013-11-14 06:05:00,
2013-11-14 00:06:00,32.0,15.9,29.96,SE,141,7.2,10.5,51,0.00,,SKC,0.00,VWS V14.01,2013-11-14 06:06:00,
2013-11-14 00:07:00,32.0,15.9,29.96,SSW,204,13.7,14.9,51,0.00,,SKC,0.00,VWS V14.01,2013-11-14 06:07:00,
2013-11-14 00:08:00,32.0,15.9,29.96,South,174,8.9,13.7,51,0.00,,SKC,0.00,VWS V14.01,2013-11-14 06:08:00,
2013-11-14 00:09:00,31.8,15.8,29.96,SSE,163,6.4,8.9,51,0.00,,SKC,0.00,VWS V14.01,2013-11-14 06:09:00,
2013-11-14 00:10:00,31.8,15.8,29.96,SSE,162,11.3,12.9,51,0.00,,SKC,0.00,VWS V14.01,2013-11-14 06:10:00,
2013-11-14 00:11:00,31.8,15.8,29.96,SSE,163,7.2,11.3,51,0.00,,SKC,0.00,VWS V14.01,2013-11-14 06:11:00,
2013-11-14 00:12:00,31.8,15.8,29.96,South,190,7.2,10.5,51,0.00,,SKC,0.00,VWS V14.01,2013-11-14 06:12:00,
2013-11-14 00:13:00,31.6,15.6,29.96,SSE,168,5.6,7.2,51,0.00,,SKC,0.00,VWS V14.01,2013-11-14 06:13:00,
2013-11-14 00:14:00,31.6,15.6,29.96,SSE,168,0.0,11.3,51,0.00,,SKC,0.00,VWS V14.01,2013-11-14 06:14:00,
2013-11-14 00:15:00,31.6,15.6,29.96,South,178,15.7,15.7,51,0.00,,SKC,0.00,VWS V14.01,2013-11-14 06:15:00,
2013-11-14 00:16:00,31.6,15.6,29.96,SSE,167,4.8,15.7,51,0.00,,SKC,0.00,VWS V14.01,2013-11-14 06:16:00,
2013-11-14 00:17:00,31.6,15.6,29.96,South,177,6.4,6.4,51,0.00,,SKC,0.00,VWS V14.01,2013-11-14 06:17:00,
2013-11-14 00:18:00,31.5,15.4,29.96,SSW,202,6.4,6.4,51,0.00,,SKC,0.00,VWS V14.01,2013-11-14 06:18:00,
2013-11-14 00:19:00,31.5,15.4,29.96,South,190,10.5,14.5,51,0.00,,SKC,0.00,VWS V14.01,2013-11-14 06:19:00,
2013-11-14 00:20:00,31.5,15.4,29.96,SSE,168,4.0,10.5,51,0.00,,SKC,0.00,VWS V14.01,2013-11-14 06:20:00,
2013-11-14 00:21:00,31.3,15.3,29.96,SSW,209,0.0,4.8,51,0.00,,SKC,0.00,VWS V14.01,2013-11-14 06:21:00,
2013-11-14 00:22:00,31.5,15.4,29.96,SSW,201,4.0,6.4,51,0.00,,SKC,0.00,VWS V14.01,2013-11-14 06:22:00,
2013-11-14 00:23:00,31.3,15.3,29.96,SSW,206,11.3,11.3,51,0.00,,SKC,0.00,VWS V14.01,2013-11-14 06:23:00,
2013-11-14 00:24:00,31.3,15.3,29.96,SSW,205,0.0,11.3,51,0.00,,SKC,0.00,VWS V14.01,2013-11-14 06:24:00,
2013-11-14 00:25:00,31.1,15.1,29.96,South,182,12.1,12.1,51,0.00,,SKC,0.00,VWS V14.01,2013-11-14 06:25:00,
2013-11-14 00:26:00,31.3,15.3,29.96,SSE,163,9.7,12.1,51,0.00,,SKC,0.00,VWS V14.01,2013-11-14 06:26:00,
2013-11-14 00:27:00,31.3,15.7,29.96,South,191,7.2,9.7,52,0.00,,SKC,0.00,VWS V14.01,2013-11-14 06:27:00,
2013-11-14 00:28:00,31.3,15.3,29.96,SSE,166,11.3,11.3,51,0.00,,SKC,0.00,VWS V14.01,2013-11-14 06:28:00,
2013-11-14 00:29:00,31.1,15.1,29.96,SSW,209,10.5,11.3,51,0.00,,SKC,0.00,VWS V14.01,2013-11-14 06:29:00,
2013-11-14 00:30:00,31.1,15.5,29.96,South,181,9.7,10.5,52,0.00,,SKC,0.00,VWS V14.01,2013-11-14 06:30:00,
2013-11-14 00:31:00,31.1,15.5,29.96,South,182,9.7,9.7,52,0.00,,SKC,0.00,VWS V14.01,2013-11-14 06:31:00,
2013-11-14 00:32:00,31.1,15.5,29.96,SSW,202,4.8,9.7,52,0.00,,SKC,0.00,VWS V14.01,2013-11-14 06:32:00,
2013-11-14 00:33:00,31.1,15.5,29.96,SSE,157,0.0,6.4,52,0.00,,SKC,0.00,VWS V14.01,2013-11-14 06:33:00,
2013-11-14 00:34:00,31.1,15.5,29.96,SSE,163,5.6,9.7,52,0.00,,SKC,0.00,VWS V14.01,2013-11-14 06:34:00,
2013-11-14 00:35:00,31.1,15.5,29.96,SSE,161,10.5,10.5,52,0.00,,SKC,0.00,VWS V14.01,2013-11-14 06:35:00,
2013-11-14 00:36:00,31.1,15.5,29.96,SSE,163,0.0,15.7,52,0.00,,SKC,0.00,VWS V14.01,2013-11-14 06:36:00,
2013-11-14 00:38:00,31.1,15.5,29.96,SSW,194,13.7,13.7,52,0.00,,SKC,0.00,VWS V14.01,2013-11-14 06:38:00,
2013-11-14 00:39:00,31.1,15.5,29.96,South,186,4.0,13.7,52,0.00,,SKC,0.00,VWS V14.01,2013-11-14 06:39:00,
2013-11-14 00:40:00,31.1,15.5,29.96,South,175,6.4,10.5,52,0.00,,SKC,0.00,VWS V14.01,2013-11-14 06:40:00,
2013-11-14 00:41:00,31.1,15.5,29.96,SSE,156,6.4,6.4,52,0.00,,SKC,0.00,VWS V14.01,2013-11-14 06:41:00,
2013-11-14 00:42:00,31.1,15.5,29.96,SSW,203,8.9,10.5,52,0.00,,SKC,0.00,VWS V14.01,2013-11-14 06:42:00,
2013-11-14 00:43:00,31.1,15.5,29.96,South,186,9.7,9.7,52,0.00,,SKC,0.00,VWS V14.01,2013-11-14 06:43:00,
2013-11-14 00:45:00,31.1,15.5,29.96,SSW,206,6.4,9.7,52,0.00,,SKC,0.00,VWS V14.01,2013-11-14 06:45:00,
2013-11-14 00:46:00,31.1,15.5,29.96,SSW,193,5.6,10.5,52,0.00,,SKC,0.00,VWS V14.01,2013-11-14 06:46:00,
2013-11-14 00:47:00,31.3,15.7,29.96,South,182,7.2,8.9,52,0.00,,SKC,0.00,VWS V14.01,2013-11-14 06:47:00,
2013-11-14 00:48:00,31.3,15.7,29.96,SSE,158,0.0,7.2,52,0.00,,SKC,0.00,VWS V14.01,2013-11-14 06:48:00,
2013-11-14 00:49:00,31.1,15.5,29.96,SW,220,8.1,8.1,52,0.00,,SKC,0.00,VWS V14.01,2013-11-14 06:49:00,
2013-11-14 00:50:00,31.1,15.5,29.96,SSW,212,5.6,9.7,52,0.00,,SKC,0.00,VWS V14.01,2013-11-14 06:50:00,
2013-11-14 00:51:00,31.3,15.7,29.96,SSE,161,10.5,10.5,52,0.00,,SKC,0.00,VWS V14.01,2013-11-14 06:51:00,
2013-11-14 00:52:00,31.1,15.5,29.96,South,181,6.4,10.5,52,0.00,,SKC,0.00,VWS V14.01,2013-11-14 06:52:00,
2013-11-14 00:53:00,31.1,15.5,29.96,South,185,4.0,6.4,52,0.00,,SKC,0.00,VWS V14.01,2013-11-14 06:53:00,
2013-11-14 00:54:00,31.3,15.7,29.96,SSE,155,4.8,6.4,52,0.00,,SKC,0.00,VWS V14.01,2013-11-14 06:54:00,
2013-11-14 00:55:00,31.3,15.7,29.96,SSW,197,6.4,7.2,52,0.00,,SKC,0.00,VWS V14.01,2013-11-14 06:55:00,
2013-11-14 00:56:00,31.3,15.7,29.96,South,182,7.2,13.7,52,0.00,,SKC,0.00,VWS V14.01,2013-11-14 06:56:00,
2013-11-14 00:57:00,31.3,15.7,29.93,SSE,159,6.4,7.2,52,0.00,,SKC,0.00,VWS V14.01,2013-11-14 06:57:00,
2013-11-14 00:58:00,31.3,15.3,29.93,SW,220,6.4,8.9,51,0.00,,SKC,0.00,VWS V14.01,2013-11-14 06:58:00,
2013-11-14 00:59:00,31.3,15.3,29.93,South,190,4.8,9.7,51,0.00,,SKC,0.00,VWS V14.01,2013-11-14 06:59:00,
2013-11-14 01:00:00,31.6,15.6,29.93,SSW,199,4.0,10.5,51,0.00,,SKC,0.00,VWS V14.01,2013-11-14 07:00:00,
2013-11-14 01:01:00,31.5,15.4,29.93,SSW,197,0.0,4.0,51,0.00,,SKC,0.00,VWS V14.01,2013-11-14 07:01:00,
2013-11-14 01:02:00,31.6,15.6,29.93,SSE,167,5.6,7.2,51,0.00,,SKC,0.00,VWS V14.01,2013-11-14 07:02:00,
2013-11-14 01:03:00,31.6,15.6,29.93,SW,216,10.5,10.5,51,0.00,,SKC,0.00,VWS V14.01,2013-11-14 07:03:00,
2013-11-14 01:04:00,31.6,15.6,29.93,South,182,5.6,10.5,51,0.00,,SKC,0.00,VWS V14.01,2013-11-14 07:04:00,
2013-11-14 01:05:00,31.5,15.4,29.93,SSE,168,8.9,8.9,51,0.00,,SKC,0.00,VWS V14.01,2013-11-14 07:05:00,
2013-11-14 01:06:00,31.6,15.6,29.93,South,189,5.6,9.7,51,0.00,,SKC,0.00,VWS V14.01,2013-11-14 07:06:00,
2013-11-14 01:07:00,31.6,15.6,29.93,SSW,205,7.2,13.7,51,0.00,,SKC,0.00,VWS V14.01,2013-11-14 07:07:00,
2013-11-14 01:08:00,31.5,15.4,29.93,SSW,206,13.7,13.7,51,0.00,,SKC,0.00,VWS V14.01,2013-11-14 07:08:00,
2013-11-14 01:09:00,31.5,15.4,29.93,South,185,5.6,13.7,51,0.00,,SKC,0.00,VWS V14.01,2013-11-14 07:09:00,
2013-11-14 01:10:00,31.5,15.4,29.93,WSW,243,4.0,8.9,51,0.00,,SKC,0.00,VWS V14.01,2013-11-14 07:10:00,
2013-11-14 01:11:00,31.5,15.4,29.93,South,169,8.9,8.9,51,0.00,,SKC,0.00,VWS V14.01,2013-11-14 07:11:00,
2013-11-14 01:12:00,31.5,15.4,29.93,SSW,203,6.4,13.7,51,0.00,,SKC,0.00,VWS V14.01,2013-11-14 07:12:00,
2013-11-14 01:13:00,31.5,15.4,29.93,South,179,10.5,10.5,51,0.00,,SKC,0.00,VWS V14.01,2013-11-14 07:13:00,
2013-11-14 01:14:00,31.3,15.3,29.93,SSE,168,5.6,10.5,51,0.00,,SKC,0.00,VWS V14.01,2013-11-14 07:14:00,
2013-11-14 01:15:00,31.5,15.4,29.93,SSW,198,8.9,9.7,51,0.00,,SKC,0.00,VWS V14.01,2013-11-14 07:15:00,
2013-11-14 01:16:00,31.5,15.4,29.93,South,171,0.0,10.5,51,0.00,,SKC,0.00,VWS V14.01,2013-11-14 07:16:00,
2013-11-14 01:17:00,31.5,15.4,29.93,South,178,0.0,4.0,51,0.00,,SKC,0.00,VWS V14.01,2013-11-14 07:17:00,
2013-11-14 01:18:00,31.3,15.3,29.93,South,184,7.2,7.2,51,0.00,,SKC,0.00,VWS V14.01,2013-11-14 07:18:00,
2013-11-14 01:19:00,31.5,15.4,29.93,South,169,9.7,11.3,51,0.00,,SKC,0.00,VWS V14.01,2013-11-14 07:19:00,
2013-11-14 01:20:00,31.5,15.4,29.93,SE,146,11.3,11.3,51,0.00,,SKC,0.00,VWS V14.01,2013-11-14 07:20:00,
2013-11-14 01:21:00,31.5,15.4,29.93,SSE,152,7.2,13.7,51,0.00,,SKC,0.00,VWS V14.01,2013-11-14 07:21:00,
2013-11-14 01:22:00,31.5,15.4,29.93,SE,141,7.2,11.3,51,0.00,,SKC,0.00,VWS V14.01,2013-11-14 07:22:00,
2013-11-14 01:23:00,31.3,15.3,29.93,SSE,165,9.7,9.7,51,0.00,,SKC,0.00,VWS V14.01,2013-11-14 07:23:00,
2013-11-14 01:24:00,31.3,15.3,29.93,SSE,152,6.4,17.3,51,0.00,,SKC,0.00,VWS V14.01,2013-11-14 07:24:00,
2013-11-14 01:25:00,31.5,15.4,29.93,SSW,198,5.6,9.7,51,0.00,,SKC,0.00,VWS V14.01,2013-11-14 07:25:00,
2013-11-14 01:26:00,31.5,15.4,29.93,SW,224,7.2,7.2,51,0.00,,SKC,0.00,VWS V14.01,2013-11-14 07:26:00,
2013-11-14 01:27:00,31.3,15.3,29.93,SSW,200,7.2,12.1,51,0.00,,SKC,0.00,VWS V14.01,2013-11-14 07:27:00,
2013-11-14 01:28:00,31.3,15.3,29.93,South,175,8.9,8.9,51,0.00,,SKC,0.00,VWS V14.01,2013-11-14 07:28:00,
2013-11-14 01:29:00,31.5,15.4,29.93,SSE,168,7.2,10.5,51,0.00,,SKC,0.00,VWS V14.01,2013-11-14 07:29:00,
2013-11-14 01:30:00,31.5,15.4,29.93,South,172,5.6,8.9,51,0.00,,SKC,0.00,VWS V14.01,2013-11-14 07:30:00,
2013-11-14 01:31:00,31.5,15.4,29.93,SSW,195,4.0,5.6,51,0.00,,SKC,0.00,VWS V14.01,2013-11-14 07:31:00,
2013-11-14 01:32:00,31.5,15.4,29.93,SW,216,4.8,6.4,51,0.00,,SKC,0.00,VWS V14.01,2013-11-14 07:32:00,
2013-11-14 01:33:00,31.5,15.4,29.93,SSW,192,6.4,13.7,51,0.00,,SKC,0.00,VWS V14.01,2013-11-14 07:33:00,
2013-11-14 01:34:00,31.5,15.4,29.93,South,191,5.6,6.4,51,0.00,,SKC,0.00,VWS V14.01,2013-11-14 07:34:00,
2013-11-14 01:35:00,31.5,15.4,29.93,SSW,203,6.4,6.4,51,0.00,,SKC,0.00,VWS V14.01,2013-11-14 07:35:00,
2013-11-14 01:36:00,31.5,15.4,29.93,SSE,162,6.4,10.5,51,0.00,,SKC,0.00,VWS V14.01,2013-11-14 07:36:00,
2013-11-14 01:37:00,31.5,15.4,29.93,South,179,15.7,15.7,51,0.00,,SKC,0.00,VWS V14.01,2013-11-14 07:37:00,
2013-11-14 01:39:00,31.5,15.4,29.93,SSW,205,5.6,15.7,51,0.00,,SKC,0.00,VWS V14.01,2013-11-14 07:39:00,
2013-11-14 01:40:00,31.3,15.3,29.93,South,182,8.9,11.3,51,0.00,,SKC,0.00,VWS V14.01,2013-11-14 07:40:00,
2013-11-14 01:41:00,31.3,15.3,29.93,SSW,210,4.8,8.9,51,0.00,,SKC,0.00,VWS V14.01,2013-11-14 07:41:00,
2013-11-14 01:42:00,31.3,15.3,29.93,SSW,198,6.4,6.4,51,0.00,,SKC,0.00,VWS V14.01,2013-11-14 07:42:00,
2013-11-14 01:43:00,31.3,15.3,29.93,South,180,0.0,6.4,51,0.00,,SKC,0.00,VWS V14.01,2013-11-14 07:43:00,
2013-11-14 01:44:00,31.3,15.3,29.93,South,174,6.4,13.7,51,0.00,,SKC,0.00,VWS V14.01,2013-11-14 07:44:00,
2013-11-14 01:45:00,31.3,15.3,29.93,South,191,10.5,10.5,51,0.00,,SKC,0.00,VWS V14.01,2013-11-14 07:45:00,
2013-11-14 01:46:00,31.3,15.3,29.93,SE,143,7.2,10.5,51,0.00,,SKC,0.00,VWS V14.01,2013-11-14 07:46:00,
2013-11-14 01:47:00,31.3,15.3,29.93,South,191,4.8,7.2,51,0.00,,SKC,0.00,VWS V14.01,2013-11-14 07:47:00,
2013-11-14 01:48:00,31.5,15.4,29.93,SSW,196,6.4,6.4,51,0.00,,SKC,0.00,VWS V14.01,2013-11-14 07:48:00,
2013-11-14 01:49:00,31.5,15.4,29.93,South,184,4.8,6.4,51,0.00,,SKC,0.00,VWS V14.01,2013-11-14 07:49:00,
2013-11-14 01:50:00,31.5,15.4,29.93,South,175,5.6,7.2,51,0.00,,SKC,0.00,VWS V14.01,2013-11-14 07:50:00,
2013-11-14 01:51:00,31.3,15.3,29.93,South,191,0.0,6.4,51,0.00,,SKC,0.00,VWS V14.01,2013-11-14 07:51:00,
2013-11-14 01:52:00,31.3,15.3,29.93,SSE,153,0.0,13.7,51,0.00,,SKC,0.00,VWS V14.01,2013-11-14 07:52:00,
2013-11-14 01:53:00,31.3,15.3,29.93,South,170,0.0,4.0,51,0.00,,SKC,0.00,VWS V14.01,2013-11-14 07:53:00,
2013-11-14 01:54:00,31.3,15.3,29.93,SSW,203,0.0,7.2,51,0.00,,SKC,0.00,VWS V14.01,2013-11-14 07:54:00,
2013-11-14 01:55:00,31.5,15.4,29.93,SSW,211,6.4,6.4,51,0.00,,SKC,0.00,VWS V14.01,2013-11-14 07:55:00,
2013-11-14 01:56:00,31.5,15.4,29.93,South,188,0.0,8.9,51,0.00,,SKC,0.00,VWS V14.01,2013-11-14 07:56:00,
2013-11-14 01:57:00,31.5,15.4,29.93,South,185,12.9,12.9,51,0.00,,SKC,0.00,VWS V14.01,2013-11-14 07:57:00,
2013-11-14 01:58:00,31.5,15.4,29.93,South,184,5.6,12.9,51,0.00,,SKC,0.00,VWS V14.01,2013-11-14 07:58:00,
2013-11-14 01:59:00,31.5,15.4,29.93,SSW,199,0.0,11.3,51,0.00,,SKC,0.00,VWS V14.01,2013-11-14 07:59:00,
2013-11-14 02:00:00,31.5,15.4,29.93,SW,227,5.6,8.9,51,0.00,,SKC,0.00,VWS V14.01,2013-11-14 08:00:00,
2013-11-14 02:01:00,31.5,15.4,29.93,SSW,205,0.0,7.2,51,0.00,,SKC,0.00,VWS V14.01,2013-11-14 08:01:00,
2013-11-14 02:02:00,31.6,15.6,29.93,South,184,0.0,4.8,51,0.00,,SKC,0.00,VWS V14.01,2013-11-14 08:02:00,
2013-11-14 02:03:00,31.5,15.4,29.93,SW,236,5.6,8.9,51,0.00,,SKC,0.00,VWS V14.01,2013-11-14 08:03:00,
2013-11-14 02:04:00,31.5,15.4,29.93,SSE,164,0.0,10.5,51,0.00,,SKC,0.00,VWS V14.01,2013-11-14 08:04:00,
2013-11-14 02:05:00,31.5,15.4,29.93,SSW,199,4.8,11.3,51,0.00,,SKC,0.00,VWS V14.01,2013-11-14 08:05:00,
2013-11-14 02:06:00,31.3,15.3,29.93,South,183,0.0,7.2,51,0.00,,SKC,0.00,VWS V14.01,2013-11-14 08:06:00,
2013-11-14 02:07:00,31.3,15.3,29.93,South,174,9.7,9.7,51,0.00,,SKC,0.00,VWS V14.01,2013-11-14 08:07:00,
2013-11-14 02:08:00,31.3,15.3,29.93,SSW,208,4.8,9.7,51,0.00,,SKC,0.00,VWS V14.01,2013-11-14 08:08:00,
2013-11-14 02:09:00,31.3,15.3,29.93,South,189,4.8,5.6,51,0.00,,SKC,0.00,VWS V14.01,2013-11-14 08:09:00,
2013-11-14 02:10:00,31.3,15.3,29.93,South,180,0.0,5.6,51,0.00,,SKC,0.00,VWS V14.01,2013-11-14 08:10:00,
2013-11-14 02:11:00,31.1,15.1,29.93,SSE,159,5.6,7.2,51,0.00,,SKC,0.00,VWS V14.01,2013-11-14 08:11:00,
2013-11-14 02:12:00,31.1,15.1,29.93,SSE,162,0.0,5.6,51,0.00,,SKC,0.00,VWS V14.01,2013-11-14 08:12:00,
2013-11-14 02:13:00,31.1,15.1,29.93,South,186,5.6,8.9,51,0.00,,SKC,0.00,VWS V14.01,2013-11-14 08:13:00,
2013-11-14 02:14:00,31.1,15.1,29.93,SW,214,6.4,6.4,51,0.00,,SKC,0.00,VWS V14.01,2013-11-14 08:14:00,
2013-11-14 02:15:00,31.1,15.1,29.93,SSW,208,5.6,9.7,51,0.00,,SKC,0.00,VWS V14.01,2013-11-14 08:15:00,
2013-11-14 02:16:00,31.1,15.1,29.93,SSW,205,6.4,8.9,51,0.00,,SKC,0.00,VWS V14.01,2013-11-14 08:16:00,
2013-11-14 02:17:00,31.1,15.1,29.93,SSW,204,0.0,7.2,51,0.00,,SKC,0.00,VWS V14.01,2013-11-14 08:17:00,
2013-11-14 02:18:00,30.9,14.9,29.93,SSW,195,4.8,6.4,51,0.00,,SKC,0.00,VWS V14.01,2013-11-14 08:18:00,
2013-11-14 02:19:00,31.1,15.5,29.93,SSW,196,0.0,5.6,52,0.00,,SKC,0.00,VWS V14.01,2013-11-14 08:19:00,
2013-11-14 02:20:00,31.1,15.5,29.93,SSW,205,4.8,4.8,52,0.00,,SKC,0.00,VWS V14.01,2013-11-14 08:20:00,
2013-11-14 02:21:00,30.9,15.4,29.93,South,185,0.0,8.9,52,0.00,,SKC,0.00,VWS V14.01,2013-11-14 08:21:00,
2013-11-14 02:22:00,30.9,15.4,29.93,South,170,8.9,8.9,52,0.00,,SKC,0.00,VWS V14.01,2013-11-14 08:22:00,
2013-11-14 02:23:00,30.9,15.4,29.93,South,181,0.0,8.9,52,0.00,,SKC,0.00,VWS V14.01,2013-11-14 08:23:00,
2013-11-14 02:24:00,30.7,15.2,29.93,South,182,0.0,0.0,52,0.00,,SKC,0.00,VWS V14.01,2013-11-14 08:24:00,
2013-11-14 02:25:00,30.7,15.2,29.93,South,182,6.4,9.7,52,0.00,,SKC,0.00,VWS V14.01,2013-11-14 08:25:00,
2013-11-14 02:26:00,30.7,15.2,29.93,South,180,7.2,7.2,52,0.00,,SKC,0.00,VWS V14.01,2013-11-14 08:26:00,
2013-11-14 02:27:00,30.7,15.2,29.93,SE,146,4.8,7.2,52,0.00,,SKC,0.00,VWS V14.01,2013-11-14 08:27:00,
2013-11-14 02:28:00,30.7,15.2,29.93,SSE,159,4.8,10.5,52,0.00,,SKC,0.00,VWS V14.01,2013-11-14 08:28:00,
2013-11-14 02:29:00,30.7,15.2,29.93,South,188,4.8,8.9,52,0.00,,SKC,0.00,VWS V14.01,2013-11-14 08:29:00,
2013-11-14 02:30:00,30.7,15.2,29.93,SSE,157,0.0,6.4,52,0.00,,SKC,0.00,VWS V14.01,2013-11-14 08:30:00,
2013-11-14 02:31:00,30.7,15.2,29.93,South,170,4.8,4.8,52,0.00,,SKC,0.00,VWS V14.01,2013-11-14 08:31:00,
2013-11-14 02:32:00,30.7,15.2,29.93,South,178,0.0,5.6,52,0.00,,SKC,0.00,VWS V14.01,2013-11-14 08:32:00,
2013-11-14 02:33:00,30.7,15.2,29.93,South,188,0.0,5.6,52,0.00,,SKC,0.00,VWS V14.01,2013-11-14 08:33:00,
2013-11-14 02:34:00,30.6,15.0,29.93,South,182,0.0,4.0,52,0.00,,SKC,0.00,VWS V14.01,2013-11-14 08:34:00,
2013-11-14 02:35:00,30.7,15.2,29.93,SSE,154,7.2,10.5,52,0.00,,SKC,0.00,VWS V14.01,2013-11-14 08:35:00,
2013-11-14 02:36:00,30.6,15.0,29.93,SSE,161,14.5,14.5,52,0.00,,SKC,0.00,VWS V14.01,2013-11-14 08:36:00,
2013-11-14 02:37:00,30.6,15.0,29.93,SSW,208,9.7,14.5,52,0.00,,SKC,0.00,VWS V14.01,2013-11-14 08:37:00,
2013-11-14 02:38:00,30.6,15.0,29.93,South,173,4.8,9.7,52,0.00,,SKC,0.00,VWS V14.01,2013-11-14 08:38:00,
2013-11-14 02:39:00,30.6,15.0,29.93,South,171,5.6,9.7,52,0.00,,SKC,0.00,VWS V14.01,2013-11-14 08:39:00,
2013-11-14 02:40:00,30.6,15.0,29.93,South,172,0.0,5.6,52,0.00,,SKC,0.00,VWS V14.01,2013-11-14 08:40:00,
2013-11-14 02:41:00,30.6,15.0,29.93,ESE,123,5.6,6.4,52,0.00,,SKC,0.00,VWS V14.01,2013-11-14 08:41:00,
2013-11-14 02:42:00,30.6,15.0,29.93,ESE,119,5.6,5.6,52,0.00,,SKC,0.00,VWS V14.01,2013-11-14 08:42:00,
2013-11-14 02:43:00,30.6,15.0,29.93,South,190,5.6,7.2,52,0.00,,SKC,0.00,VWS V14.01,2013-11-14 08:43:00,
2013-11-14 02:44:00,30.6,15.0,29.93,South,190,4.0,5.6,52,0.00,,SKC,0.00,VWS V14.01,2013-11-14 08:44:00,
2013-11-14 02:45:00,30.7,15.2,29.93,South,191,0.0,4.0,52,0.00,,SKC,0.00,VWS V14.01,2013-11-14 08:45:00,
2013-11-14 02:46:00,30.9,15.4,29.93,South,191,0.0,0.0,52,0.00,,SKC,0.00,VWS V14.01,2013-11-14 08:46:00,
2013-11-14 02:47:00,30.7,15.2,29.93,South,186,4.8,4.8,52,0.00,,SKC,0.00,VWS V14.01,2013-11-14 08:47:00,
2013-11-14 02:48:00,30.7,15.2,29.93,SSW,206,5.6,14.5,52,0.00,,SKC,0.00,VWS V14.01,2013-11-14 08:48:00,
2013-11-14 02:49:00,30.9,15.4,29.93,SSW,202,5.6,7.2,52,0.00,,SKC,0.00,VWS V14.01,2013-11-14 08:49:00,
2013-11-14 02:50:00,30.7,15.2,29.93,South,181,9.7,9.7,52,0.00,,SKC,0.00,VWS V14.01,2013-11-14 08:50:00,
2013-11-14 02:51:00,30.9,15.4,29.93,SSW,202,5.6,10.5,52,0.00,,SKC,0.00,VWS V14.01,2013-11-14 08:51:00,
2013-11-14 02:52:00,30.7,15.2,29.93,South,190,0.0,5.6,52,0.00,,SKC,0.00,VWS V14.01,2013-11-14 08:52:00,
2013-11-14 02:53:00,30.7,15.2,29.93,SSW,193,0.0,0.0,52,0.00,,SKC,0.00,VWS V14.01,2013-11-14 08:53:00,
2013-11-14 02:54:00,30.7,15.2,29.93,SE,142,0.0,0.0,52,0.00,,SKC,0.00,VWS V14.01,2013-11-14 08:54:00,
2013-11-14 02:55:00,30.7,15.2,29.93,SSW,198,0.0,10.5,52,0.00,,SKC,0.00,VWS V14.01,2013-11-14 08:55:00,
2013-11-14 02:56:00,30.9,15.4,29.93,SSW,202,0.0,0.0,52,0.00,,SKC,0.00,VWS V14.01,2013-11-14 08:56:00,
2013-11-14 02:57:00,30.7,15.2,29.93,South,178,0.0,0.0,52,0.00,,SKC,0.00,VWS V14.01,2013-11-14 08:57:00,
2013-11-14 02:58:00,30.7,15.2,29.93,South,178,0.0,0.0,52,0.00,,SKC,0.00,VWS V14.01,2013-11-14 08:58:00,
2013-11-14 02:59:00,30.7,15.2,29.93,South,184,0.0,9.7,52,0.00,,SKC,0.00,VWS V14.01,2013-11-14 08:59:00,
2013-11-14 03:00:00,30.7,15.2,29.93,South,177,0.0,6.4,52,0.00,,SKC,0.00,VWS V14.01,2013-11-14 09:00:00,
2013-11-14 03:01:00,30.7,15.2,29.93,SSW,201,0.0,0.0,52,0.00,,SKC,0.00,VWS V14.01,2013-11-14 09:01:00,
2013-11-14 03:02:00,30.6,15.0,29.93,South,169,0.0,4.8,52,0.00,,SKC,0.00,VWS V14.01,2013-11-14 09:02:00,
2013-11-14 03:03:00,30.6,15.0,29.93,South,169,0.0,0.0,52,0.00,,SKC,0.00,VWS V14.01,2013-11-14 09:03:00,
2013-11-14 03:04:00,30.6,15.0,29.93,South,170,0.0,0.0,52,0.00,,SKC,0.00,VWS V14.01,2013-11-14 09:04:00,
2013-11-14 03:05:00,30.6,15.0,29.93,SSW,195,0.0,0.0,52,0.00,,SKC,0.00,VWS V14.01,2013-11-14 09:05:00,
2013-11-14 03:06:00,30.6,15.0,29.93,SSW,192,0.0,0.0,52,0.00,,SKC,0.00,VWS V14.01,2013-11-14 09:06:00,
2013-11-14 03:07:00,30.4,14.9,29.93,South,177,7.2,7.2,52,0.00,,SKC,0.00,VWS V14.01,2013-11-14 09:07:00,
2013-11-14 03:08:00,30.4,14.9,29.93,SW,214,5.6,7.2,52,0.00,,SKC,0.00,VWS V14.01,2013-11-14 09:08:00,
2013-11-14 03:09:00,30.4,14.9,29.93,South,178,0.0,5.6,52,0.00,,SKC,0.00,VWS V14.01,2013-11-14 09:09:00,
2013-11-14 03:10:00,30.4,15.3,29.93,SSW,200,4.0,5.6,53,0.00,,SKC,0.00,VWS V14.01,2013-11-14 09:10:00,
2013-11-14 03:11:00,30.4,15.3,29.93,SSW,195,8.9,8.9,53,0.00,,SKC,0.00,VWS V14.01,2013-11-14 09:11:00,
2013-11-14 03:12:00,30.4,15.3,29.93,SSE,165,5.6,8.9,53,0.00,,SKC,0.00,VWS V14.01,2013-11-14 09:12:00,
2013-11-14 03:13:00,30.2,15.1,29.93,SSE,167,0.0,5.6,53,0.00,,SKC,0.00,VWS V14.01,2013-11-14 09:13:00,
2013-11-14 03:14:00,30.2,15.1,29.93,SSE,167,0.0,4.8,53,0.00,,SKC,0.00,VWS V14.01,2013-11-14 09:14:00,
2013-11-14 03:15:00,30.2,15.1,29.93,South,184,4.0,10.5,53,0.00,,SKC,0.00,VWS V14.01,2013-11-14 09:15:00,
2013-11-14 03:16:00,30.2,15.1,29.93,South,171,5.6,5.6,53,0.00,,SKC,0.00,VWS V14.01,2013-11-14 09:16:00,
2013-11-14 03:17:00,30.2,15.1,29.93,South,185,0.0,6.4,53,0.00,,SKC,0.00,VWS V14.01,2013-11-14 09:17:00,
2013-11-14 03:18:00,30.2,15.1,29.93,SE,141,0.0,0.0,53,0.00,,SKC,0.00,VWS V14.01,2013-11-14 09:18:00,
2013-11-14 03:19:00,30.2,15.1,29.93,SE,141,0.0,0.0,53,0.00,,SKC,0.00,VWS V14.01,2013-11-14 09:19:00,
2013-11-14 03:20:00,30.2,15.1,29.93,SE,129,6.4,6.4,53,0.00,,SKC,0.00,VWS V14.01,2013-11-14 09:20:00,
2013-11-14 03:21:00,30.2,15.1,29.93,SE,130,0.0,6.4,53,0.00,,SKC,0.00,VWS V14.01,2013-11-14 09:21:00,
2013-11-14 03:22:00,30.2,15.1,29.93,South,177,4.8,4.8,53,0.00,,SKC,0.00,VWS V14.01,2013-11-14 09:22:00,
2013-11-14 03:23:00,30.0,15.0,29.93,South,177,0.0,4.8,53,0.00,,SKC,0.00,VWS V14.01,2013-11-14 09:23:00,
2013-11-14 03:24:00,30.0,15.4,29.93,South,179,0.0,4.0,54,0.00,,SKC,0.00,VWS V14.01,2013-11-14 09:24:00,
2013-11-14 03:25:00,30.0,15.4,29.93,South,181,0.0,6.4,54,0.00,,SKC,0.00,VWS V14.01,2013-11-14 09:25:00,
2013-11-14 03:26:00,30.0,15.4,29.93,South,180,0.0,4.8,54,0.00,,SKC,0.00,VWS V14.01,2013-11-14 09:26:00,
2013-11-14 03:27:00,30.0,15.4,29.93,SE,140,0.0,6.4,54,0.00,,SKC,0.00,VWS V14.01,2013-11-14 09:27:00,
2013-11-14 03:28:00,30.0,15.4,29.93,South,173,6.4,6.4,54,0.00,,SKC,0.00,VWS V14.01,2013-11-14 09:28:00,
2013-11-14 03:29:00,30.0,15.4,29.93,SSE,167,0.0,8.9,54,0.00,,SKC,0.00,VWS V14.01,2013-11-14 09:29:00,
2013-11-14 03:30:00,30.0,15.4,29.93,SSE,163,4.8,4.8,54,0.00,,SKC,0.00,VWS V14.01,2013-11-14 09:30:00,
2013-11-14 03:31:00,30.0,15.4,29.93,South,171,7.2,7.2,54,0.00,,SKC,0.00,VWS V14.01,2013-11-14 09:31:00,
2013-11-14 03:32:00,30.0,15.4,29.93,South,185,5.6,7.2,54,0.00,,SKC,0.00,VWS V14.01,2013-11-14 09:32:00,
2013-11-14 03:33:00,30.0,15.4,29.93,SSE,166,0.0,5.6,54,0.00,,SKC,0.00,VWS V14.01,2013-11-14 09:33:00,
2013-11-14 03:34:00,30.0,15.4,29.93,SSE,160,0.0,10.5,54,0.00,,SKC,0.00,VWS V14.01,2013-11-14 09:34:00,
2013-11-14 03:35:00,30.0,15.4,29.93,SSW,200,6.4,8.9,54,0.00,,SKC,0.00,VWS V14.01,2013-11-14 09:35:00,
2013-11-14 03:36:00,30.0,15.4,29.93,SSE,167,5.6,6.4,54,0.00,,SKC,0.00,VWS V14.01,2013-11-14 09:36:00,
2013-11-14 03:37:00,30.0,15.4,29.93,SSE,158,7.2,9.7,54,0.00,,SKC,0.00,VWS V14.01,2013-11-14 09:37:00,
2013-11-14 03:38:00,30.0,15.4,29.93,SSE,162,6.4,7.2,54,0.00,,SKC,0.00,VWS V14.01,2013-11-14 09:38:00,
2013-11-14 03:40:00,30.0,15.8,29.91,SW,215,0.0,4.0,55,0.00,,SKC,0.00,VWS V14.01,2013-11-14 09:40:00,
2013-11-14 03:41:00,30.0,15.8,29.91,SSW,211,4.8,4.8,55,0.00,,SKC,0.00,VWS V14.01,2013-11-14 09:41:00,
2013-11-14 03:42:00,30.0,15.8,29.91,South,183,5.6,5.6,55,0.00,,SKC,0.00,VWS V14.01,2013-11-14 09:42:00,
2013-11-14 03:43:00,30.2,16.0,29.91,South,190,5.6,8.9,55,0.00,,SKC,0.00,VWS V14.01,2013-11-14 09:43:00,
2013-11-14 03:44:00,30.2,16.0,29.91,South,176,0.0,8.9,55,0.00,,SKC,0.00,VWS V14.01,2013-11-14 09:44:00,
2013-11-14 03:45:00,30.2,16.0,29.91,SSW,195,7.2,10.5,55,0.00,,SKC,0.00,VWS V14.01,2013-11-14 09:45:00,
2013-11-14 03:46:00,30.2,16.0,29.91,SSE,160,0.0,7.2,55,0.00,,SKC,0.00,VWS V14.01,2013-11-14 09:46:00,
2013-11-14 03:47:00,30.2,16.0,29.91,SSE,168,0.0,0.0,55,0.00,,SKC,0.00,VWS V14.01,2013-11-14 09:47:00,
2013-11-14 03:48:00,30.4,15.7,29.91,South,185,0.0,10.5,54,0.00,,SKC,0.00,VWS V14.01,2013-11-14 09:48:00,
2013-11-14 03:49:00,30.2,15.6,29.91,SSW,197,0.0,5.6,54,0.00,,SKC,0.00,VWS V14.01,2013-11-14 09:49:00,
2013-11-14 03:50:00,30.2,15.6,29.91,South,177,4.0,7.2,54,0.00,,SKC,0.00,VWS V14.01,2013-11-14 09:50:00,
2013-11-14 03:51:00,30.4,15.7,29.91,SSW,196,5.6,5.6,54,0.00,,SKC,0.00,VWS V14.01,2013-11-14 09:51:00,
2013-11-14 03:52:00,30.4,15.7,29.91,SSW,198,6.4,7.2,54,0.00,,SKC,0.00,VWS V14.01,2013-11-14 09:52:00,
2013-11-14 03:53:00,30.4,15.7,29.91,SSW,195,0.0,6.4,54,0.00,,SKC,0.00,VWS V14.01,2013-11-14 09:53:00,
2013-11-14 03:54:00,30.4,15.7,29.91,SSW,199,4.8,8.1,54,0.00,,SKC,0.00,VWS V14.01,2013-11-14 09:54:00,
2013-11-14 03:55:00,30.4,15.7,29.91,SSW,202,7.2,7.2,54,0.00,,SKC,0.00,VWS V14.01,2013-11-14 09:55:00,
2013-11-14 03:56:00,30.6,15.9,29.91,SSW,196,0.0,7.2,54,0.00,,SKC,0.00,VWS V14.01,2013-11-14 09:56:00,
2013-11-14 03:57:00,30.0,15.4,29.93,SSE,167,4.0,6.4,54,0.00,,SKC,0.00,VWS V14.01,2013-11-14 09:57:00,
2013-11-14 03:58:00,30.4,15.7,29.93,SSW,200,0.0,0.0,54,0.00,,SKC,0.00,VWS V14.01,2013-11-14 09:58:00,
2013-11-14 03:59:00,30.4,15.7,29.93,SSE,165,5.6,5.6,54,0.00,,SKC,0.00,VWS V14.01,2013-11-14 09:59:00,
2013-11-14 04:00:00,30.2,15.6,29.93,SSW,193,4.0,8.9,54,0.00,,SKC,0.00,VWS V14.01,2013-11-14 10:00:00,
2013-11-14 04:01:00,30.2,15.6,29.93,SSW,196,0.0,4.8,54,0.00,,SKC,0.00,VWS V14.01,2013-11-14 10:01:00,
2013-11-14 04:02:00,30.2,15.6,29.93,SSE,165,7.2,7.2,54,0.00,,SKC,0.00,VWS V14.01,2013-11-14 10:02:00,
2013-11-14 04:03:00,30.2,15.6,29.93,South,174,0.0,7.2,54,0.00,,SKC,0.00,VWS V14.01,2013-11-14 10:03:00,
2013-11-14 04:04:00,30.2,15.6,29.93,SSW,192,4.0,8.9,54,0.00,,SKC,0.00,VWS V14.01,2013-11-14 10:04:00,
2013-11-14 04:05:00,30.2,15.6,29.93,SSW,198,0.0,5.6,54,0.00,,SKC,0.00,VWS V14.01,2013-11-14 10:05:00,
2013-11-14 04:06:00,30.2,16.0,29.93,SSW,198,0.0,0.0,55,0.00,,SKC,0.00,VWS V14.01,2013-11-14 10:06:00,
2013-11-14 04:07:00,30.2,16.0,29.93,SSW,198,0.0,4.0,55,0.00,,SKC,0.00,VWS V14.01,2013-11-14 10:07:00,
2013-11-14 04:08:00,30.2,16.0,29.93,SW,228,7.2,7.2,55,0.00,,SKC,0.00,VWS V14.01,2013-11-14 10:08:00,
2013-11-14 04:09:00,30.0,15.8,29.93,SSW,211,0.0,7.2,55,0.00,,SKC,0.00,VWS V14.01,2013-11-14 10:09:00,
2013-11-14 04:10:00,30.0,15.8,29.93,SSW,212,0.0,0.0,55,0.00,,SKC,0.00,VWS V14.01,2013-11-14 10:10:00,
2013-11-14 04:11:00,30.0,15.8,29.93,South,184,4.8,5.6,55,0.00,,SKC,0.00,VWS V14.01,2013-11-14 10:11:00,
2013-11-14 04:12:00,30.0,15.8,29.93,SSW,207,5.6,5.6,55,0.00,,SKC,0.00,VWS V14.01,2013-11-14 10:12:00,
2013-11-14 04:13:00,29.8,15.7,29.93,SSW,207,0.0,5.6,55,0.00,,SKC,0.00,VWS V14.01,2013-11-14 10:13:00,
2013-11-14 04:14:00,29.8,15.7,29.93,SSW,202,0.0,0.0,55,0.00,,SKC,0.00,VWS V14.01,2013-11-14 10:14:00,
2013-11-14 04:15:00,29.8,15.7,29.93,South,177,4.8,4.8,55,0.00,,SKC,0.00,VWS V14.01,2013-11-14 10:15:00,
2013-11-14 04:16:00,29.8,15.7,29.93,SSE,157,4.8,7.2,55,0.00,,SKC,0.00,VWS V14.01,2013-11-14 10:16:00,
2013-11-14 04:17:00,29.8,15.7,29.93,SSE,164,0.0,4.8,55,0.00,,SKC,0.00,VWS V14.01,2013-11-14 10:17:00,
2013-11-14 04:18:00,29.8,15.7,29.93,South,178,0.0,0.0,55,0.00,,SKC,0.00,VWS V14.01,2013-11-14 10:18:00,
2013-11-14 04:19:00,29.8,15.7,29.93,South,183,0.0,0.0,55,0.00,,SKC,0.00,VWS V14.01,2013-11-14 10:19:00,
2013-11-14 04:20:00,29.8,15.7,29.93,South,183,0.0,0.0,55,0.00,,SKC,0.00,VWS V14.01,2013-11-14 10:20:00,
2013-11-14 04:21:00,29.7,15.5,29.93,South,183,0.0,0.0,55,0.00,,SKC,0.00,VWS V14.01,2013-11-14 10:21:00,
2013-11-14 04:22:00,29.7,15.5,29.93,SSW,193,0.0,4.0,55,0.00,,SKC,0.00,VWS V14.01,2013-11-14 10:22:00,
2013-11-14 04:23:00,29.7,15.5,29.93,SSE,161,5.6,7.2,55,0.00,,SKC,0.00,VWS V14.01,2013-11-14 10:23:00,
2013-11-14 04:24:00,29.7,15.5,29.93,SSE,160,0.0,5.6,55,0.00,,SKC,0.00,VWS V14.01,2013-11-14 10:24:00,
2013-11-14 04:25:00,29.7,15.5,29.93,South,169,5.6,7.2,55,0.00,,SKC,0.00,VWS V14.01,2013-11-14 10:25:00,
2013-11-14 04:26:00,29.5,15.3,29.93,SSE,167,0.0,6.4,55,0.00,,SKC,0.00,VWS V14.01,2013-11-14 10:26:00,
2013-11-14 04:27:00,29.5,15.7,29.93,SSE,167,0.0,0.0,56,0.00,,SKC,0.00,VWS V14.01,2013-11-14 10:27:00,
2013-11-14 04:28:00,29.5,15.7,29.93,South,191,0.0,6.4,56,0.00,,SKC,0.00,VWS V14.01,2013-11-14 10:28:00,
2013-11-14 04:29:00,29.5,15.7,29.93,South,191,0.0,4.8,56,0.00,,SKC,0.00,VWS V14.01,2013-11-14 10:29:00,
2013-11-14 04:30:00,29.5,15.7,29.93,South,180,6.4,6.4,56,0.00,,SKC,0.00,VWS V14.01,2013-11-14 10:30:00,
2013-11-14 04:31:00,29.5,15.7,29.93,South,175,4.8,6.4,56,0.00,,SKC,0.00,VWS V14.01,2013-11-14 10:31:00,
2013-11-14 04:32:00,29.5,15.7,29.93,SSW,195,0.0,4.8,56,0.00,,SKC,0.00,VWS V14.01,2013-11-14 10:32:00,
2013-11-14 04:33:00,29.5,15.7,29.93,SSE,168,0.0,4.0,56,0.00,,SKC,0.00,VWS V14.01,2013-11-14 10:33:00,
2013-11-14 04:34:00,29.5,15.7,29.93,South,183,0.0,7.2,56,0.00,,SKC,0.00,VWS V14.01,2013-11-14 10:34:00,
2013-11-14 04:35:00,29.5,15.7,29.93,SSW,203,5.6,5.6,56,0.00,,SKC,0.00,VWS V14.01,2013-11-14 10:35:00,
2013-11-14 04:36:00,29.5,16.1,29.93,SSW,202,0.0,5.6,57,0.00,,SKC,0.00,VWS V14.01,2013-11-14 10:36:00,
2013-11-14 04:37:00,29.5,16.1,29.93,South,182,0.0,0.0,57,0.00,,SKC,0.00,VWS V14.01,2013-11-14 10:37:00,
2013-11-14 04:38:00,29.5,16.1,29.93,SSE,153,0.0,0.0,57,0.00,,SKC,0.00,VWS V14.01,2013-11-14 10:38:00,
2013-11-14 04:39:00,29.5,16.1,29.93,South,175,0.0,4.0,57,0.00,,SKC,0.00,VWS V14.01,2013-11-14 10:39:00,
2013-11-14 04:40:00,29.7,16.3,29.93,South,180,0.0,4.8,57,0.00,,SKC,0.00,VWS V14.01,2013-11-14 10:40:00,
2013-11-14 04:41:00,29.7,16.3,29.91,South,183,11.3,11.3,57,0.00,,SKC,0.00,VWS V14.01,2013-11-14 10:41:00,
2013-11-14 04:43:00,29.5,16.1,29.91,SSW,193,7.2,11.3,57,0.00,,SKC,0.00,VWS V14.01,2013-11-14 10:43:00,
2013-11-14 04:44:00,29.7,16.3,29.91,South,175,5.6,7.2,57,0.00,,SKC,0.00,VWS V14.01,2013-11-14 10:44:00,
2013-11-14 04:45:00,29.5,16.1,29.91,SSE,166,0.0,7.2,57,0.00,,SKC,0.00,VWS V14.01,2013-11-14 10:45:00,
2013-11-14 04:46:00,29.5,16.1,29.91,SSE,163,4.8,7.2,57,0.00,,SKC,0.00,VWS V14.01,2013-11-14 10:46:00,
2013-11-14 04:47:00,29.7,16.3,29.91,SSE,161,0.0,5.6,57,0.00,,SKC,0.00,VWS V14.01,2013-11-14 10:47:00,
2013-11-14 04:48:00,29.5,16.1,29.91,South,171,6.4,8.9,57,0.00,,SKC,0.00,VWS V14.01,2013-11-14 10:48:00,
2013-11-14 04:49:00,29.7,16.3,29.91,South,188,0.0,6.4,57,0.00,,SKC,0.00,VWS V14.01,2013-11-14 10:49:00,
2013-11-14 04:50:00,29.5,16.1,29.91,South,169,0.0,7.2,57,0.00,,SKC,0.00,VWS V14.01,2013-11-14 10:50:00,
2013-11-14 04:51:00,29.5,16.1,29.91,South,181,4.0,8.9,57,0.00,,SKC,0.00,VWS V14.01,2013-11-14 10:51:00,
2013-11-14 04:52:00,29.5,16.1,29.91,South,178,0.0,4.8,57,0.00,,SKC,0.00,VWS V14.01,2013-11-14 10:52:00,
2013-11-14 04:53:00,29.5,16.1,29.91,South,184,0.0,0.0,57,0.00,,SKC,0.00,VWS V14.01,2013-11-14 10:53:00,
2013-11-14 04:54:00,29.5,16.1,29.91,SSE,163,8.9,8.9,57,0.00,,SKC,0.00,VWS V14.01,2013-11-14 10:54:00,
2013-11-14 04:55:00,29.5,16.1,29.91,SSE,153,8.1,8.9,57,0.00,,SKC,0.00,VWS V14.01,2013-11-14 10:55:00,
2013-11-14 04:56:00,29.5,16.1,29.91,SSW,196,0.0,8.9,57,0.00,,SKC,0.00,VWS V14.01,2013-11-14 10:56:00,
2013-11-14 04:57:00,29.5,16.1,29.91,South,186,5.6,5.6,57,0.00,,SKC,0.00,VWS V14.01,2013-11-14 10:57:00,
2013-11-14 04:58:00,29.5,16.1,29.91,South,188,0.0,7.2,57,0.00,,SKC,0.00,VWS V14.01,2013-11-14 10:58:00,
2013-11-14 04:59:00,29.5,16.1,29.91,South,181,6.4,6.4,57,0.00,,SKC,0.00,VWS V14.01,2013-11-14 10:59:00,
2013-11-14 05:00:00,29.5,16.1,29.91,South,181,0.0,7.2,57,0.00,,SKC,0.00,VWS V14.01,2013-11-14 11:00:00,
2013-11-14 05:01:00,29.5,16.5,29.91,South,181,0.0,0.0,58,0.00,,SKC,0.00,VWS V14.01,2013-11-14 11:01:00,
2013-11-14 05:02:00,29.3,16.0,29.91,SSE,163,10.5,10.5,57,0.00,,SKC,0.00,VWS V14.01,2013-11-14 11:02:00,
2013-11-14 05:03:00,29.3,16.4,29.91,SSE,167,0.0,10.5,58,0.00,,SKC,0.00,VWS V14.01,2013-11-14 11:03:00,
2013-11-14 05:04:00,29.5,16.5,29.91,South,173,4.8,4.8,58,0.00,,SKC,0.00,VWS V14.01,2013-11-14 11:04:00,
2013-11-14 05:05:00,29.3,16.4,29.91,SSE,155,0.0,8.9,58,0.00,,SKC,0.00,VWS V14.01,2013-11-14 11:05:00,
2013-11-14 05:06:00,29.3,16.4,29.91,SSW,212,9.7,9.7,58,0.00,,SKC,0.00,VWS V14.01,2013-11-14 11:06:00,
2013-11-14 05:07:00,29.3,16.4,29.91,SSE,163,11.3,11.3,58,0.00,,SKC,0.00,VWS V14.01,2013-11-14 11:07:00,
2013-11-14 05:08:00,29.3,16.4,29.91,SE,145,0.0,11.3,58,0.00,,SKC,0.00,VWS V14.01,2013-11-14 11:08:00,
2013-11-14 05:09:00,29.3,16.4,29.91,South,172,0.0,5.6,58,0.00,,SKC,0.00,VWS V14.01,2013-11-14 11:09:00,
2013-11-14 05:10:00,29.3,16.4,29.91,SSE,166,0.0,0.0,58,0.00,,SKC,0.00,VWS V14.01,2013-11-14 11:10:00,
2013-11-14 05:11:00,29.3,16.4,29.91,SSE,162,4.8,4.8,58,0.00,,SKC,0.00,VWS V14.01,2013-11-14 11:11:00,
2013-11-14 05:12:00,29.3,16.4,29.91,South,170,0.0,7.2,58,0.00,,SKC,0.00,VWS V14.01,2013-11-14 11:12:00,
2013-11-14 05:13:00,29.3,16.4,29.91,SSE,168,4.8,6.4,58,0.00,,SKC,0.00,VWS V14.01,2013-11-14 11:13:00,
2013-11-14 05:14:00,29.3,16.4,29.91,SSE,156,4.0,4.8,58,0.00,,SKC,0.00,VWS V14.01,2013-11-14 11:14:00,
2013-11-14 05:15:00,29.3,16.4,29.91,South,188,4.0,6.4,58,0.00,,SKC,0.00,VWS V14.01,2013-11-14 11:15:00,
2013-11-14 05:16:00,29.3,16.4,29.91,South,188,0.0,4.0,58,0.00,,SKC,0.00,VWS V14.01,2013-11-14 11:16:00,
2013-11-14 05:17:00,29.3,16.4,29.91,South,188,0.0,0.0,58,0.00,,SKC,0.00,VWS V14.01,2013-11-14 11:17:00,
2013-11-14 05:18:00,29.3,16.4,29.91,South,173,6.4,8.9,58,0.00,,SKC,0.00,VWS V14.01,2013-11-14 11:18:00,
2013-11-14 05:19:00,29.3,16.4,29.91,South,191,0.0,6.4,58,0.00,,SKC,0.00,VWS V14.01,2013-11-14 11:19:00,
2013-11-14 05:20:00,29.3,16.8,29.91,South,185,0.0,5.6,59,0.00,,SKC,0.00,VWS V14.01,2013-11-14 11:20:00,
2013-11-14 05:21:00,29.3,16.8,29.91,South,179,6.4,7.2,59,0.00,,SKC,0.00,VWS V14.01,2013-11-14 11:21:00,
2013-11-14 05:22:00,29.3,16.8,29.91,South,179,0.0,6.4,59,0.00,,SKC,0.00,VWS V14.01,2013-11-14 11:22:00,
2013-11-14 05:23:00,29.3,16.8,29.91,South,170,0.0,0.0,59,0.00,,SKC,0.00,VWS V14.01,2013-11-14 11:23:00,
2013-11-14 05:24:00,29.3,16.8,29.91,South,184,4.0,5.6,59,0.00,,SKC,0.00,VWS V14.01,2013-11-14 11:24:00,
2013-11-14 05:25:00,29.5,16.9,29.91,South,171,0.0,4.0,59,0.00,,SKC,0.00,VWS V14.01,2013-11-14 11:25:00,
2013-11-14 05:26:00,29.3,16.8,29.91,South,170,0.0,0.0,59,0.00,,SKC,0.00,VWS V14.01,2013-11-14 11:26:00,
2013-11-14 05:27:00,29.3,16.8,29.91,South,170,0.0,0.0,59,0.00,,SKC,0.00,VWS V14.01,2013-11-14 11:27:00,
2013-11-14 05:28:00,29.3,16.8,29.91,SSW,207,0.0,0.0,59,0.00,,SKC,0.00,VWS V14.01,2013-11-14 11:28:00,
2013-11-14 05:29:00,29.3,16.8,29.91,SSE,153,0.0,0.0,59,0.00,,SKC,0.00,VWS V14.01,2013-11-14 11:29:00,
2013-11-14 05:30:00,29.3,16.8,29.91,South,171,0.0,0.0,59,0.00,,SKC,0.00,VWS V14.01,2013-11-14 11:30:00,
2013-11-14 05:31:00,29.3,16.8,29.91,South,190,0.0,0.0,59,0.00,,SKC,0.00,VWS V14.01,2013-11-14 11:31:00,
2013-11-14 05:32:00,29.3,16.8,29.91,South,184,0.0,4.8,59,0.00,,SKC,0.00,VWS V14.01,2013-11-14 11:32:00,
2013-11-14 05:33:00,29.3,16.8,29.91,SSE,163,8.1,8.1,59,0.00,,SKC,0.00,VWS V14.01,2013-11-14 11:33:00,
2013-11-14 05:34:00,29.3,16.8,29.91,SSE,165,4.0,11.3,59,0.00,,SKC,0.00,VWS V14.01,2013-11-14 11:34:00,
2013-11-14 05:35:00,29.3,16.8,29.91,South,181,4.8,6.4,59,0.00,,SKC,0.00,VWS V14.01,2013-11-14 11:35:00,
2013-11-14 05:36:00,29.3,16.8,29.91,South,181,0.0,4.8,59,0.00,,SKC,0.00,VWS V14.01,2013-11-14 11:36:00,
2013-11-14 05:37:00,29.3,17.1,29.91,SSE,166,0.0,5.6,60,0.00,,SKC,0.00,VWS V14.01,2013-11-14 11:37:00,
2013-11-14 05:38:00,29.3,17.1,29.91,SSE,167,0.0,0.0,60,0.00,,SKC,0.00,VWS V14.01,2013-11-14 11:38:00,
2013-11-14 05:39:00,29.5,17.3,29.91,SSE,167,0.0,0.0,60,0.00,,SKC,0.00,VWS V14.01,2013-11-14 11:39:00,
2013-11-14 05:40:00,29.5,17.3,29.91,SSE,160,4.8,4.8,60,0.00,,SKC,0.00,VWS V14.01,2013-11-14 11:40:00,
2013-11-14 05:41:00,29.3,17.1,29.91,SSE,160,0.0,4.8,60,0.00,,SKC,0.00,VWS V14.01,2013-11-14 11:41:00,
2013-11-14 05:42:00,29.5,17.3,29.91,SSE,165,0.0,5.6,60,0.00,,SKC,0.00,VWS V14.01,2013-11-14 11:42:00,
2013-11-14 05:44:00,29.5,17.3,29.91,South,189,5.6,7.2,60,0.00,,SKC,0.00,VWS V14.01,2013-11-14 11:44:00,
2013-11-14 05:45:00,29.5,17.3,29.91,SSW,194,4.8,9.7,60,0.00,,SKC,0.00,VWS V14.01,2013-11-14 11:45:00,
2013-11-14 05:46:00,29.3,17.1,29.91,SSW,192,0.0,8.9,60,0.00,,SKC,0.00,VWS V14.01,2013-11-14 11:46:00,
2013-11-14 05:47:00,29.5,17.3,29.91,South,189,0.0,0.0,60,0.00,,SKC,0.00,VWS V14.01,2013-11-14 11:47:00,
2013-11-14 05:48:00,29.5,17.3,29.91,South,189,0.0,0.0,60,0.00,,SKC,0.00,VWS V14.01,2013-11-14 11:48:00,
2013-11-14 05:49:00,29.5,17.3,29.91,South,175,0.0,0.0,60,0.00,,SKC,0.00,VWS V14.01,2013-11-14 11:49:00,
2013-11-14 05:50:00,29.5,17.3,29.91,South,190,4.8,4.8,60,0.00,,SKC,0.00,VWS V14.01,2013-11-14 11:50:00,
2013-11-14 05:51:00,29.3,17.1,29.91,South,187,4.8,4.8,60,0.00,,SKC,0.00,VWS V14.01,2013-11-14 11:51:00,
2013-11-14 05:52:00,29.3,17.1,29.91,SSE,153,6.4,6.4,60,0.00,,SKC,0.00,VWS V14.01,2013-11-14 11:52:00,
2013-11-14 05:53:00,29.3,17.1,29.91,South,172,0.0,7.2,60,0.00,,SKC,0.00,VWS V14.01,2013-11-14 11:53:00,
2013-11-14 05:54:00,29.3,17.1,29.91,SSE,159,0.0,0.0,60,0.00,,SKC,0.00,VWS V14.01,2013-11-14 11:54:00,
2013-11-14 05:55:00,29.3,17.1,29.91,South,172,0.0,0.0,60,0.00,,SKC,0.00,VWS V14.01,2013-11-14 11:55:00,
2013-11-14 05:56:00,29.3,17.1,29.91,SSE,168,0.0,0.0,60,0.00,,SKC,0.00,VWS V14.01,2013-11-14 11:56:00,
2013-11-14 05:57:00,29.3,17.1,29.91,SSE,168,4.8,4.8,60,0.00,,SKC,0.00,VWS V14.01,2013-11-14 11:57:00,
2013-11-14 05:58:00,29.3,17.1,29.91,South,170,0.0,5.6,60,0.00,,SKC,0.00,VWS V14.01,2013-11-14 11:58:00,
2013-11-14 05:59:00,29.3,17.1,29.91,South,170,0.0,0.0,60,0.00,,SKC,0.00,VWS V14.01,2013-11-14 11:59:00,
2013-11-14 06:00:00,29.3,17.1,29.91,South,170,0.0,0.0,60,0.00,,SKC,0.00,VWS V14.01,2013-11-14 12:00:00,
2013-11-14 06:05:00,29.5,17.3,29.91,SSW,194,6.4,6.4,60,0.00,,SKC,0.00,VWS V14.01,2013-11-14 12:05:00,
2013-11-14 06:06:00,29.5,17.3,29.91,South,184,0.0,6.4,60,0.00,,SKC,0.00,VWS V14.01,2013-11-14 12:06:00,
2013-11-14 06:07:00,29.5,17.3,29.91,South,184,0.0,0.0,60,0.00,,SKC,0.00,VWS V14.01,2013-11-14 12:07:00,
2013-11-14 06:08:00,29.5,17.3,29.91,South,182,4.8,5.6,60,0.00,,SKC,0.00,VWS V14.01,2013-11-14 12:08:00,
2013-11-14 06:09:00,29.5,17.3,29.91,South,174,0.0,4.8,60,0.00,,SKC,0.00,VWS V14.01,2013-11-14 12:09:00,
2013-11-14 06:10:00,29.5,17.3,29.91,SSE,165,0.0,4.8,60,0.00,,SKC,0.00,VWS V14.01,2013-11-14 12:10:00,
2013-11-14 06:11:00,29.5,17.3,29.91,South,170,4.8,4.8,60,0.00,,SKC,0.00,VWS V14.01,2013-11-14 12:11:00,
2013-11-14 06:12:00,29.5,17.3,29.91,South,184,0.0,7.2,60,0.00,,SKC,0.00,VWS V14.01,2013-11-14 12:12:00,
2013-11-14 06:13:00,29.5,17.3,29.91,SSE,152,0.0,0.0,60,0.00,,SKC,0.00,VWS V14.01,2013-11-14 12:13:00,
2013-11-14 06:14:00,29.5,17.3,29.91,SSE,160,0.0,0.0,60,0.00,,SKC,0.00,VWS V14.01,2013-11-14 12:14:00,
2013-11-14 06:15:00,29.5,17.3,29.91,SSE,168,6.4,6.4,60,0.00,,SKC,0.00,VWS V14.01,2013-11-14 12:15:00,
2013-11-14 06:16:00,29.5,17.3,29.91,SSW,193,7.2,7.2,60,0.00,,SKC,0.00,VWS V14.01,2013-11-14 12:16:00,
2013-11-14 06:17:00,29.5,17.3,29.91,South,176,4.8,7.2,60,0.00,,SKC,0.00,VWS V14.01,2013-11-14 12:17:00,
2013-11-14 06:18:00,29.5,17.3,29.91,SSE,167,6.4,8.9,60,0.00,,SKC,0.00,VWS V14.01,2013-11-14 12:18:00,
2013-11-14 06:19:00,29.5,17.3,29.91,SSE,167,0.0,6.4,60,0.00,,SKC,0.00,VWS V14.01,2013-11-14 12:19:00,
2013-11-14 06:20:00,29.5,17.3,29.91,SSE,157,4.8,7.2,60,0.00,,SKC,0.00,VWS V14.01,2013-11-14 12:20:00,
2013-11-14 06:21:00,29.5,17.3,29.91,South,191,4.8,7.2,60,0.00,,SKC,0.00,VWS V14.01,2013-11-14 12:21:00,
2013-11-14 06:22:00,29.5,17.3,29.91,South,189,0.0,4.8,60,0.00,,SKC,0.00,VWS V14.01,2013-11-14 12:22:00,
2013-11-14 06:23:00,29.7,17.5,29.91,South,174,4.8,8.9,60,0.00,,SKC,0.00,VWS V14.01,2013-11-14 12:23:00,
2013-11-14 06:24:00,29.7,17.5,29.91,SSE,156,4.0,6.4,60,0.00,,SKC,0.00,VWS V14.01,2013-11-14 12:24:00,
2013-11-14 06:25:00,29.7,17.5,29.91,South,169,0.0,4.0,60,0.00,,SKC,0.00,VWS V14.01,2013-11-14 12:25:00,
2013-11-14 06:26:00,29.7,17.5,29.91,South,179,6.4,6.4,60,0.00,,SKC,0.00,VWS V14.01,2013-11-14 12:26:00,
2013-11-14 06:27:00,29.8,17.7,29.91,SSW,194,4.8,10.5,60,0.00,,SKC,0.00,VWS V14.01,2013-11-14 12:27:00,
2013-11-14 06:28:00,29.8,17.7,29.91,South,175,4.8,6.4,60,0.00,,SKC,0.00,VWS V14.01,2013-11-14 12:28:00,
2013-11-14 06:29:00,29.8,17.7,29.91,South,176,5.6,5.6,60,0.00,,SKC,0.00,VWS V14.01,2013-11-14 12:29:00,
2013-11-14 06:30:00,29.8,17.7,29.91,SE,141,0.0,5.6,60,0.00,,SKC,0.00,VWS V14.01,2013-11-14 12:30:00,
2013-11-14 06:31:00,29.8,17.7,29.91,SSW,207,0.0,5.6,60,0.00,,SKC,0.00,VWS V14.01,2013-11-14 12:31:00,
2013-11-14 06:32:00,30.0,17.8,29.91,SSW,192,5.6,7.2,60,0.00,,SKC,0.00,VWS V14.01,2013-11-14 12:32:00,
2013-11-14 06:33:00,30.0,17.8,29.91,South,181,4.8,6.4,60,0.00,,SKC,0.00,VWS V14.01,2013-11-14 12:33:00,
2013-11-14 06:34:00,29.8,17.7,29.91,SSE,164,7.2,7.2,60,0.00,,SKC,0.00,VWS V14.01,2013-11-14 12:34:00,
2013-11-14 06:35:00,30.0,17.8,29.91,SSW,200,4.8,7.2,60,0.00,,SKC,0.00,VWS V14.01,2013-11-14 12:35:00,
2013-11-14 06:36:00,30.0,17.8,29.91,SSE,166,5.6,6.4,60,0.00,,SKC,0.00,VWS V14.01,2013-11-14 12:36:00,
2013-11-14 06:37:00,30.0,17.8,29.91,South,174,6.4,6.4,60,0.00,,SKC,0.00,VWS V14.01,2013-11-14 12:37:00,
2013-11-14 06:38:00,30.0,17.8,29.91,South,188,0.0,6.4,60,0.00,,SKC,0.00,VWS V14.01,2013-11-14 12:38:00,
2013-11-14 06:39:00,30.0,17.8,29.91,South,176,0.0,0.0,60,0.00,,SKC,0.00,VWS V14.01,2013-11-14 12:39:00,
2013-11-14 06:40:00,30.0,17.8,29.91,SSW,209,0.0,8.9,60,0.00,,SKC,0.00,VWS V14.01,2013-11-14 12:40:00,
2013-11-14 06:41:00,30.0,17.8,29.91,South,169,0.0,5.6,60,0.00,,SKC,0.00,VWS V14.01,2013-11-14 12:41:00,
2013-11-14 06:42:00,30.0,17.4,29.91,South,177,0.0,4.8,59,0.00,,SKC,0.00,VWS V14.01,2013-11-14 12:42:00,
2013-11-14 06:43:00,30.0,17.4,29.91,South,179,7.2,7.2,59,0.00,,SKC,0.00,VWS V14.01,2013-11-14 12:43:00,
2013-11-14 06:44:00,30.0,17.4,29.91,South,176,9.7,9.7,59,0.00,,SKC,0.00,VWS V14.01,2013-11-14 12:44:00,
2013-11-14 06:45:00,30.0,17.4,29.91,South,173,6.4,9.7,59,0.00,,SKC,0.00,VWS V14.01,2013-11-14 12:45:00,
2013-11-14 06:46:00,30.0,17.4,29.91,South,189,11.3,11.3,59,0.00,,SKC,0.00,VWS V14.01,2013-11-14 12:46:00,
2013-11-14 06:47:00,30.2,17.6,29.91,SSW,202,4.8,11.3,59,0.00,,SKC,0.00,VWS V14.01,2013-11-14 12:47:00,
2013-11-14 06:48:00,30.2,17.6,29.91,SE,141,0.0,6.4,59,0.00,,SKC,0.00,VWS V14.01,2013-11-14 12:48:00,
2013-11-14 06:49:00,30.2,17.6,29.91,South,169,0.0,5.6,59,0.00,,SKC,0.00,VWS V14.01,2013-11-14 12:49:00,
2013-11-14 06:50:00,30.2,17.6,29.91,South,176,0.0,5.6,59,0.00,,SKC,0.00,VWS V14.01,2013-11-14 12:50:00,
2013-11-14 06:51:00,30.2,17.6,29.91,South,190,5.6,5.6,59,0.00,,SKC,0.00,VWS V14.01,2013-11-14 12:51:00,
2013-11-14 06:52:00,30.2,17.6,29.91,South,188,0.0,5.6,59,0.00,,SKC,0.00,VWS V14.01,2013-11-14 12:52:00,
2013-11-14 06:53:00,30.2,17.6,29.91,SSE,167,4.8,8.9,59,0.00,,SKC,0.00,VWS V14.01,2013-11-14 12:53:00,
2013-11-14 06:54:00,30.2,17.6,29.91,South,184,0.0,6.4,59,0.00,,SKC,0.00,VWS V14.01,2013-11-14 12:54:00,
2013-11-14 06:55:00,30.2,17.6,29.91,South,186,0.0,0.0,59,0.00,,SKC,0.00,VWS V14.01,2013-11-14 12:55:00,
2013-11-14 06:56:00,30.2,17.6,29.91,South,185,0.0,8.9,59,0.00,,SKC,0.00,VWS V14.01,2013-11-14 12:56:00,
2013-11-14 06:57:00,30.2,17.6,29.91,SSW,197,5.6,5.6,59,0.00,,SKC,0.00,VWS V14.01,2013-11-14 12:57:00,
2013-11-14 06:58:00,30.2,17.6,29.91,SSW,209,0.0,6.4,59,0.00,,SKC,0.00,VWS V14.01,2013-11-14 12:58:00,
2013-11-14 06:59:00,30.4,17.8,29.91,SW,219,0.0,0.0,59,0.00,,SKC,0.00,VWS V14.01,2013-11-14 12:59:00,
2013-11-14 07:00:00,30.4,17.8,29.91,SW,218,0.0,0.0,59,0.00,,SKC,0.00,VWS V14.01,2013-11-14 13:00:00,
2013-11-14 07:04:00,30.4,17.4,29.91,SSW,209,0.0,0.0,58,0.00,,SKC,0.00,VWS V14.01,2013-11-14 13:04:00,
2013-11-14 07:05:00,30.4,17.4,29.91,South,182,0.0,0.0,58,0.00,,SKC,0.00,VWS V14.01,2013-11-14 13:05:00,
2013-11-14 07:06:00,30.4,17.4,29.91,SSW,204,0.0,0.0,58,0.00,,SKC,0.00,VWS V14.01,2013-11-14 13:06:00,
2013-11-14 07:07:00,30.4,17.4,29.91,SSW,197,0.0,0.0,58,0.00,,SKC,0.00,VWS V14.01,2013-11-14 13:07:00,
2013-11-14 07:08:00,30.4,17.4,29.91,South,187,0.0,0.0,58,0.00,,SKC,0.00,VWS V14.01,2013-11-14 13:08:00,
2013-11-14 07:09:00,30.4,17.4,29.91,SW,216,5.6,6.4,58,0.00,,SKC,0.00,VWS V14.01,2013-11-14 13:09:00,
2013-11-14 07:10:00,30.4,17.4,29.91,SSW,195,4.8,6.4,58,0.00,,SKC,0.00,VWS V14.01,2013-11-14 13:10:00,
2013-11-14 07:11:00,30.4,17.4,29.91,SSW,197,0.0,4.8,58,0.00,,SKC,0.00,VWS V14.01,2013-11-14 13:11:00,
2013-11-14 07:12:00,30.4,17.4,29.91,SW,214,0.0,0.0,58,0.00,,SKC,0.00,VWS V14.01,2013-11-14 13:12:00,
2013-11-14 07:13:00,30.6,17.6,29.91,SSW,209,0.0,4.8,58,0.00,,SKC,0.00,VWS V14.01,2013-11-14 13:13:00,
2013-11-14 07:14:00,30.6,17.6,29.91,SSW,209,0.0,0.0,58,0.00,,SKC,0.00,VWS V14.01,2013-11-14 13:14:00,
2013-11-14 07:15:00,30.6,17.6,29.91,SSW,197,0.0,4.8,58,0.00,,SKC,0.00,VWS V14.01,2013-11-14 13:15:00,
2013-11-14 07:16:00,30.6,17.6,29.91,SSW,202,0.0,4.0,58,0.00,,SKC,0.00,VWS V14.01,2013-11-14 13:16:00,
2013-11-14 07:17:00,30.6,17.6,29.91,SSW,195,4.8,4.8,58,0.00,,SKC,0.00,VWS V14.01,2013-11-14 13:17:00,
2013-11-14 07:18:00,30.7,17.7,29.91,South,180,9.7,9.7,58,0.00,,SKC,0.00,VWS V14.01,2013-11-14 13:18:00,
2013-11-14 07:19:00,30.7,17.7,29.91,SSW,202,6.4,9.7,58,0.00,,SKC,0.00,VWS V14.01,2013-11-14 13:19:00,
2013-11-14 07:20:00,30.7,17.7,29.91,SSW,202,0.0,6.4,58,0.00,,SKC,0.00,VWS V14.01,2013-11-14 13:20:00,
2013-11-14 07:21:00,30.9,17.9,29.91,SSW,202,0.0,0.0,58,0.00,,SKC,0.00,VWS V14.01,2013-11-14 13:21:00,
2013-11-14 07:22:00,30.9,17.9,29.91,SSW,202,0.0,0.0,58,0.00,,SKC,0.00,VWS V14.01,2013-11-14 13:22:00,
2013-11-14 07:23:00,30.9,17.9,29.91,SSW,193,0.0,0.0,58,0.00,,SKC,0.00,VWS V14.01,2013-11-14 13:23:00,
2013-11-14 07:24:00,31.1,18.1,29.91,SSE,162,6.4,6.4,58,0.00,,SKC,0.00,VWS V14.01,2013-11-14 13:24:00,
2013-11-14 07:25:00,31.1,18.1,29.91,South,175,4.8,7.2,58,0.00,,SKC,0.00,VWS V14.01,2013-11-14 13:25:00,
2013-11-14 07:26:00,31.1,18.1,29.91,South,184,0.0,5.6,58,0.00,,SKC,0.00,VWS V14.01,2013-11-14 13:26:00,
2013-11-14 07:27:00,31.1,18.1,29.91,SSE,165,5.6,5.6,58,0.00,,SKC,0.00,VWS V14.01,2013-11-14 13:27:00,
2013-11-14 07:28:00,31.1,18.1,29.91,SSW,198,0.0,5.6,58,0.00,,SKC,0.00,VWS V14.01,2013-11-14 13:28:00,
2013-11-14 07:29:00,31.1,17.7,29.91,SSW,202,0.0,9.7,57,0.00,,SKC,0.00,VWS V14.01,2013-11-14 13:29:00,
2013-11-14 07:30:00,31.3,17.8,29.91,SSW,204,4.0,7.2,57,0.00,,SKC,0.00,VWS V14.01,2013-11-14 13:30:00,
2013-11-14 07:31:00,31.3,17.8,29.91,SSW,204,0.0,4.0,57,0.00,,SKC,0.00,VWS V14.01,2013-11-14 13:31:00,
2013-11-14 07:32:00,31.3,17.8,29.91,South,178,6.4,6.4,57,0.00,,SKC,0.00,VWS V14.01,2013-11-14 13:32:00,
2013-11-14 07:33:00,31.5,18.0,29.91,SSW,203,0.0,7.2,57,0.00,,SKC,0.00,VWS V14.01,2013-11-14 13:33:00,
2013-11-14 07:34:00,31.5,18.0,29.91,SSW,197,4.8,11.3,57,0.00,,SKC,0.00,VWS V14.01,2013-11-14 13:34:00,
2013-11-14 07:35:00,31.6,18.2,29.91,SW,215,7.2,7.2,57,0.00,,SKC,0.00,VWS V14.01,2013-11-14 13:35:00,
2013-11-14 07:36:00,31.6,18.2,29.91,South,181,5.6,7.2,57,0.00,,SKC,0.00,VWS V14.01,2013-11-14 13:36:00,
2013-11-14 07:37:00,31.6,18.2,29.91,South,189,4.8,6.4,57,0.00,,SKC,0.00,VWS V14.01,2013-11-14 13:37:00,
2013-11-14 07:38:00,31.8,18.3,29.91,SSW,201,4.8,5.6,57,0.00,,SKC,0.00,VWS V14.01,2013-11-14 13:38:00,
2013-11-14 07:39:00,31.8,18.3,29.91,SSW,198,4.0,4.8,57,0.00,,SKC,0.00,VWS V14.01,2013-11-14 13:39:00,
2013-11-14 07:40:00,32.0,18.1,29.91,SW,219,6.4,9.7,56,0.00,,SKC,0.00,VWS V14.01,2013-11-14 13:40:00,
2013-11-14 07:42:00,32.2,18.3,29.91,SSE,148,0.0,6.4,56,0.00,,SKC,0.00,VWS V14.01,2013-11-14 13:42:00,
2013-11-14 07:43:00,32.2,18.3,29.91,SSW,201,0.0,0.0,56,0.00,,SKC,0.00,VWS V14.01,2013-11-14 13:43:00,
2013-11-14 07:44:00,32.4,18.4,29.91,SSW,207,7.2,7.2,56,0.00,,SKC,0.00,VWS V14.01,2013-11-14 13:44:00,
2013-11-14 07:45:00,32.4,18.4,29.91,WSW,256,6.4,7.2,56,0.00,,SKC,0.00,VWS V14.01,2013-11-14 13:45:00,
2013-11-14 07:46:00,32.5,18.2,29.91,South,170,4.0,6.4,55,0.00,,SKC,0.00,VWS V14.01,2013-11-14 13:46:00,
2013-11-14 07:48:00,32.5,18.2,29.91,SE,146,9.7,14.5,55,0.00,,SKC,0.00,VWS V14.01,2013-11-14 13:48:00,
2013-11-14 07:49:00,32.5,18.2,29.91,SSW,205,11.3,11.3,55,0.00,,SKC,0.00,VWS V14.01,2013-11-14 13:49:00,
2013-11-14 07:50:00,32.7,18.4,29.91,SSW,199,4.8,11.3,55,0.00,,SKC,0.00,VWS V14.01,2013-11-14 13:50:00,
2013-11-14 07:51:00,32.7,18.4,29.91,SSE,150,5.6,5.6,55,0.00,,SKC,0.00,VWS V14.01,2013-11-14 13:51:00,
2013-11-14 07:52:00,32.9,18.5,29.91,SSW,207,5.6,11.3,55,0.00,,SKC,0.00,VWS V14.01,2013-11-14 13:52:00,
2013-11-14 07:53:00,32.9,18.1,29.91,SSE,164,4.8,9.7,54,0.00,,SKC,0.00,VWS V14.01,2013-11-14 13:53:00,
2013-11-14 07:54:00,33.1,18.3,29.91,SSW,202,7.2,9.7,54,0.00,,SKC,0.00,VWS V14.01,2013-11-14 13:54:00,
2013-11-14 07:55:00,33.1,18.3,29.91,SSW,213,4.8,9.7,54,0.00,,SKC,0.00,VWS V14.01,2013-11-14 13:55:00,
2013-11-14 07:56:00,33.3,18.4,29.91,SSW,204,5.6,5.6,54,0.00,,SKC,0.00,VWS V14.01,2013-11-14 13:56:00,
2013-11-14 07:57:00,33.3,18.0,29.91,SSW,213,6.4,11.3,53,0.00,,SKC,0.00,VWS V14.01,2013-11-14 13:57:00,
2013-11-14 07:58:00,33.3,18.0,29.91,SSW,194,4.8,6.4,53,0.00,,SKC,0.00,VWS V14.01,2013-11-14 13:58:00,
2013-11-14 07:59:00,33.4,18.2,29.91,SSW,210,11.3,11.3,53,0.00,,SKC,0.00,VWS V14.01,2013-11-14 13:59:00,
2013-11-14 08:00:00,33.6,18.3,29.91,SW,217,6.4,11.3,53,0.00,,SKC,0.00,VWS V14.01,2013-11-14 14:00:00,
2013-11-14 08:05:00,34.2,18.4,29.91,WSW,245,13.7,15.7,52,0.00,,SKC,0.00,VWS V14.01,2013-11-14 14:05:00,
2013-11-14 08:06:00,34.2,18.4,29.91,SSW,200,7.2,13.7,52,0.00,,SKC,0.00,VWS V14.01,2013-11-14 14:06:00,
2013-11-14 08:07:00,34.3,18.5,29.91,SSW,207,4.8,7.2,52,0.00,,SKC,0.00,VWS V14.01,2013-11-14 14:07:00,
2013-11-14 08:08:00,34.5,18.7,29.91,SSW,193,4.8,8.9,52,0.00,,SKC,0.00,VWS V14.01,2013-11-14 14:08:00,
2013-11-14 08:09:00,34.5,18.7,29.91,SSE,163,7.2,9.7,52,0.00,,SKC,0.00,VWS V14.01,2013-11-14 14:09:00,
2013-11-14 08:10:00,34.7,18.9,29.91,SW,226,9.7,9.7,52,0.00,,SKC,0.00,VWS V14.01,2013-11-14 14:10:00,
2013-11-14 08:11:00,34.9,18.6,29.91,SW,220,10.5,13.7,51,0.00,,SKC,0.00,VWS V14.01,2013-11-14 14:11:00,
2013-11-14 08:12:00,34.9,18.6,29.91,SSW,200,11.3,11.3,51,0.00,,SKC,0.00,VWS V14.01,2013-11-14 14:12:00,
2013-11-14 08:13:00,34.9,18.6,29.91,South,186,14.5,14.5,51,0.00,,SKC,0.00,VWS V14.01,2013-11-14 14:13:00,
2013-11-14 08:14:00,35.1,18.8,29.91,SSW,209,7.2,14.9,51,0.00,,SKC,0.00,VWS V14.01,2013-11-14 14:14:00,
2013-11-14 08:15:00,35.1,18.8,29.91,SW,226,6.4,10.5,51,0.00,,SKC,0.00,VWS V14.01,2013-11-14 14:15:00,
2013-11-14 08:16:00,35.1,18.3,29.91,SSW,209,8.9,13.7,50,0.00,,SKC,0.00,VWS V14.01,2013-11-14 14:16:00,
2013-11-14 08:17:00,35.1,18.3,29.91,WSW,238,8.9,15.7,50,0.00,,SKC,0.00,VWS V14.01,2013-11-14 14:17:00,
2013-11-14 08:18:00,35.1,18.3,29.91,SW,226,11.3,14.9,50,0.00,,SKC,0.00,VWS V14.01,2013-11-14 14:18:00,
2013-11-14 08:19:00,35.2,18.5,29.91,SW,222,14.5,14.5,50,0.00,,SKC,0.00,VWS V14.01,2013-11-14 14:19:00,
2013-11-14 08:20:00,35.2,18.5,29.91,SSW,193,7.2,14.5,50,0.00,,SKC,0.00,VWS V14.01,2013-11-14 14:20:00,
2013-11-14 08:21:00,35.4,18.6,29.91,SSW,213,9.7,14.5,50,0.00,,SKC,0.00,VWS V14.01,2013-11-14 14:21:00,
2013-11-14 08:22:00,35.4,18.6,29.91,SW,214,10.5,14.5,50,0.00,,SKC,0.00,VWS V14.01,2013-11-14 14:22:00,
2013-11-14 08:23:00,35.6,18.3,29.91,SW,223,7.2,11.3,49,0.00,,SKC,0.00,VWS V14.01,2013-11-14 14:23:00,
2013-11-14 08:24:00,35.6,18.3,29.91,SW,220,6.4,11.3,49,0.00,,SKC,0.00,VWS V14.01,2013-11-14 14:24:00,
2013-11-14 08:25:00,35.8,18.5,29.91,SW,229,5.6,6.4,49,0.00,,SKC,0.00,VWS V14.01,2013-11-14 14:25:00,
2013-11-14 08:26:00,35.8,18.5,29.91,SSW,192,6.4,11.3,49,0.00,,SKC,0.00,VWS V14.01,2013-11-14 14:26:00,
2013-11-14 08:27:00,35.8,18.5,29.91,SSW,196,9.7,9.7,49,0.00,,SKC,0.00,VWS V14.01,2013-11-14 14:27:00,
2013-11-14 08:28:00,36.0,18.7,29.91,SW,220,14.5,14.5,49,0.00,,SKC,0.00,VWS V14.01,2013-11-14 14:28:00,
2013-11-14 08:29:00,36.1,18.8,29.91,SSW,200,12.9,14.9,49,0.00,,SKC,0.00,VWS V14.01,2013-11-14 14:29:00,
2013-11-14 08:30:00,36.1,18.8,29.91,SW,219,9.7,12.9,49,0.00,,SKC,0.00,VWS V14.01,2013-11-14 14:30:00,
2013-11-14 08:31:00,36.3,19.0,29.91,WSW,243,9.7,18.1,49,0.00,,SKC,0.00,VWS V14.01,2013-11-14 14:31:00,
2013-11-14 08:32:00,36.1,18.4,29.91,SW,230,17.3,19.7,48,0.00,,SKC,0.00,VWS V14.01,2013-11-14 14:32:00,
2013-11-14 08:33:00,36.3,18.5,29.91,SSW,201,17.3,17.3,48,0.00,,SKC,0.00,VWS V14.01,2013-11-14 14:33:00,
2013-11-14 08:34:00,36.3,18.5,29.91,SSW,209,10.5,17.3,48,0.00,,SKC,0.00,VWS V14.01,2013-11-14 14:34:00,
2013-11-14 08:35:00,36.5,18.7,29.91,SSW,195,13.7,13.7,48,0.00,,SKC,0.00,VWS V14.01,2013-11-14 14:35:00,
2013-11-14 08:36:00,36.5,18.2,29.91,SSW,193,10.5,14.5,47,0.00,,SKC,0.00,VWS V14.01,2013-11-14 14:36:00,
2013-11-14 08:37:00,36.5,18.2,29.91,SW,225,15.7,15.7,47,0.00,,SKC,0.00,VWS V14.01,2013-11-14 14:37:00,
2013-11-14 08:38:00,36.7,18.4,29.91,WSW,239,7.2,16.5,47,0.00,,SKC,0.00,VWS V14.01,2013-11-14 14:38:00,
2013-11-14 08:39:00,36.7,18.4,29.91,SSW,204,14.5,19.7,47,0.00,,SKC,0.00,VWS V14.01,2013-11-14 14:39:00,
2013-11-14 08:40:00,36.9,18.5,29.91,SSW,200,13.7,14.5,47,0.00,,SKC,0.00,VWS V14.01,2013-11-14 14:40:00,
2013-11-14 08:41:00,36.9,18.5,29.91,SSW,211,24.6,24.6,47,0.00,,SKC,0.00,VWS V14.01,2013-11-14 14:41:00,
2013-11-14 08:42:00,37.0,18.7,29.91,SW,226,17.3,24.6,47,0.00,,SKC,0.00,VWS V14.01,2013-11-14 14:42:00,
2013-11-14 08:43:00,37.0,18.7,29.91,SW,216,9.7,17.3,47,0.00,,SKC,0.00,VWS V14.01,2013-11-14 14:43:00,
2013-11-14 08:44:00,37.4,19.0,29.91,SW,234,9.7,14.9,47,0.00,,SKC,0.00,VWS V14.01,2013-11-14 14:44:00,
2013-11-14 08:45:00,37.4,19.0,29.91,SSW,200,10.5,11.3,47,0.00,,SKC,0.00,VWS V14.01,2013-11-14 14:45:00,
2013-11-14 08:46:00,37.6,19.2,29.91,SW,217,10.5,17.3,47,0.00,,SKC,0.00,VWS V14.01,2013-11-14 14:46:00,
2013-11-14 08:48:00,37.8,18.9,29.91,WSW,239,14.9,15.7,46,0.00,,SKC,0.00,VWS V14.01,2013-11-14 14:48:00,
2013-11-14 08:49:00,37.9,19.0,29.91,SW,223,14.9,18.1,46,0.00,,SKC,0.00,VWS V14.01,2013-11-14 14:49:00,
2013-11-14 08:50:00,38.1,19.2,29.91,WSW,240,18.1,18.1,46,0.00,,SKC,0.00,VWS V14.01,2013-11-14 14:50:00,
2013-11-14 08:51:00,38.1,18.7,29.91,SW,230,19.7,22.1,45,0.00,,SKC,0.00,VWS V14.01,2013-11-14 14:51:00,
2013-11-14 08:52:00,37.9,18.5,29.91,SSW,202,15.7,26.2,45,0.00,,SKC,0.00,VWS V14.01,2013-11-14 14:52:00,
2013-11-14 08:53:00,38.1,18.7,29.91,SW,226,11.3,18.1,45,0.00,,SKC,0.00,VWS V14.01,2013-11-14 14:53:00,
2013-11-14 08:54:00,38.1,18.7,29.91,SSW,200,12.9,14.9,45,0.00,,SKC,0.00,VWS V14.01,2013-11-14 14:54:00,
2013-11-14 08:55:00,38.1,18.7,29.91,WSW,244,13.7,22.1,45,0.00,,SKC,0.00,VWS V14.01,2013-11-14 14:55:00,
2013-11-14 08:56:00,38.1,18.7,29.91,SW,223,18.1,18.1,45,0.00,,SKC,0.00,VWS V14.01,2013-11-14 14:56:00,
2013-11-14 08:57:00,38.1,18.7,29.91,SW,217,8.9,18.1,45,0.00,,SKC,0.00,VWS V14.01,2013-11-14 14:57:00,
2013-11-14 08:58:00,38.5,19.0,29.91,SW,216,14.9,14.9,45,0.00,,SKC,0.00,VWS V14.01,2013-11-14 14:58:00,
2013-11-14 08:59:00,38.5,19.0,29.91,SSW,207,7.2,14.9,45,0.00,,SKC,0.00,VWS V14.01,2013-11-14 14:59:00,
2013-11-14 09:00:00,38.5,19.0,29.91,West,270,10.5,10.5,45,0.00,,SKC,0.00,VWS V14.01,2013-11-14 15:00:00,
2013-11-14 09:05:00,38.7,18.6,29.91,SW,227,10.5,15.7,44,0.00,,SKC,0.00,VWS V14.01,2013-11-14 15:05:00,
2013-11-14 09:06:00,38.8,18.8,29.91,West,271,9.7,12.9,44,0.00,,SKC,0.00,VWS V14.01,2013-11-14 15:06:00,
2013-11-14 09:07:00,38.8,18.8,29.91,West,271,12.1,12.1,44,0.00,,SKC,0.00,VWS V14.01,2013-11-14 15:07:00,
2013-11-14 09:08:00,39.2,19.1,29.91,WSW,249,8.9,12.1,44,0.00,,SKC,0.00,VWS V14.01,2013-11-14 15:08:00,
2013-11-14 09:09:00,39.4,19.3,29.91,South,177,14.5,14.5,44,0.00,,SKC,0.00,VWS V14.01,2013-11-14 15:09:00,
2013-11-14 09:10:00,39.7,20.1,29.91,SSW,192,9.7,14.9,45,0.00,,SKC,0.00,VWS V14.01,2013-11-14 15:10:00,
2013-11-14 09:11:00,39.9,20.3,29.91,SSE,165,11.3,13.7,45,0.00,,SKC,0.00,VWS V14.01,2013-11-14 15:11:00,
2013-11-14 09:12:00,40.1,19.4,29.91,WSW,243,14.9,18.9,43,0.00,,SKC,0.00,VWS V14.01,2013-11-14 15:12:00,
2013-11-14 09:13:00,39.9,19.2,29.91,WSW,252,9.7,15.7,43,0.00,,SKC,0.00,VWS V14.01,2013-11-14 15:13:00,
2013-11-14 09:14:00,40.3,19.6,29.91,WSW,254,9.7,15.7,43,0.00,,SKC,0.00,VWS V14.01,2013-11-14 15:14:00,
2013-11-14 09:15:00,40.3,19.6,29.91,SSW,212,11.3,18.9,43,0.00,,SKC,0.00,VWS V14.01,2013-11-14 15:15:00,
2013-11-14 09:16:00,40.3,19.6,29.91,SSW,207,14.9,14.9,43,0.00,,SKC,0.00,VWS V14.01,2013-11-14 15:16:00,
2013-11-14 09:17:00,39.7,19.1,29.91,WSW,258,9.7,14.9,43,0.00,,SKC,0.00,VWS V14.01,2013-11-14 15:17:00,
2013-11-14 09:18:00,39.9,19.2,29.91,SW,217,8.9,12.9,43,0.00,,SKC,0.00,VWS V14.01,2013-11-14 15:18:00,
2013-11-14 09:19:00,40.3,19.6,29.91,SSW,209,13.7,13.7,43,0.00,,SKC,0.00,VWS V14.01,2013-11-14 15:19:00,
2013-11-14 09:20:00,40.6,20.5,29.91,South,185,9.7,14.9,44,0.00,,SKC,0.00,VWS V14.01,2013-11-14 15:20:00,
2013-11-14 09:21:00,40.8,20.6,29.91,WSW,254,9.7,10.5,44,0.00,,SKC,0.00,VWS V14.01,2013-11-14 15:21:00,
2013-11-14 09:22:00,40.8,20.1,29.91,WSW,243,8.9,9.7,43,0.00,,SKC,0.00,VWS V14.01,2013-11-14 15:22:00,
2013-11-14 09:23:00,41.0,20.2,29.91,SSW,213,11.3,14.5,43,0.00,,SKC,0.00,VWS V14.01,2013-11-14 15:23:00,
2013-11-14 09:24:00,41.0,20.2,29.91,WSW,242,7.2,15.7,43,0.00,,SKC,0.00,VWS V14.01,2013-11-14 15:24:00,
2013-11-14 09:25:00,40.6,19.9,29.91,WSW,257,9.7,11.3,43,0.00,,SKC,0.00,VWS V14.01,2013-11-14 15:25:00,
2013-11-14 09:26:00,40.3,19.6,29.91,WSW,243,11.3,15.7,43,0.00,,SKC,0.00,VWS V14.01,2013-11-14 15:26:00,
2013-11-14 09:27:00,40.6,19.9,29.91,SSE,157,14.5,14.5,43,0.00,,SKC,0.00,VWS V14.01,2013-11-14 15:27:00,
2013-11-14 09:28:00,40.6,19.9,29.91,SSW,197,9.7,14.5,43,0.00,,SKC,0.00,VWS V14.01,2013-11-14 15:28:00,
2013-11-14 09:29:00,40.6,19.9,29.91,West,260,12.9,14.5,43,0.00,,SKC,0.00,VWS V14.01,2013-11-14 15:29:00,
2013-11-14 09:30:00,40.3,19.6,29.91,WSW,245,9.7,14.5,43,0.00,,SKC,0.00,VWS V14.01,2013-11-14 15:30:00,
2013-11-14 09:31:00,40.3,19.6,29.91,WSW,255,7.2,9.7,43,0.00,,SKC,0.00,VWS V14.01,2013-11-14 15:31:00,
2013-11-14 09:32:00,40.3,19.6,29.91,WSW,238,6.4,10.5,43,0.00,,SKC,0.00,VWS V14.01,2013-11-14 15:32:00,
2013-11-14 09:33:00,40.3,19.6,29.91,WSW,239,4.8,7.2,43,0.00,,SKC,0.00,VWS V14.01,2013-11-14 15:33:00,
2013-11-14 09:34:00,40.1,19.4,29.91,SW,219,9.7,11.3,43,0.00,,SKC,0.00,VWS V14.01,2013-11-14 15:34:00,
2013-11-14 09:35:00,40.1,19.4,29.91,West,265,10.5,12.1,43,0.00,,SKC,0.00,VWS V14.01,2013-11-14 15:35:00,
2013-11-14 09:36:00,40.5,20.3,29.91,SSW,210,9.7,11.3,44,0.00,,SKC,0.00,VWS V14.01,2013-11-14 15:36:00,
2013-11-14 09:37:00,40.6,19.9,29.91,SSW,206,10.5,15.7,43,0.00,,SKC,0.00,VWS V14.01,2013-11-14 15:37:00,
2013-11-14 09:38:00,40.6,19.9,29.91,WSW,252,11.3,13.7,43,0.00,,SKC,0.00,VWS V14.01,2013-11-14 15:38:00,
2013-11-14 09:39:00,40.6,19.9,29.91,WSW,239,8.1,11.3,43,0.00,,SKC,0.00,VWS V14.01,2013-11-14 15:39:00,
2013-11-14 09:40:00,40.8,20.1,29.91,WSW,241,8.9,10.5,43,0.00,,SKC,0.00,VWS V14.01,2013-11-14 15:40:00,
2013-11-14 09:41:00,40.8,20.1,29.91,SW,231,7.2,9.7,43,0.00,,SKC,0.00,VWS V14.01,2013-11-14 15:41:00,
2013-11-14 09:42:00,40.8,20.1,29.91,WSW,239,7.2,14.5,43,0.00,,SKC,0.00,VWS V14.01,2013-11-14 15:42:00,
2013-11-14 09:43:00,40.6,19.9,29.91,SW,233,11.3,11.3,43,0.00,,SKC,0.00,VWS V14.01,2013-11-14 15:43:00,
2013-11-14 09:44:00,40.5,19.7,29.91,West,265,10.5,18.9,43,0.00,,SKC,0.00,VWS V14.01,2013-11-14 15:44:00,
2013-11-14 09:45:00,40.5,19.7,29.91,SW,218,11.3,14.9,43,0.00,,SKC,0.00,VWS V14.01,2013-11-14 15:45:00,
2013-11-14 09:46:00,40.6,20.5,29.91,WSW,250,9.7,13.7,44,0.00,,SKC,0.00,VWS V14.01,2013-11-14 15:46:00,
2013-11-14 09:47:00,40.8,20.1,29.91,SSW,209,10.5,15.7,43,0.00,,SKC,0.00,VWS V14.01,2013-11-14 15:47:00,
2013-11-14 09:48:00,40.6,19.9,29.91,SSW,203,14.5,14.5,43,0.00,,SKC,0.00,VWS V14.01,2013-11-14 15:48:00,
2013-11-14 09:49:00,40.8,20.1,29.91,West,280,11.3,14.5,43,0.00,,SKC,0.00,VWS V14.01,2013-11-14 15:49:00,
2013-11-14 09:50:00,40.8,20.1,29.91,WSW,241,10.5,11.3,43,0.00,,SKC,0.00,VWS V14.01,2013-11-14 15:50:00,
2013-11-14 09:51:00,40.6,19.9,29.91,South,175,13.7,14.9,43,0.00,,SKC,0.00,VWS V14.01,2013-11-14 15:51:00,
2013-11-14 09:52:00,40.6,19.9,29.91,WSW,240,8.9,18.9,43,0.00,,SKC,0.00,VWS V14.01,2013-11-14 15:52:00,
2013-11-14 09:53:00,40.6,19.9,29.91,SW,232,15.7,18.1,43,0.00,,SKC,0.00,VWS V14.01,2013-11-14 15:53:00,
2013-11-14 09:54:00,40.6,19.9,29.91,South,190,9.7,15.7,43,0.00,,SKC,0.00,VWS V14.01,2013-11-14 15:54:00,
2013-11-14 09:55:00,40.6,19.9,29.91,West,262,8.9,11.3,43,0.00,,SKC,0.00,VWS V14.01,2013-11-14 15:55:00,
2013-11-14 09:56:00,40.6,19.9,29.91,West,276,10.5,10.5,43,0.00,,SKC,0.00,VWS V14.01,2013-11-14 15:56:00,
2013-11-14 09:57:00,40.5,19.7,29.91,WSW,238,13.7,13.7,43,0.00,,SKC,0.00,VWS V14.01,2013-11-14 15:57:00,
2013-11-14 09:58:00,40.6,19.9,29.91,SW,228,9.7,13.7,43,0.00,,SKC,0.00,VWS V14.01,2013-11-14 15:58:00,
2013-11-14 09:59:00,40.6,19.9,29.91,WSW,246,10.5,10.5,43,0.00,,SKC,0.00,VWS V14.01,2013-11-14 15:59:00,
2013-11-14 10:04:00,41.0,20.2,29.91,SSW,196,6.4,13.7,43,0.00,,SKC,0.00,VWS V14.01,2013-11-14 16:04:00,
2013-11-14 10:05:00,41.2,20.4,29.91,SW,219,9.7,13.7,43,0.00,,SKC,0.00,VWS V14.01,2013-11-14 16:05:00,
2013-11-14 10:06:00,41.2,20.4,29.91,WSW,251,8.9,9.7,43,0.00,,SKC,0.00,VWS V14.01,2013-11-14 16:06:00,
2013-11-14 10:07:00,41.2,20.4,29.91,WSW,258,9.7,11.3,43,0.00,,SKC,0.00,VWS V14.01,2013-11-14 16:07:00,
2013-11-14 10:08:00,41.2,20.4,29.91,West,274,6.4,11.3,43,0.00,,SKC,0.00,VWS V14.01,2013-11-14 16:08:00,
2013-11-14 10:09:00,41.2,20.4,29.91,WSW,253,6.4,9.7,43,0.00,,SKC,0.00,VWS V14.01,2013-11-14 16:09:00,
2013-11-14 10:10:00,41.4,20.6,29.91,West,260,5.6,7.2,43,0.00,,SKC,0.00,VWS V14.01,2013-11-14 16:10:00,
2013-11-14 10:11:00,41.5,20.7,29.91,WSW,239,9.7,9.7,43,0.00,,SKC,0.00,VWS V14.01,2013-11-14 16:11:00,
2013-11-14 10:12:00,41.5,20.7,29.91,WSW,245,9.7,10.5,43,0.00,,SKC,0.00,VWS V14.01,2013-11-14 16:12:00,
2013-11-14 10:13:00,41.7,20.9,29.91,SW,235,8.9,9.7,43,0.00,,SKC,0.00,VWS V14.01,2013-11-14 16:13:00,
2013-11-14 10:14:00,42.1,21.2,29.91,SW,217,7.2,14.5,43,0.00,,SKC,0.00,VWS V14.01,2013-11-14 16:14:00,
2013-11-14 10:15:00,42.3,21.4,29.91,WSW,248,7.2,11.3,43,0.00,,SKC,0.00,VWS V14.01,2013-11-14 16:15:00,
2013-11-14 10:16:00,42.4,21.5,29.91,SSW,209,10.5,10.5,43,0.00,,SKC,0.00,VWS V14.01,2013-11-14 16:16:00,
2013-11-14 10:17:00,42.8,21.9,29.91,WSW,238,10.5,10.5,43,0.00,,SKC,0.00,VWS V14.01,2013-11-14 16:17:00,
2013-11-14 10:18:00,42.8,21.3,29.91,WSW,237,11.3,11.3,42,0.00,,SKC,0.00,VWS V14.01,2013-11-14 16:18:00,
2013-11-14 10:19:00,43.2,21.6,29.91,South,174,7.2,14.5,42,0.00,,SKC,0.00,VWS V14.01,2013-11-14 16:19:00,
2013-11-14 10:20:00,43.7,22.7,29.91,SSW,208,14.5,14.5,43,0.00,,SKC,0.00,VWS V14.01,2013-11-14 16:20:00,
2013-11-14 10:21:00,43.7,22.1,29.91,WSW,245,13.7,14.5,42,0.00,,SKC,0.00,VWS V14.01,2013-11-14 16:21:00,
2013-11-14 10:22:00,43.7,22.1,29.91,WSW,254,9.7,13.7,42,0.00,,SKC,0.00,VWS V14.01,2013-11-14 16:22:00,
2013-11-14 10:23:00,43.0,20.9,29.91,West,272,11.3,12.1,41,0.00,,SKC,0.00,VWS V14.01,2013-11-14 16:23:00,
2013-11-14 10:24:00,43.0,20.9,29.91,West,262,5.6,12.9,41,0.00,,SKC,0.00,VWS V14.01,2013-11-14 16:24:00,
2013-11-14 10:25:00,43.2,21.6,29.91,SSW,204,6.4,6.4,42,0.00,,SKC,0.00,VWS V14.01,2013-11-14 16:25:00,
2013-11-14 10:26:00,43.3,21.8,29.91,SW,231,10.5,10.5,42,0.00,,SKC,0.00,VWS V14.01,2013-11-14 16:26:00,
2013-11-14 10:27:00,43.5,22.0,29.91,SSW,196,8.9,10.5,42,0.00,,SKC,0.00,VWS V14.01,2013-11-14 16:27:00,
2013-11-14 10:28:00,43.5,22.0,29.91,SW,231,10.5,10.5,42,0.00,,SKC,0.00,VWS V14.01,2013-11-14 16:28:00,
2013-11-14 10:29:00,43.7,22.1,29.91,SW,234,7.2,10.5,42,0.00,,SKC,0.00,VWS V14.01,2013-11-14 16:29:00,
2013-11-14 10:30:00,44.1,22.5,29.91,SW,215,14.5,15.7,42,0.00,,SKC,0.00,VWS V14.01,2013-11-14 16:30:00,
2013-11-14 10:31:00,44.1,22.5,29.91,WSW,246,15.7,15.7,42,0.00,,SKC,0.00,VWS V14.01,2013-11-14 16:31:00,
2013-11-14 10:32:00,44.1,22.5,29.91,SSW,204,5.6,15.7,42,0.00,,SKC,0.00,VWS V14.01,2013-11-14 16:32:00,
2013-11-14 10:33:00,44.2,22.6,29.91,SSW,203,9.7,9.7,42,0.00,,SKC,0.00,VWS V14.01,2013-11-14 16:33:00,
2013-11-14 10:34:00,44.1,22.5,29.91,SSW,199,10.5,13.7,42,0.00,,SKC,0.00,VWS V14.01,2013-11-14 16:34:00,
2013-11-14 10:35:00,44.2,22.6,29.91,SSW,199,9.7,10.5,42,0.00,,SKC,0.00,VWS V14.01,2013-11-14 16:35:00,
2013-11-14 10:36:00,43.7,21.6,29.91,SSW,206,6.4,9.7,41,0.00,,SKC,0.00,VWS V14.01,2013-11-14 16:36:00,
2013-11-14 10:37:00,43.3,21.2,29.91,West,263,8.1,10.5,41,0.00,,SKC,0.00,VWS V14.01,2013-11-14 16:37:00,
2013-11-14 10:38:00,43.3,21.8,29.91,West,270,6.4,9.7,42,0.00,,SKC,0.00,VWS V14.01,2013-11-14 16:38:00,
2013-11-14 10:39:00,43.3,21.8,29.91,WSW,239,6.4,6.4,42,0.00,,SKC,0.00,VWS V14.01,2013-11-14 16:39:00,
2013-11-14 10:40:00,43.3,21.8,29.91,WSW,248,9.7,9.7,42,0.00,,SKC,0.00,VWS V14.01,2013-11-14 16:40:00,
2013-11-14 10:41:00,43.2,21.6,29.91,WSW,243,6.4,9.7,42,0.00,,SKC,0.00,VWS V14.01,2013-11-14 16:41:00,
2013-11-14 10:42:00,43.3,21.8,29.91,SSW,213,7.2,10.5,42,0.00,,SKC,0.00,VWS V14.01,2013-11-14 16:42:00,
2013-11-14 10:43:00,43.5,22.0,29.91,SW,223,11.3,13.7,42,0.00,,SKC,0.00,VWS V14.01,2013-11-14 16:43:00,
2013-11-14 10:44:00,43.3,21.8,29.91,SSW,192,8.9,11.3,42,0.00,,SKC,0.00,VWS V14.01,2013-11-14 16:44:00,
2013-11-14 10:45:00,43.7,22.1,29.91,SSW,204,8.9,9.7,42,0.00,,SKC,0.00,VWS V14.01,2013-11-14 16:45:00,
2013-11-14 10:46:00,43.9,22.3,29.91,SSW,212,5.6,8.9,42,0.00,,SKC,0.00,VWS V14.01,2013-11-14 16:46:00,
2013-11-14 10:47:00,44.2,22.6,29.91,SSW,211,5.6,8.1,42,0.00,,SKC,0.00,VWS V14.01,2013-11-14 16:47:00,
2013-11-14 10:49:00,44.4,22.8,29.91,WSW,252,5.6,8.9,42,0.00,,SKC,0.00,VWS V14.01,2013-11-14 16:49:00,
2013-11-14 10:51:00,44.6,22.9,29.91,SW,221,5.6,5.6,42,0.00,,SKC,0.00,VWS V14.01,2013-11-14 16:51:00,
2013-11-14 10:52:00,45.0,23.3,29.91,SSW,213,6.4,8.9,42,0.00,,SKC,0.00,VWS V14.01,2013-11-14 16:52:00,
2013-11-14 10:53:00,45.1,22.9,29.91,WSW,247,12.1,12.1,41,0.00,,SKC,0.00,VWS V14.01,2013-11-14 16:53:00,
2013-11-14 10:54:00,45.3,23.0,29.91,WSW,239,10.5,12.1,41,0.00,,SKC,0.00,VWS V14.01,2013-11-14 16:54:00,
2013-11-14 10:55:00,45.1,22.9,29.91,SW,214,7.2,10.5,41,0.00,,SKC,0.00,VWS V14.01,2013-11-14 16:55:00,
2013-11-14 10:56:00,45.5,23.2,29.91,SSW,207,10.5,12.1,41,0.00,,SKC,0.00,VWS V14.01,2013-11-14 16:56:00,
2013-11-14 10:57:00,45.7,23.4,29.91,SSE,166,6.4,10.5,41,0.00,,SKC,0.00,VWS V14.01,2013-11-14 16:57:00,
2013-11-14 10:58:00,45.9,23.5,29.91,SW,217,7.2,8.9,41,0.00,,SKC,0.00,VWS V14.01,2013-11-14 16:58:00,
2013-11-14 10:59:00,46.2,23.8,29.91,SW,220,4.0,7.2,41,0.00,,SKC,0.00,VWS V14.01,2013-11-14 16:59:00,
2013-11-14 11:00:00,46.2,23.8,29.91,SSW,211,7.2,7.2,41,0.00,,SKC,0.00,VWS V14.01,2013-11-14 17:00:00,
2013-11-14 11:04:00,46.4,23.4,29.91,SW,222,6.4,18.1,40,0.00,,SKC,0.00,VWS V14.01,2013-11-14 17:04:00,
2013-11-14 11:05:00,46.4,23.4,29.91,SW,216,7.2,7.2,40,0.00,,SKC,0.00,VWS V14.01,2013-11-14 17:05:00,
2013-11-14 11:06:00,44.2,22.6,29.91,WSW,246,5.6,6.4,42,0.00,,SKC,0.00,VWS V14.01,2013-11-14 17:06:00,
2013-11-14 11:07:00,46.6,23.6,29.91,SSW,209,7.2,10.5,40,0.00,,SKC,0.00,VWS V14.01,2013-11-14 17:07:00,
2013-11-14 11:08:00,46.8,23.7,29.91,WSW,245,8.1,8.9,40,0.00,,SKC,0.00,VWS V14.01,2013-11-14 17:08:00,
2013-11-14 11:09:00,46.2,23.2,29.91,WSW,246,11.3,11.3,40,0.00,,SKC,0.00,VWS V14.01,2013-11-14 17:09:00,
2013-11-14 11:10:00,46.4,23.4,29.91,SW,235,8.1,11.3,40,0.00,,SKC,0.00,VWS V14.01,2013-11-14 17:10:00,
2013-11-14 11:11:00,46.6,23.6,29.91,SW,214,4.8,8.1,40,0.00,,SKC,0.00,VWS V14.01,2013-11-14 17:11:00,
2013-11-14 11:12:00,46.9,23.9,29.88,South,178,6.4,10.5,40,0.00,,SKC,0.00,VWS V14.01,2013-11-14 17:12:00,
2013-11-14 11:13:00,47.1,24.1,29.88,SSE,163,11.3,14.5,40,0.00,,SKC,0.00,VWS V14.01,2013-11-14 17:13:00,
2013-11-14 11:14:00,47.3,24.2,29.88,SW,224,6.4,13.7,40,0.00,,SKC,0.00,VWS V14.01,2013-11-14 17:14:00,
2013-11-14 11:15:00,47.5,24.4,29.88,South,171,5.6,9.7,40,0.00,,SKC,0.00,VWS V14.01,2013-11-14 17:15:00,
2013-11-14 11:16:00,47.7,24.5,29.88,South,190,9.7,9.7,40,0.00,,SKC,0.00,VWS V14.01,2013-11-14 17:16:00,
2013-11-14 11:17:00,47.8,24.7,29.88,South,173,7.2,9.7,40,0.00,,SKC,0.00,VWS V14.01,2013-11-14 17:17:00,
2013-11-14 11:18:00,48.0,24.9,29.88,SW,233,4.8,7.2,40,0.00,,SKC,0.00,VWS V14.01,2013-11-14 17:18:00,
2013-11-14 11:19:00,48.2,24.4,29.88,SW,214,10.5,10.5,39,0.00,,SKC,0.00,VWS V14.01,2013-11-14 17:19:00,
2013-11-14 11:20:00,48.2,24.4,29.88,South,191,9.7,11.3,39,0.00,,SKC,0.00,VWS V14.01,2013-11-14 17:20:00,
2013-11-14 11:21:00,48.2,24.4,29.88,South,173,9.7,11.3,39,0.00,,SKC,0.00,VWS V14.01,2013-11-14 17:21:00,
2013-11-14 11:22:00,48.4,24.6,29.88,SSE,161,5.6,11.3,39,0.00,,SKC,0.00,VWS V14.01,2013-11-14 17:22:00,
2013-11-14 11:23:00,48.2,24.4,29.88,SW,231,10.5,10.5,39,0.00,,SKC,0.00,VWS V14.01,2013-11-14 17:23:00,
2013-11-14 11:24:00,47.7,23.9,29.88,SSW,212,11.3,11.3,39,0.00,,SKC,0.00,VWS V14.01,2013-11-14 17:24:00,
2013-11-14 11:25:00,46.9,23.3,29.88,WNW,285,11.3,13.7,39,0.00,,SKC,0.00,VWS V14.01,2013-11-14 17:25:00,
2013-11-14 11:26:00,47.1,23.5,29.88,SSW,195,6.4,11.3,39,0.00,,SKC,0.00,VWS V14.01,2013-11-14 17:26:00,
2013-11-14 11:27:00,47.3,24.2,29.88,SW,234,9.7,9.7,40,0.00,,SKC,0.00,VWS V14.01,2013-11-14 17:27:00,
2013-11-14 11:28:00,46.9,23.9,29.88,West,271,6.4,9.7,40,0.00,,SKC,0.00,VWS V14.01,2013-11-14 17:28:00,
2013-11-14 11:29:00,47.3,24.2,29.88,SW,216,13.7,13.7,40,0.00,,SKC,0.00,VWS V14.01,2013-11-14 17:29:00,
2013-11-14 11:30:00,47.5,24.4,29.88,SSW,205,5.6,13.7,40,0.00,,SKC,0.00,VWS V14.01,2013-11-14 17:30:00,
2013-11-14 11:31:00,47.3,24.2,29.88,SW,221,7.2,7.2,40,0.00,,SKC,0.00,VWS V14.01,2013-11-14 17:31:00,
2013-11-14 11:32:00,47.3,24.2,29.88,South,180,4.8,10.5,40,0.00,,SKC,0.00,VWS V14.01,2013-11-14 17:32:00,
2013-11-14 11:33:00,47.7,24.5,29.88,SW,217,5.6,6.4,40,0.00,,SKC,0.00,VWS V14.01,2013-11-14 17:33:00,
2013-11-14 11:34:00,47.3,23.6,29.88,SW,229,7.2,7.2,39,0.00,,SKC,0.00,VWS V14.01,2013-11-14 17:34:00,
2013-11-14 11:35:00,47.5,24.4,29.88,SSW,198,10.5,10.5,40,0.00,,SKC,0.00,VWS V14.01,2013-11-14 17:35:00,
2013-11-14 11:36:00,47.5,24.4,29.88,SW,216,6.4,10.5,40,0.00,,SKC,0.00,VWS V14.01,2013-11-14 17:36:00,
2013-11-14 11:37:00,46.9,23.3,29.88,WSW,257,8.9,11.3,39,0.00,,SKC,0.00,VWS V14.01,2013-11-14 17:37:00,
2013-11-14 11:38:00,47.3,24.2,29.88,WSW,249,6.4,10.5,40,0.00,,SKC,0.00,VWS V14.01,2013-11-14 17:38:00,
2013-11-14 11:39:00,47.1,24.1,29.88,SW,226,5.6,9.7,40,0.00,,SKC,0.00,VWS V14.01,2013-11-14 17:39:00,
2013-11-14 11:40:00,47.3,24.2,29.88,SSW,200,7.2,9.7,40,0.00,,SKC,0.00,VWS V14.01,2013-11-14 17:40:00,
2013-11-14 11:41:00,47.1,24.1,29.88,SW,235,9.7,11.3,40,0.00,,SKC,0.00,VWS V14.01,2013-11-14 17:41:00,
2013-11-14 11:42:00,46.8,23.7,29.88,SW,233,9.7,10.5,40,0.00,,SKC,0.00,VWS V14.01,2013-11-14 17:42:00,
2013-11-14 11:43:00,46.6,23.6,29.88,SSW,208,0.0,11.3,40,0.00,,SKC,0.00,VWS V14.01,2013-11-14 17:43:00,
2013-11-14 11:44:00,46.9,23.9,29.88,SW,227,7.2,8.9,40,0.00,,SKC,0.00,VWS V14.01,2013-11-14 17:44:00,
2013-11-14 11:45:00,46.8,23.7,29.88,WNW,286,6.4,7.2,40,0.00,,SKC,0.00,VWS V14.01,2013-11-14 17:45:00,
2013-11-14 11:46:00,46.6,23.6,29.88,West,267,6.4,6.4,40,0.00,,SKC,0.00,VWS V14.01,2013-11-14 17:46:00,
2013-11-14 11:47:00,46.8,23.7,29.88,WSW,242,8.9,10.5,40,0.00,,SKC,0.00,VWS V14.01,2013-11-14 17:47:00,
2013-11-14 11:48:00,46.8,23.7,29.88,SW,236,6.4,8.9,40,0.00,,SKC,0.00,VWS V14.01,2013-11-14 17:48:00,
2013-11-14 11:49:00,46.4,23.4,29.88,WSW,258,7.2,9.7,40,0.00,,SKC,0.00,VWS V14.01,2013-11-14 17:49:00,
2013-11-14 11:50:00,46.8,24.3,29.88,SSW,208,11.3,11.3,41,0.00,,SKC,0.00,VWS V14.01,2013-11-14 17:50:00,
2013-11-14 11:52:00,46.8,24.3,29.88,South,182,5.6,11.3,41,0.00,,SKC,0.00,VWS V14.01,2013-11-14 17:52:00,
2013-11-14 11:53:00,46.9,24.5,29.88,South,184,5.6,6.4,41,0.00,,SKC,0.00,VWS V14.01,2013-11-14 17:53:00,
2013-11-14 11:54:00,47.1,24.6,29.88,SW,234,14.9,14.9,41,0.00,,SKC,0.00,VWS V14.01,2013-11-14 17:54:00,
2013-11-14 11:55:00,47.3,24.8,29.88,SSW,213,8.9,14.9,41,0.00,,SKC,0.00,VWS V14.01,2013-11-14 17:55:00,
2013-11-14 11:56:00,47.3,24.8,29.88,WSW,247,11.3,11.3,41,0.00,,SKC,0.00,VWS V14.01,2013-11-14 17:56:00,
2013-11-14 11:57:00,47.3,24.8,29.88,WSW,237,0.0,11.3,41,0.00,,SKC,0.00,VWS V14.01,2013-11-14 17:57:00,
2013-11-14 11:58:00,47.5,24.4,29.88,WSW,240,6.4,6.4,40,0.00,,SKC,0.00,VWS V14.01,2013-11-14 17:58:00,
2013-11-14 11:59:00,47.7,24.5,29.88,SW,232,7.2,7.2,40,0.00,,SKC,0.00,VWS V14.01,2013-11-14 17:59:00,
2013-11-14 12:00:00,47.8,25.3,29.88,SW,226,5.6,15.7,41,0.00,,SKC,0.00,VWS V14.01,2013-11-14 18:00:00,
2013-11-14 12:05:00,48.0,24.9,29.88,SW,215,10.5,15.7,40,0.00,,SKC,0.00,VWS V14.01,2013-11-14 18:05:00,
2013-11-14 12:06:00,48.0,24.9,29.88,West,267,5.6,10.5,40,0.00,,SKC,0.00,VWS V14.01,2013-11-14 18:06:00,
2013-11-14 12:07:00,48.0,24.9,29.88,WSW,243,5.6,5.6,40,0.00,,SKC,0.00,VWS V14.01,2013-11-14 18:07:00,
2013-11-14 12:08:00,47.8,24.7,29.88,SW,220,6.4,9.7,40,0.00,,SKC,0.00,VWS V14.01,2013-11-14 18:08:00,
2013-11-14 12:09:00,47.8,24.7,29.88,SSW,206,9.7,9.7,40,0.00,,SKC,0.00,VWS V14.01,2013-11-14 18:09:00,
2013-11-14 12:10:00,47.8,24.7,29.88,SSW,203,13.7,13.7,40,0.00,,SKC,0.00,VWS V14.01,2013-11-14 18:10:00,
2013-11-14 12:11:00,47.8,24.7,29.88,WSW,252,8.9,13.7,40,0.00,,SKC,0.00,VWS V14.01,2013-11-14 18:11:00,
2013-11-14 12:12:00,47.8,24.7,29.88,SSW,210,7.2,8.9,40,0.00,,SKC,0.00,VWS V14.01,2013-11-14 18:12:00,
2013-11-14 12:13:00,47.8,24.7,29.88,SSW,213,11.3,11.3,40,0.00,,SKC,0.00,VWS V14.01,2013-11-14 18:13:00,
2013-11-14 12:14:00,48.0,24.9,29.88,South,183,9.7,11.3,40,0.00,,SKC,0.00,VWS V14.01,2013-11-14 18:14:00,
2013-11-14 12:15:00,47.8,24.7,29.88,SW,227,7.2,9.7,40,0.00,,SKC,0.00,VWS V14.01,2013-11-14 18:15:00,
2013-11-14 12:16:00,47.5,24.4,29.88,WSW,257,9.7,9.7,40,0.00,,SKC,0.00,VWS V14.01,2013-11-14 18:16:00,
2013-11-14 12:17:00,47.7,24.5,29.88,SSW,200,4.8,9.7,40,0.00,,SKC,0.00,VWS V14.01,2013-11-14 18:17:00,
2013-11-14 12:18:00,47.7,24.5,29.88,WSW,244,4.8,7.2,40,0.00,,SKC,0.00,VWS V14.01,2013-11-14 18:18:00,
2013-11-14 12:19:00,47.7,24.5,29.88,WSW,246,5.6,6.4,40,0.00,,SKC,0.00,VWS V14.01,2013-11-14 18:19:00,
2013-11-14 12:20:00,47.7,24.5,29.88,WSW,241,7.2,7.2,40,0.00,,SKC,0.00,VWS V14.01,2013-11-14 18:20:00,
2013-11-14 12:21:00,47.7,24.5,29.88,WSW,256,7.2,7.2,40,0.00,,SKC,0.00,VWS V14.01,2013-11-14 18:21:00,
2013-11-14 12:22:00,47.3,24.2,29.88,SW,219,4.8,7.2,40,0.00,,SKC,0.00,VWS V14.01,2013-11-14 18:22:00,
2013-11-14 12:23:00,47.7,24.5,29.88,SSW,203,6.4,6.4,40,0.00,,SKC,0.00,VWS V14.01,2013-11-14 18:23:00,
2013-11-14 12:24:00,47.7,24.5,29.88,SW,225,4.8,6.4,40,0.00,,SKC,0.00,VWS V14.01,2013-11-14 18:24:00,
2013-11-14 12:25:00,47.7,24.5,29.88,SSW,205,4.8,4.8,40,0.00,,SKC,0.00,VWS V14.01,2013-11-14 18:25:00,
2013-11-14 12:26:00,47.7,25.1,29.88,SSW,207,11.3,11.3,41,0.00,,SKC,0.00,VWS V14.01,2013-11-14 18:26:00,
2013-11-14 12:27:00,47.7,25.1,29.88,SW,217,6.4,11.3,41,0.00,,SKC,0.00,VWS V14.01,2013-11-14 18:27:00,
2013-11-14 12:28:00,47.8,24.7,29.88,SSW,208,11.3,14.5,40,0.00,,SKC,0.00,VWS V14.01,2013-11-14 18:28:00,
2013-11-14 12:29:00,47.8,25.3,29.88,SW,231,5.6,11.3,41,0.00,,SKC,0.00,VWS V14.01,2013-11-14 18:29:00,
2013-11-14 12:30:00,47.7,25.1,29.88,SW,214,5.6,8.9,41,0.00,,SKC,0.00,VWS V14.01,2013-11-14 18:30:00,
2013-11-14 12:31:00,47.7,25.1,29.88,SW,215,6.4,9.7,41,0.00,,SKC,0.00,VWS V14.01,2013-11-14 18:31:00,
2013-11-14 12:32:00,47.7,24.5,29.88,South,173,5.6,6.4,40,0.00,,SKC,0.00,VWS V14.01,2013-11-14 18:32:00,
2013-11-14 12:33:00,47.5,25.0,29.88,SW,214,6.4,8.9,41,0.00,,SKC,0.00,VWS V14.01,2013-11-14 18:33:00,
2013-11-14 12:34:00,47.5,25.0,29.88,SW,222,10.5,10.5,41,0.00,,SKC,0.00,VWS V14.01,2013-11-14 18:34:00,
2013-11-14 12:35:00,47.5,25.0,29.88,SSW,204,11.3,12.1,41,0.00,,SKC,0.00,VWS V14.01,2013-11-14 18:35:00,
2013-11-14 12:36:00,47.3,24.8,29.88,SSW,210,7.2,11.3,41,0.00,,SKC,0.00,VWS V14.01,2013-11-14 18:36:00,
2013-11-14 12:37:00,46.9,23.9,29.88,SW,222,5.6,11.3,40,0.00,,SKC,0.00,VWS V14.01,2013-11-14 18:37:00,
2013-11-14 12:38:00,47.1,24.6,29.88,SSW,200,4.8,8.9,41,0.00,,SKC,0.00,VWS V14.01,2013-11-14 18:38:00,
2013-11-14 12:39:00,47.1,24.6,29.88,SW,233,7.2,10.5,41,0.00,,SKC,0.00,VWS V14.01,2013-11-14 18:39:00,
2013-11-14 12:40:00,46.9,24.5,29.88,SSW,200,9.7,9.7,41,0.00,,SKC,0.00,VWS V14.01,2013-11-14 18:40:00,
2013-11-14 12:41:00,46.8,24.3,29.88,SW,218,5.6,9.7,41,0.00,,SKC,0.00,VWS V14.01,2013-11-14 18:41:00,
2013-11-14 12:42:00,46.9,24.5,29.88,SSW,213,6.4,6.4,41,0.00,,SKC,0.00,VWS V14.01,2013-11-14 18:42:00,
2013-11-14 12:43:00,46.9,24.5,29.88,SW,221,6.4,6.4,41,0.00,,SKC,0.00,VWS V14.01,2013-11-14 18:43:00,
2013-11-14 12:44:00,46.9,24.5,29.88,SSW,200,4.0,8.1,41,0.00,,SKC,0.00,VWS V14.01,2013-11-14 18:44:00,
2013-11-14 12:45:00,46.8,24.3,29.88,SSW,202,0.0,4.0,41,0.00,,SKC,0.00,VWS V14.01,2013-11-14 18:45:00,
2013-11-14 12:46:00,46.8,24.3,29.88,SW,224,0.0,0.0,41,0.00,,SKC,0.00,VWS V14.01,2013-11-14 18:46:00,
2013-11-14 12:47:00,46.8,24.3,29.88,SW,224,0.0,0.0,41,0.00,,SKC,0.00,VWS V14.01,2013-11-14 18:47:00,
2013-11-14 12:48:00,46.9,24.5,29.88,SW,225,6.4,6.4,41,0.00,,SKC,0.00,VWS V14.01,2013-11-14 18:48:00,
2013-11-14 12:49:00,46.9,25.1,29.88,SW,225,0.0,6.4,42,0.00,,SKC,0.00,VWS V14.01,2013-11-14 18:49:00,
2013-11-14 12:50:00,46.9,25.1,29.88,SW,224,0.0,4.0,42,0.00,,SKC,0.00,VWS V14.01,2013-11-14 18:50:00,
2013-11-14 12:51:00,46.9,25.1,29.88,SW,224,0.0,0.0,42,0.00,,SKC,0.00,VWS V14.01,2013-11-14 18:51:00,
2013-11-14 12:52:00,46.9,25.1,29.88,South,178,0.0,7.2,42,0.00,,SKC,0.00,VWS V14.01,2013-11-14 18:52:00,
2013-11-14 12:54:00,46.9,25.1,29.88,South,170,7.2,7.2,42,0.00,,SKC,0.00,VWS V14.01,2013-11-14 18:54:00,
2013-11-14 12:55:00,46.9,25.1,29.88,South,170,0.0,7.2,42,0.00,,SKC,0.00,VWS V14.01,2013-11-14 18:55:00,
2013-11-14 12:56:00,47.1,25.2,29.88,South,173,0.0,4.8,42,0.00,,SKC,0.00,VWS V14.01,2013-11-14 18:56:00,
2013-11-14 12:57:00,47.1,25.2,29.85,SSE,158,4.0,6.4,42,0.00,,SKC,0.00,VWS V14.01,2013-11-14 18:57:00,
2013-11-14 12:58:00,47.1,25.2,29.85,South,182,4.8,4.8,42,0.00,,SKC,0.00,VWS V14.01,2013-11-14 18:58:00,
2013-11-14 12:59:00,47.1,25.2,29.85,South,182,0.0,4.8,42,0.00,,SKC,0.00,VWS V14.01,2013-11-14 18:59:00,
2013-11-14 13:04:00,47.1,25.2,29.85,SSW,194,5.6,9.7,42,0.00,,SKC,0.00,VWS V14.01,2013-11-14 19:04:00,
2013-11-14 13:05:00,47.1,25.2,29.85,SSW,194,0.0,5.6,42,0.00,,SKC,0.00,VWS V14.01,2013-11-14 19:05:00,
2013-11-14 13:06:00,47.1,25.2,29.85,SW,229,4.8,4.8,42,0.00,,SKC,0.00,VWS V14.01,2013-11-14 19:06:00,
2013-11-14 13:07:00,47.1,25.2,29.85,SW,229,0.0,4.8,42,0.00,,SKC,0.00,VWS V14.01,2013-11-14 19:07:00,
2013-11-14 13:08:00,47.1,25.2,29.85,SW,227,0.0,0.0,42,0.00,,SKC,0.00,VWS V14.01,2013-11-14 19:08:00,
2013-11-14 13:09:00,47.1,25.2,29.85,SW,225,4.8,4.8,42,0.00,,SKC,0.00,VWS V14.01,2013-11-14 19:09:00,
2013-11-14 13:10:00,47.3,26.0,29.85,SW,225,0.0,4.8,43,0.00,,SKC,0.00,VWS V14.01,2013-11-14 19:10:00,
2013-11-14 13:11:00,47.3,26.0,29.85,SW,225,0.0,0.0,43,0.00,,SKC,0.00,VWS V14.01,2013-11-14 19:11:00,
2013-11-14 13:12:00,47.5,26.1,29.85,SW,225,0.0,0.0,43,0.00,,SKC,0.00,VWS V14.01,2013-11-14 19:12:00,
2013-11-14 13:13:00,47.5,26.1,29.85,SW,225,0.0,0.0,43,0.00,,SKC,0.00,VWS V14.01,2013-11-14 19:13:00,
2013-11-14 13:14:00,47.7,26.3,29.85,South,184,4.0,4.8,43,0.00,,SKC,0.00,VWS V14.01,2013-11-14 19:14:00,
2013-11-14 13:15:00,47.7,26.3,29.85,SW,219,6.4,6.4,43,0.00,,SKC,0.00,VWS V14.01,2013-11-14 19:15:00,
2013-11-14 13:16:00,47.7,25.7,29.85,SSW,195,8.9,8.9,42,0.00,,SKC,0.00,VWS V14.01,2013-11-14 19:16:00,
2013-11-14 13:17:00,47.7,25.7,29.85,SSW,206,6.4,8.9,42,0.00,,SKC,0.00,VWS V14.01,2013-11-14 19:17:00,
2013-11-14 13:18:00,47.7,26.3,29.85,SSW,207,0.0,7.2,43,0.00,,SKC,0.00,VWS V14.01,2013-11-14 19:18:00,
2013-11-14 13:19:00,47.5,25.5,29.85,SW,230,0.0,5.6,42,0.00,,SKC,0.00,VWS V14.01,2013-11-14 19:19:00,
2013-11-14 13:20:00,47.5,26.1,29.85,SSW,210,10.5,10.5,43,0.00,,SKC,0.00,VWS V14.01,2013-11-14 19:20:00,
2013-11-14 13:21:00,47.7,26.3,29.85,SSW,213,4.8,10.5,43,0.00,,SKC,0.00,VWS V14.01,2013-11-14 19:21:00,
2013-11-14 13:22:00,47.7,26.3,29.85,SW,218,5.6,6.4,43,0.00,,SKC,0.00,VWS V14.01,2013-11-14 19:22:00,
2013-11-14 13:23:00,47.7,25.7,29.85,SSW,202,6.4,7.2,42,0.00,,SKC,0.00,VWS V14.01,2013-11-14 19:23:00,
2013-11-14 13:24:00,47.7,25.7,29.85,South,175,4.8,10.5,42,0.00,,SKC,0.00,VWS V14.01,2013-11-14 19:24:00,
2013-11-14 13:25:00,47.8,26.4,29.85,SSW,208,4.0,9.7,43,0.00,,SKC,0.00,VWS V14.01,2013-11-14 19:25:00,
2013-11-14 13:26:00,47.8,25.9,29.85,SSW,198,4.8,4.8,42,0.00,,SKC,0.00,VWS V14.01,2013-11-14 19:26:00,
2013-11-14 13:27:00,47.7,25.7,29.85,South,183,0.0,7.2,42,0.00,,SKC,0.00,VWS V14.01,2013-11-14 19:27:00,
2013-11-14 13:28:00,47.8,25.9,29.85,SE,129,5.6,6.4,42,0.00,,SKC,0.00,VWS V14.01,2013-11-14 19:28:00,
2013-11-14 13:29:00,47.8,26.4,29.85,SE,144,0.0,7.2,43,0.00,,SKC,0.00,VWS V14.01,2013-11-14 19:29:00,
2013-11-14 13:30:00,47.8,25.9,29.85,SE,146,4.8,4.8,42,0.00,,SKC,0.00,VWS V14.01,2013-11-14 19:30:00,
2013-11-14 13:31:00,47.8,25.9,29.85,WSW,246,6.4,8.9,42,0.00,,SKC,0.00,VWS V14.01,2013-11-14 19:31:00,
2013-11-14 13:32:00,47.8,25.9,29.85,South,188,4.8,7.2,42,0.00,,SKC,0.00,VWS V14.01,2013-11-14 19:32:00,
2013-11-14 13:33:00,47.8,25.9,29.85,SSE,164,4.8,5.6,42,0.00,,SKC,0.00,VWS V14.01,2013-11-14 19:33:00,
2013-11-14 13:34:00,47.8,25.9,29.85,South,187,9.7,9.7,42,0.00,,SKC,0.00,VWS V14.01,2013-11-14 19:34:00,
2013-11-14 13:35:00,47.8,25.9,29.85,South,188,0.0,9.7,42,0.00,,SKC,0.00,VWS V14.01,2013-11-14 19:35:00,
2013-11-14 13:36:00,47.8,25.9,29.85,South,188,0.0,0.0,42,0.00,,SKC,0.00,VWS V14.01,2013-11-14 19:36:00,
2013-11-14 13:37:00,47.8,25.9,29.85,SSW,193,5.6,5.6,42,0.00,,SKC,0.00,VWS V14.01,2013-11-14 19:37:00,
2013-11-14 13:38:00,48.0,26.0,29.85,South,184,0.0,6.4,42,0.00,,SKC,0.00,VWS V14.01,2013-11-14 19:38:00,
2013-11-14 13:39:00,48.0,26.0,29.85,SSE,168,4.0,6.4,42,0.00,,SKC,0.00,VWS V14.01,2013-11-14 19:39:00,
2013-11-14 13:40:00,48.0,26.6,29.85,SSW,198,7.2,9.7,43,0.00,,SKC,0.00,VWS V14.01,2013-11-14 19:40:00,
2013-11-14 13:41:00,48.0,26.0,29.85,SSW,197,9.7,10.5,42,0.00,,SKC,0.00,VWS V14.01,2013-11-14 19:41:00,
2013-11-14 13:42:00,48.0,26.0,29.85,SSE,150,4.0,9.7,42,0.00,,SKC,0.00,VWS V14.01,2013-11-14 19:42:00,
2013-11-14 13:43:00,48.0,26.0,29.85,SSE,163,4.0,5.6,42,0.00,,SKC,0.00,VWS V14.01,2013-11-14 19:43:00,
2013-11-14 13:44:00,48.0,26.0,29.85,SSE,166,4.0,5.6,42,0.00,,SKC,0.00,VWS V14.01,2013-11-14 19:44:00,
2013-11-14 13:45:00,48.0,26.0,29.85,SSE,154,5.6,8.9,42,0.00,,SKC,0.00,VWS V14.01,2013-11-14 19:45:00,
2013-11-14 13:46:00,48.0,26.0,29.85,SSE,164,8.9,10.5,42,0.00,,SKC,0.00,VWS V14.01,2013-11-14 19:46:00,
2013-11-14 13:47:00,48.2,26.2,29.85,SSW,193,5.6,8.9,42,0.00,,SKC,0.00,VWS V14.01,2013-11-14 19:47:00,
2013-11-14 13:48:00,48.4,26.4,29.85,South,189,0.0,5.6,42,0.00,,SKC,0.00,VWS V14.01,2013-11-14 19:48:00,
2013-11-14 13:49:00,48.4,26.4,29.85,South,171,7.2,7.2,42,0.00,,SKC,0.00,VWS V14.01,2013-11-14 19:49:00,
2013-11-14 13:50:00,48.4,26.4,29.85,South,171,4.0,7.2,42,0.00,,SKC,0.00,VWS V14.01,2013-11-14 19:50:00,
2013-11-14 13:51:00,48.4,26.4,29.85,SSW,207,10.5,14.9,42,0.00,,SKC,0.00,VWS V14.01,2013-11-14 19:51:00,
2013-11-14 13:52:00,48.6,26.0,29.85,South,177,6.4,11.3,41,0.00,,SKC,0.00,VWS V14.01,2013-11-14 19:52:00,
2013-11-14 13:53:00,48.6,26.0,29.85,South,174,6.4,13.7,41,0.00,,SKC,0.00,VWS V14.01,2013-11-14 19:53:00,
2013-11-14 13:55:00,48.6,26.5,29.85,South,174,0.0,6.4,42,0.00,,SKC,0.00,VWS V14.01,2013-11-14 19:55:00,
2013-11-14 13:56:00,48.6,26.5,29.85,SW,217,5.6,7.2,42,0.00,,SKC,0.00,VWS V14.01,2013-11-14 19:56:00,
2013-11-14 13:57:00,48.6,26.5,29.85,SSE,160,4.0,5.6,42,0.00,,SKC,0.00,VWS V14.01,2013-11-14 19:57:00,
2013-11-14 13:58:00,48.6,26.5,29.85,South,179,7.2,7.2,42,0.00,,SKC,0.00,VWS V14.01,2013-11-14 19:58:00,
2013-11-14 13:59:00,48.7,26.7,29.85,South,190,5.6,7.2,42,0.00,,SKC,0.00,VWS V14.01,2013-11-14 19:59:00,
2013-11-14 14:00:00,48.6,26.5,29.85,SSW,212,7.2,10.5,42,0.00,,SKC,0.00,VWS V14.01,2013-11-14 20:00:00,
2013-11-14 14:01:00,48.6,26.5,29.85,SSW,208,7.2,7.2,42,0.00,,SKC,0.00,VWS V14.01,2013-11-14 20:01:00,
2013-11-14 14:02:00,48.4,26.4,29.85,SSW,207,0.0,7.2,42,0.00,,SKC,0.00,VWS V14.01,2013-11-14 20:02:00,
2013-11-14 14:03:00,48.6,26.5,29.85,SSW,207,0.0,0.0,42,0.00,,SKC,0.00,VWS V14.01,2013-11-14 20:03:00,
2013-11-14 14:04:00,48.6,26.5,29.85,SSE,158,4.8,4.8,42,0.00,,SKC,0.00,VWS V14.01,2013-11-14 20:04:00,
2013-11-14 14:05:00,48.4,26.4,29.85,SSE,147,7.2,10.5,42,0.00,,SKC,0.00,VWS V14.01,2013-11-14 20:05:00,
2013-11-14 14:06:00,48.4,26.4,29.85,SE,142,6.4,8.9,42,0.00,,SKC,0.00,VWS V14.01,2013-11-14 20:06:00,
2013-11-14 14:07:00,48.4,26.4,29.85,SW,218,4.0,7.2,42,0.00,,SKC,0.00,VWS V14.01,2013-11-14 20:07:00,
2013-11-14 14:08:00,48.2,26.2,29.85,SSE,161,13.7,13.7,42,0.00,,SKC,0.00,VWS V14.01,2013-11-14 20:08:00,
2013-11-14 14:09:00,48.2,26.2,29.85,South,178,6.4,13.7,42,0.00,,SKC,0.00,VWS V14.01,2013-11-14 20:09:00,
2013-11-14 14:10:00,48.2,26.2,29.85,South,177,0.0,7.2,42,0.00,,SKC,0.00,VWS V14.01,2013-11-14 20:10:00,
2013-11-14 14:11:00,48.2,26.2,29.85,South,169,9.7,9.7,42,0.00,,SKC,0.00,VWS V14.01,2013-11-14 20:11:00,
2013-11-14 14:12:00,48.2,26.2,29.85,SSE,151,6.4,9.7,42,0.00,,SKC,0.00,VWS V14.01,2013-11-14 20:12:00,
2013-11-14 14:13:00,48.2,26.2,29.85,SSE,159,4.8,6.4,42,0.00,,SKC,0.00,VWS V14.01,2013-11-14 20:13:00,
2013-11-14 14:14:00,48.0,26.6,29.85,SSW,210,4.8,5.6,43,0.00,,SKC,0.00,VWS V14.01,2013-11-14 20:14:00,
2013-11-14 14:15:00,48.0,26.6,29.85,South,171,4.8,9.7,43,0.00,,SKC,0.00,VWS V14.01,2013-11-14 20:15:00,
2013-11-14 14:16:00,48.0,26.6,29.85,South,191,5.6,5.6,43,0.00,,SKC,0.00,VWS V14.01,2013-11-14 20:16:00,
2013-11-14 14:17:00,48.0,26.6,29.85,South,176,6.4,6.4,43,0.00,,SKC,0.00,VWS V14.01,2013-11-14 20:17:00,
2013-11-14 14:18:00,47.8,26.4,29.85,SSE,162,6.4,14.5,43,0.00,,SKC,0.00,VWS V14.01,2013-11-14 20:18:00,
2013-11-14 14:19:00,47.7,26.3,29.85,SSE,163,12.9,12.9,43,0.00,,SKC,0.00,VWS V14.01,2013-11-14 20:19:00,
2013-11-14 14:20:00,47.7,26.3,29.85,South,169,10.5,12.9,43,0.00,,SKC,0.00,VWS V14.01,2013-11-14 20:20:00,
2013-11-14 14:21:00,47.7,26.3,29.85,SSW,200,4.0,15.7,43,0.00,,SKC,0.00,VWS V14.01,2013-11-14 20:21:00,
2013-11-14 14:22:00,47.5,26.1,29.85,SSE,167,12.1,12.1,43,0.00,,SKC,0.00,VWS V14.01,2013-11-14 20:22:00,
2013-11-14 14:23:00,47.5,26.1,29.85,South,191,12.1,13.7,43,0.00,,SKC,0.00,VWS V14.01,2013-11-14 20:23:00,
2013-11-14 14:24:00,47.5,26.1,29.85,South,174,5.6,12.1,43,0.00,,SKC,0.00,VWS V14.01,2013-11-14 20:24:00,
2013-11-14 14:25:00,47.5,26.1,29.85,South,179,11.3,11.3,43,0.00,,SKC,0.00,VWS V14.01,2013-11-14 20:25:00,
2013-11-14 14:26:00,47.5,26.1,29.85,SSW,211,4.8,11.3,43,0.00,,SKC,0.00,VWS V14.01,2013-11-14 20:26:00,
2013-11-14 14:27:00,47.5,26.1,29.85,South,182,6.4,7.2,43,0.00,,SKC,0.00,VWS V14.01,2013-11-14 20:27:00,
2013-11-14 14:28:00,47.5,26.1,29.85,SW,231,4.8,7.2,43,0.00,,SKC,0.00,VWS V14.01,2013-11-14 20:28:00,
2013-11-14 14:29:00,47.5,26.1,29.85,SSE,157,4.8,6.4,43,0.00,,SKC,0.00,VWS V14.01,2013-11-14 20:29:00,
2013-11-14 14:30:00,47.5,26.1,29.85,South,173,6.4,8.9,43,0.00,,SKC,0.00,VWS V14.01,2013-11-14 20:30:00,
2013-11-14 14:31:00,47.5,26.1,29.85,SSE,159,6.4,6.4,43,0.00,,SKC,0.00,VWS V14.01,2013-11-14 20:31:00,
2013-11-14 14:32:00,47.5,26.1,29.85,SSE,166,4.8,10.5,43,0.00,,SKC,0.00,VWS V14.01,2013-11-14 20:32:00,
2013-11-14 14:33:00,47.5,26.1,29.85,SW,223,5.6,14.5,43,0.00,,SKC,0.00,VWS V14.01,2013-11-14 20:33:00,
2013-11-14 14:34:00,47.5,26.1,29.85,SSW,203,0.0,5.6,43,0.00,,SKC,0.00,VWS V14.01,2013-11-14 20:34:00,
2013-11-14 14:35:00,47.5,26.1,29.85,SSW,203,0.0,6.4,43,0.00,,SKC,0.00,VWS V14.01,2013-11-14 20:35:00,
2013-11-14 14:36:00,47.5,26.7,29.85,South,169,6.4,6.4,44,0.00,,SKC,0.00,VWS V14.01,2013-11-14 20:36:00,
2013-11-14 14:37:00,47.5,26.1,29.85,SSW,194,12.9,12.9,43,0.00,,SKC,0.00,VWS V14.01,2013-11-14 20:37:00,
2013-11-14 14:38:00,47.5,26.1,29.85,SE,139,4.8,12.9,43,0.00,,SKC,0.00,VWS V14.01,2013-11-14 20:38:00,
2013-11-14 14:39:00,47.5,26.1,29.85,WSW,243,4.0,4.8,43,0.00,,SKC,0.00,VWS V14.01,2013-11-14 20:39:00,
2013-11-14 14:40:00,47.3,26.0,29.85,SSW,206,0.0,5.6,43,0.00,,SKC,0.00,VWS V14.01,2013-11-14 20:40:00,
2013-11-14 14:41:00,47.3,26.0,29.85,South,189,7.2,8.9,43,0.00,,SKC,0.00,VWS V14.01,2013-11-14 20:41:00,
2013-11-14 14:42:00,47.3,26.0,29.85,SW,217,9.7,14.9,43,0.00,,SKC,0.00,VWS V14.01,2013-11-14 20:42:00,
2013-11-14 14:43:00,47.3,26.0,29.85,SW,215,6.4,9.7,43,0.00,,SKC,0.00,VWS V14.01,2013-11-14 20:43:00,
2013-11-14 14:44:00,47.3,26.0,29.85,SSE,161,7.2,8.1,43,0.00,,SKC,0.00,VWS V14.01,2013-11-14 20:44:00,
2013-11-14 14:45:00,47.3,26.0,29.85,South,182,0.0,7.2,43,0.00,,SKC,0.00,VWS V14.01,2013-11-14 20:45:00,
2013-11-14 14:46:00,47.3,26.0,29.85,SSW,201,5.6,11.3,43,0.00,,SKC,0.00,VWS V14.01,2013-11-14 20:46:00,
2013-11-14 14:47:00,47.3,26.0,29.85,SSW,208,9.7,11.3,43,0.00,,SKC,0.00,VWS V14.01,2013-11-14 20:47:00,
2013-11-14 14:48:00,47.1,26.3,29.85,SSE,167,4.0,11.3,44,0.00,,SKC,0.00,VWS V14.01,2013-11-14 20:48:00,
2013-11-14 14:49:00,47.1,26.3,29.85,SE,143,8.1,8.1,44,0.00,,SKC,0.00,VWS V14.01,2013-11-14 20:49:00,
2013-11-14 14:50:00,47.1,26.3,29.85,SSE,155,5.6,9.7,44,0.00,,SKC,0.00,VWS V14.01,2013-11-14 20:50:00,
2013-11-14 14:51:00,47.1,26.3,29.85,SW,220,0.0,6.4,44,0.00,,SKC,0.00,VWS V14.01,2013-11-14 20:51:00,
2013-11-14 14:52:00,47.1,26.3,29.85,SE,140,4.0,5.6,44,0.00,,SKC,0.00,VWS V14.01,2013-11-14 20:52:00,
2013-11-14 14:53:00,47.1,26.3,29.85,SSW,195,11.3,12.1,44,0.00,,SKC,0.00,VWS V14.01,2013-11-14 20:53:00,
2013-11-14 14:54:00,46.9,26.2,29.85,SSW,196,0.0,11.3,44,0.00,,SKC,0.00,VWS V14.01,2013-11-14 20:54:00,
2013-11-14 14:55:00,46.9,26.2,29.85,SSE,166,4.0,10.5,44,0.00,,SKC,0.00,VWS V14.01,2013-11-14 20:55:00,
2013-11-14 14:56:00,46.9,26.2,29.85,SSE,154,8.9,8.9,44,0.00,,SKC,0.00,VWS V14.01,2013-11-14 20:56:00,
2013-11-14 14:57:00,46.9,26.2,29.85,South,175,11.3,11.3,44,0.00,,SKC,0.00,VWS V14.01,2013-11-14 20:57:00,
2013-11-14 14:58:00,46.9,26.2,29.85,South,174,10.5,11.3,44,0.00,,SKC,0.00,VWS V14.01,2013-11-14 20:58:00,
2013-11-14 14:59:00,46.9,26.2,29.85,South,170,6.4,10.5,44,0.00,,SKC,0.00,VWS V14.01,2013-11-14 20:59:00,
2013-11-14 15:00:00,46.9,26.2,29.85,South,170,6.4,14.9,44,0.00,,SKC,0.00,VWS V14.01,2013-11-14 21:00:00,
2013-11-14 15:01:00,46.9,26.2,29.85,SSE,167,4.8,13.7,44,0.00,,SKC,0.00,VWS V14.01,2013-11-14 21:01:00,
2013-11-14 15:02:00,46.9,26.2,29.85,South,190,6.4,9.7,44,0.00,,SKC,0.00,VWS V14.01,2013-11-14 21:02:00,
2013-11-14 15:03:00,46.9,26.2,29.85,SE,136,6.4,12.1,44,0.00,,SKC,0.00,VWS V14.01,2013-11-14 21:03:00,
2013-11-14 15:04:00,46.8,26.0,29.85,WSW,237,10.5,11.3,44,0.00,,SKC,0.00,VWS V14.01,2013-11-14 21:04:00,
2013-11-14 15:05:00,46.8,26.0,29.85,SSW,194,5.6,10.5,44,0.00,,SKC,0.00,VWS V14.01,2013-11-14 21:05:00,
2013-11-14 15:06:00,46.8,26.0,29.85,ESE,118,0.0,6.4,44,0.00,,SKC,0.00,VWS V14.01,2013-11-14 21:06:00,
2013-11-14 15:07:00,46.8,26.0,29.85,SSW,207,5.6,10.5,44,0.00,,SKC,0.00,VWS V14.01,2013-11-14 21:07:00,
2013-11-14 15:08:00,46.8,26.0,29.85,SSW,198,4.0,8.9,44,0.00,,SKC,0.00,VWS V14.01,2013-11-14 21:08:00,
2013-11-14 15:09:00,46.8,26.0,29.85,SSE,166,15.7,17.3,44,0.00,,SKC,0.00,VWS V14.01,2013-11-14 21:09:00,
2013-11-14 15:10:00,46.8,26.6,29.85,SSW,208,0.0,15.7,45,0.00,,SKC,0.00,VWS V14.01,2013-11-14 21:10:00,
2013-11-14 15:11:00,46.8,26.0,29.85,SW,214,4.8,7.2,44,0.00,,SKC,0.00,VWS V14.01,2013-11-14 21:11:00,
2013-11-14 15:12:00,46.8,26.0,29.85,South,191,4.8,5.6,44,0.00,,SKC,0.00,VWS V14.01,2013-11-14 21:12:00,
2013-11-14 15:13:00,46.8,26.0,29.85,SSW,211,4.0,8.9,44,0.00,,SKC,0.00,VWS V14.01,2013-11-14 21:13:00,
2013-11-14 15:14:00,46.8,26.0,29.85,South,181,14.5,14.5,44,0.00,,SKC,0.00,VWS V14.01,2013-11-14 21:14:00,
2013-11-14 15:15:00,46.6,25.9,29.85,South,169,9.7,14.5,44,0.00,,SKC,0.00,VWS V14.01,2013-11-14 21:15:00,
2013-11-14 15:16:00,46.6,26.4,29.85,SSW,210,4.8,9.7,45,0.00,,SKC,0.00,VWS V14.01,2013-11-14 21:16:00,
2013-11-14 15:17:00,46.6,26.4,29.85,SSE,161,6.4,6.4,45,0.00,,SKC,0.00,VWS V14.01,2013-11-14 21:17:00,
2013-11-14 15:18:00,46.6,25.9,29.85,SW,222,7.2,7.2,44,0.00,,SKC,0.00,VWS V14.01,2013-11-14 21:18:00,
2013-11-14 15:19:00,46.6,25.9,29.85,SSW,206,9.7,11.3,44,0.00,,SKC,0.00,VWS V14.01,2013-11-14 21:19:00,
2013-11-14 15:20:00,46.6,25.9,29.85,SSW,195,4.8,9.7,44,0.00,,SKC,0.00,VWS V14.01,2013-11-14 21:20:00,
2013-11-14 15:21:00,46.6,25.9,29.85,SSW,212,4.8,9.7,44,0.00,,SKC,0.00,VWS V14.01,2013-11-14 21:21:00,
2013-11-14 15:22:00,46.6,26.4,29.85,SSW,211,5.6,7.2,45,0.00,,SKC,0.00,VWS V14.01,2013-11-14 21:22:00,
2013-11-14 15:23:00,46.6,26.4,29.85,SW,218,9.7,9.7,45,0.00,,SKC,0.00,VWS V14.01,2013-11-14 21:23:00,
2013-11-14 15:24:00,46.4,26.2,29.85,SW,233,6.4,9.7,45,0.00,,SKC,0.00,VWS V14.01,2013-11-14 21:24:00,
2013-11-14 15:25:00,46.4,26.2,29.85,SSW,205,6.4,7.2,45,0.00,,SKC,0.00,VWS V14.01,2013-11-14 21:25:00,
2013-11-14 15:26:00,46.4,26.2,29.85,SSW,198,5.6,6.4,45,0.00,,SKC,0.00,VWS V14.01,2013-11-14 21:26:00,
2013-11-14 15:27:00,46.4,26.2,29.85,SSW,212,7.2,8.9,45,0.00,,SKC,0.00,VWS V14.01,2013-11-14 21:27:00,
2013-11-14 15:28:00,46.2,26.1,29.85,SSW,198,8.1,8.9,45,0.00,,SKC,0.00,VWS V14.01,2013-11-14 21:28:00,
2013-11-14 15:29:00,46.2,26.1,29.85,SSW,199,0.0,8.1,45,0.00,,SKC,0.00,VWS V14.01,2013-11-14 21:29:00,
2013-11-14 15:30:00,46.2,26.1,29.85,SW,215,0.0,5.6,45,0.00,,SKC,0.00,VWS V14.01,2013-11-14 21:30:00,
2013-11-14 15:31:00,46.2,26.6,29.85,SSW,196,5.6,7.2,46,0.00,,SKC,0.00,VWS V14.01,2013-11-14 21:31:00,
2013-11-14 15:32:00,46.2,26.6,29.85,SW,220,5.6,8.1,46,0.00,,SKC,0.00,VWS V14.01,2013-11-14 21:32:00,
2013-11-14 15:33:00,46.0,26.4,29.85,SW,220,0.0,5.6,46,0.00,,SKC,0.00,VWS V14.01,2013-11-14 21:33:00,
2013-11-14 15:34:00,46.0,26.4,29.85,South,184,5.6,6.4,46,0.00,,SKC,0.00,VWS V14.01,2013-11-14 21:34:00,
2013-11-14 15:35:00,46.0,26.4,29.85,South,187,4.8,13.7,46,0.00,,SKC,0.00,VWS V14.01,2013-11-14 21:35:00,
2013-11-14 15:36:00,46.0,26.4,29.85,South,189,0.0,4.8,46,0.00,,SKC,0.00,VWS V14.01,2013-11-14 21:36:00,
2013-11-14 15:37:00,46.0,26.4,29.85,South,189,6.4,6.4,46,0.00,,SKC,0.00,VWS V14.01,2013-11-14 21:37:00,
2013-11-14 15:38:00,46.0,26.4,29.85,SW,218,5.6,6.4,46,0.00,,SKC,0.00,VWS V14.01,2013-11-14 21:38:00,
2013-11-14 15:39:00,46.0,27.0,29.85,SSW,204,5.6,5.6,47,0.00,,SKC,0.00,VWS V14.01,2013-11-14 21:39:00,
2013-11-14 15:40:00,46.0,27.0,29.85,South,190,6.4,6.4,47,0.00,,SKC,0.00,VWS V14.01,2013-11-14 21:40:00,
2013-11-14 15:41:00,45.9,26.8,29.85,SSW,199,0.0,6.4,47,0.00,,SKC,0.00,VWS V14.01,2013-11-14 21:41:00,
2013-11-14 15:42:00,45.9,26.8,29.85,South,181,5.6,5.6,47,0.00,,SKC,0.00,VWS V14.01,2013-11-14 21:42:00,
2013-11-14 15:43:00,45.9,26.8,29.85,South,182,0.0,5.6,47,0.00,,SKC,0.00,VWS V14.01,2013-11-14 21:43:00,
2013-11-14 15:44:00,45.9,26.8,29.85,South,177,5.6,5.6,47,0.00,,SKC,0.00,VWS V14.01,2013-11-14 21:44:00,
2013-11-14 15:45:00,45.9,26.8,29.85,South,172,4.8,5.6,47,0.00,,SKC,0.00,VWS V14.01,2013-11-14 21:45:00,
2013-11-14 15:46:00,45.9,26.8,29.85,South,177,0.0,6.4,47,0.00,,SKC,0.00,VWS V14.01,2013-11-14 21:46:00,
2013-11-14 15:47:00,45.7,26.6,29.85,South,178,4.8,4.8,47,0.00,,SKC,0.00,VWS V14.01,2013-11-14 21:47:00,
2013-11-14 15:48:00,45.7,27.1,29.85,South,186,9.7,9.7,48,0.00,,SKC,0.00,VWS V14.01,2013-11-14 21:48:00,
2013-11-14 15:49:00,45.7,27.1,29.85,South,171,4.8,11.3,48,0.00,,SKC,0.00,VWS V14.01,2013-11-14 21:49:00,
2013-11-14 15:50:00,45.7,27.1,29.85,South,184,4.8,10.5,48,0.00,,SKC,0.00,VWS V14.01,2013-11-14 21:50:00,
2013-11-14 15:51:00,45.7,27.1,29.85,SE,140,7.2,7.2,48,0.00,,SKC,0.00,VWS V14.01,2013-11-14 21:51:00,
2013-11-14 15:52:00,45.7,27.1,29.85,SW,226,0.0,7.2,48,0.00,,SKC,0.00,VWS V14.01,2013-11-14 21:52:00,
2013-11-14 15:53:00,45.5,27.0,29.85,South,170,7.2,7.2,48,0.00,,SKC,0.00,VWS V14.01,2013-11-14 21:53:00,
2013-11-14 15:54:00,45.5,27.0,29.85,SSE,155,5.6,7.2,48,0.00,,SKC,0.00,VWS V14.01,2013-11-14 21:54:00,
2013-11-14 15:55:00,45.5,27.0,29.85,SSE,167,7.2,7.2,48,0.00,,SKC,0.00,VWS V14.01,2013-11-14 21:55:00,
2013-11-14 15:56:00,45.5,27.0,29.85,South,182,10.5,10.5,48,0.00,,SKC,0.00,VWS V14.01,2013-11-14 21:56:00,
2013-11-14 15:57:00,45.5,27.0,29.85,South,181,4.0,10.5,48,0.00,,SKC,0.00,VWS V14.01,2013-11-14 21:57:00,
2013-11-14 15:58:00,45.5,27.0,29.85,South,181,0.0,4.0,48,0.00,,SKC,0.00,VWS V14.01,2013-11-14 21:58:00,
2013-11-14 15:59:00,45.5,27.0,29.85,South,189,8.9,10.5,48,0.00,,SKC,0.00,VWS V14.01,2013-11-14 21:59:00,
2013-11-14 16:00:00,45.5,27.0,29.85,SSE,164,0.0,8.9,48,0.00,,SKC,0.00,VWS V14.01,2013-11-14 22:00:00,
2013-11-14 16:01:00,45.5,27.0,29.85,SSE,165,0.0,0.0,48,0.00,,SKC,0.00,VWS V14.01,2013-11-14 22:01:00,
2013-11-14 16:02:00,45.5,27.0,29.85,SSW,193,0.0,0.0,48,0.00,,SKC,0.00,VWS V14.01,2013-11-14 22:02:00,
2013-11-14 16:03:00,45.5,27.0,29.85,SSW,207,0.0,0.0,48,0.00,,SKC,0.00,VWS V14.01,2013-11-14 22:03:00,
2013-11-14 16:04:00,45.5,27.0,29.85,South,189,0.0,0.0,48,0.00,,SKC,0.00,VWS V14.01,2013-11-14 22:04:00,
2013-11-14 16:05:00,45.5,27.0,29.85,WSW,238,4.8,8.9,48,0.00,,SKC,0.00,VWS V14.01,2013-11-14 22:05:00,
2013-11-14 16:06:00,45.5,27.0,29.85,SW,230,0.0,5.6,48,0.00,,SKC,0.00,VWS V14.01,2013-11-14 22:06:00,
2013-11-14 16:07:00,45.5,27.0,29.85,SW,217,12.1,12.1,48,0.00,,SKC,0.00,VWS V14.01,2013-11-14 22:07:00,
2013-11-14 16:08:00,45.5,27.0,29.85,South,172,4.8,12.1,48,0.00,,SKC,0.00,VWS V14.01,2013-11-14 22:08:00,
2013-11-14 16:09:00,45.5,27.0,29.85,SW,214,7.2,7.2,48,0.00,,SKC,0.00,VWS V14.01,2013-11-14 22:09:00,
2013-11-14 16:10:00,45.5,27.0,29.85,SW,214,0.0,7.2,48,0.00,,SKC,0.00,VWS V14.01,2013-11-14 22:10:00,
2013-11-14 16:11:00,45.5,27.0,29.85,SSW,194,6.4,7.2,48,0.00,,SKC,0.00,VWS V14.01,2013-11-14 22:11:00,
2013-11-14 16:12:00,45.5,27.0,29.85,SE,145,7.2,7.2,48,0.00,,SKC,0.00,VWS V14.01,2013-11-14 22:12:00,
2013-11-14 16:13:00,45.5,27.0,29.85,SSE,161,7.2,8.9,48,0.00,,SKC,0.00,VWS V14.01,2013-11-14 22:13:00,
2013-11-14 16:14:00,45.5,27.0,29.85,South,180,6.4,7.2,48,0.00,,SKC,0.00,VWS V14.01,2013-11-14 22:14:00,
2013-11-14 16:15:00,45.3,26.8,29.85,SSE,165,5.6,7.2,48,0.00,,SKC,0.00,VWS V14.01,2013-11-14 22:15:00,
2013-11-14 16:16:00,45.3,26.3,29.85,SSW,203,5.6,7.2,47,0.00,,SKC,0.00,VWS V14.01,2013-11-14 22:16:00,
2013-11-14 16:17:00,45.3,26.3,29.85,SSW,194,6.4,6.4,47,0.00,,SKC,0.00,VWS V14.01,2013-11-14 22:17:00,
2013-11-14 16:18:00,45.3,26.3,29.85,South,177,0.0,11.3,47,0.00,,SKC,0.00,VWS V14.01,2013-11-14 22:18:00,
2013-11-14 16:19:00,45.3,26.3,29.85,South,189,4.8,8.9,47,0.00,,SKC,0.00,VWS V14.01,2013-11-14 22:19:00,
2013-11-14 16:20:00,45.3,26.3,29.85,South,187,4.8,10.5,47,0.00,,SKC,0.00,VWS V14.01,2013-11-14 22:20:00,
2013-11-14 16:21:00,45.3,26.3,29.85,WNW,282,4.8,4.8,47,0.00,,SKC,0.00,VWS V14.01,2013-11-14 22:21:00,
2013-11-14 16:22:00,45.3,26.3,29.85,SSW,203,0.0,4.8,47,0.00,,SKC,0.00,VWS V14.01,2013-11-14 22:22:00,
2013-11-14 16:23:00,45.3,26.3,29.85,SSW,201,0.0,4.0,47,0.00,,SKC,0.00,VWS V14.01,2013-11-14 22:23:00,
2013-11-14 16:24:00,45.3,26.3,29.85,South,181,0.0,0.0,47,0.00,,SKC,0.00,VWS V14.01,2013-11-14 22:24:00,
2013-11-14 16:25:00,45.3,26.3,29.85,SSW,212,4.8,4.8,47,0.00,,SKC,0.00,VWS V14.01,2013-11-14 22:25:00,
2013-11-14 16:26:00,45.3,26.3,29.85,SW,223,4.8,4.8,47,0.00,,SKC,0.00,VWS V14.01,2013-11-14 22:26:00,
2013-11-14 16:27:00,45.3,26.3,29.85,SSE,162,9.7,10.5,47,0.00,,SKC,0.00,VWS V14.01,2013-11-14 22:27:00,
2013-11-14 16:28:00,45.3,26.3,29.85,SSW,208,7.2,10.5,47,0.00,,SKC,0.00,VWS V14.01,2013-11-14 22:28:00,
2013-11-14 16:29:00,45.3,26.3,29.85,SW,214,10.5,10.5,47,0.00,,SKC,0.00,VWS V14.01,2013-11-14 22:29:00,
2013-11-14 16:30:00,45.1,26.1,29.85,SSW,201,6.4,10.5,47,0.00,,SKC,0.00,VWS V14.01,2013-11-14 22:30:00,
2013-11-14 16:31:00,45.1,26.1,29.85,South,186,4.0,6.4,47,0.00,,SKC,0.00,VWS V14.01,2013-11-14 22:31:00,
2013-11-14 16:32:00,45.1,26.1,29.85,SSW,206,8.9,9.7,47,0.00,,SKC,0.00,VWS V14.01,2013-11-14 22:32:00,
2013-11-14 16:33:00,45.1,26.1,29.85,South,181,4.0,8.9,47,0.00,,SKC,0.00,VWS V14.01,2013-11-14 22:33:00,
2013-11-14 16:34:00,45.1,26.1,29.85,South,169,0.0,8.9,47,0.00,,SKC,0.00,VWS V14.01,2013-11-14 22:34:00,
2013-11-14 16:35:00,45.1,26.1,29.85,SSE,147,5.6,5.6,47,0.00,,SKC,0.00,VWS V14.01,2013-11-14 22:35:00,
2013-11-14 16:36:00,45.1,26.1,29.85,SSW,199,0.0,7.2,47,0.00,,SKC,0.00,VWS V14.01,2013-11-14 22:36:00,
2013-11-14 16:37:00,45.0,26.0,29.85,SE,143,0.0,4.8,47,0.00,,SKC,0.00,VWS V14.01,2013-11-14 22:37:00,
2013-11-14 16:38:00,45.0,26.0,29.85,SSE,162,0.0,7.2,47,0.00,,SKC,0.00,VWS V14.01,2013-11-14 22:38:00,
2013-11-14 16:39:00,45.0,26.0,29.85,South,190,8.9,11.3,47,0.00,,SKC,0.00,VWS V14.01,2013-11-14 22:39:00,
2013-11-14 16:40:00,45.0,26.0,29.85,SSW,196,0.0,8.9,47,0.00,,SKC,0.00,VWS V14.01,2013-11-14 22:40:00,
2013-11-14 16:41:00,45.0,26.0,29.85,South,190,0.0,10.5,47,0.00,,SKC,0.00,VWS V14.01,2013-11-14 22:41:00,
2013-11-14 16:42:00,45.0,26.0,29.85,South,191,8.9,8.9,47,0.00,,SKC,0.00,VWS V14.01,2013-11-14 22:42:00,
2013-11-14 16:43:00,45.0,26.0,29.85,SSE,165,0.0,11.3,47,0.00,,SKC,0.00,VWS V14.01,2013-11-14 22:43:00,
2013-11-14 16:44:00,45.0,26.0,29.85,SW,217,0.0,0.0,47,0.00,,SKC,0.00,VWS V14.01,2013-11-14 22:44:00,
2013-11-14 16:45:00,45.0,26.0,29.85,SSW,211,6.4,6.4,47,0.00,,SKC,0.00,VWS V14.01,2013-11-14 22:45:00,
2013-11-14 16:46:00,45.0,26.0,29.85,South,169,0.0,8.9,47,0.00,,SKC,0.00,VWS V14.01,2013-11-14 22:46:00,
2013-11-14 16:47:00,45.0,26.0,29.85,SSW,203,4.0,5.6,47,0.00,,SKC,0.00,VWS V14.01,2013-11-14 22:47:00,
2013-11-14 16:48:00,44.8,25.8,29.85,SSW,198,5.6,5.6,47,0.00,,SKC,0.00,VWS V14.01,2013-11-14 22:48:00,
2013-11-14 16:49:00,44.8,25.8,29.85,SSE,162,4.0,5.6,47,0.00,,SKC,0.00,VWS V14.01,2013-11-14 22:49:00,
2013-11-14 16:50:00,44.8,25.8,29.85,South,191,7.2,7.2,47,0.00,,SKC,0.00,VWS V14.01,2013-11-14 22:50:00,
2013-11-14 16:51:00,44.8,25.8,29.85,SSW,213,9.7,10.5,47,0.00,,SKC,0.00,VWS V14.01,2013-11-14 22:51:00,
2013-11-14 16:52:00,44.8,25.8,29.85,South,190,4.8,9.7,47,0.00,,SKC,0.00,VWS V14.01,2013-11-14 22:52:00,
2013-11-14 16:53:00,44.8,25.8,29.85,SSW,196,10.5,10.5,47,0.00,,SKC,0.00,VWS V14.01,2013-11-14 22:53:00,
2013-11-14 16:54:00,44.8,25.8,29.85,SSE,165,9.7,12.1,47,0.00,,SKC,0.00,VWS V14.01,2013-11-14 22:54:00,
2013-11-14 16:55:00,44.8,25.8,29.85,SSE,157,9.7,11.3,47,0.00,,SKC,0.00,VWS V14.01,2013-11-14 22:55:00,
2013-11-14 16:56:00,44.8,25.8,29.85,SSW,204,0.0,9.7,47,0.00,,SKC,0.00,VWS V14.01,2013-11-14 22:56:00,
2013-11-14 16:57:00,44.8,25.8,29.85,SSE,159,9.7,13.7,47,0.00,,SKC,0.00,VWS V14.01,2013-11-14 22:57:00,
2013-11-14 16:59:00,44.8,25.8,29.85,SSW,209,4.0,9.7,47,0.00,,SKC,0.00,VWS V14.01,2013-11-14 22:59:00,
2013-11-14 17:00:00,44.8,25.8,29.85,SW,230,7.2,9.7,47,0.00,,SKC,0.00,VWS V14.01,2013-11-14 23:00:00,
2013-11-14 17:01:00,44.8,25.8,29.85,SSW,213,10.5,10.5,47,0.00,,SKC,0.00,VWS V14.01,2013-11-14 23:01:00,
2013-11-14 17:02:00,44.8,25.8,29.85,SSW,193,4.8,12.1,47,0.00,,SKC,0.00,VWS V14.01,2013-11-14 23:02:00,
2013-11-14 17:03:00,44.8,25.8,29.85,SW,218,4.0,5.6,47,0.00,,SKC,0.00,VWS V14.01,2013-11-14 23:03:00,
2013-11-14 17:04:00,44.8,25.8,29.85,SSW,201,6.4,11.3,47,0.00,,SKC,0.00,VWS V14.01,2013-11-14 23:04:00,
2013-11-14 17:05:00,44.8,25.8,29.85,South,185,4.8,8.1,47,0.00,,SKC,0.00,VWS V14.01,2013-11-14 23:05:00,
2013-11-14 17:06:00,44.8,25.8,29.85,SSE,163,7.2,11.3,47,0.00,,SKC,0.00,VWS V14.01,2013-11-14 23:06:00,
2013-11-14 17:07:00,44.8,25.8,29.85,South,183,5.6,7.2,47,0.00,,SKC,0.00,VWS V14.01,2013-11-14 23:07:00,
2013-11-14 17:08:00,44.8,25.8,29.85,South,189,0.0,8.9,47,0.00,,SKC,0.00,VWS V14.01,2013-11-14 23:08:00,
2013-11-14 17:09:00,44.8,25.8,29.85,SSW,197,5.6,8.9,47,0.00,,SKC,0.00,VWS V14.01,2013-11-14 23:09:00,
2013-11-14 17:10:00,44.8,25.8,29.85,SSE,167,0.0,7.2,47,0.00,,SKC,0.00,VWS V14.01,2013-11-14 23:10:00,
2013-11-14 17:11:00,44.8,25.8,29.85,South,188,11.3,11.3,47,0.00,,SKC,0.00,VWS V14.01,2013-11-14 23:11:00,
2013-11-14 17:12:00,44.8,25.8,29.85,SSE,155,0.0,11.3,47,0.00,,SKC,0.00,VWS V14.01,2013-11-14 23:12:00,
2013-11-14 17:13:00,44.8,25.8,29.85,South,170,15.7,15.7,47,0.00,,SKC,0.00,VWS V14.01,2013-11-14 23:13:00,
2013-11-14 17:14:00,44.8,25.8,29.85,SSE,154,6.4,15.7,47,0.00,,SKC,0.00,VWS V14.01,2013-11-14 23:14:00,
2013-11-14 17:15:00,44.8,25.8,29.85,South,172,11.3,11.3,47,0.00,,SKC,0.00,VWS V14.01,2013-11-14 23:15:00,
2013-11-14 17:16:00,44.6,25.6,29.85,South,184,7.2,13.7,47,0.00,,SKC,0.00,VWS V14.01,2013-11-14 23:16:00,
2013-11-14 17:17:00,44.6,25.6,29.85,South,177,0.0,7.2,47,0.00,,SKC,0.00,VWS V14.01,2013-11-14 23:17:00,
2013-11-14 17:18:00,44.6,25.6,29.85,South,169,13.7,13.7,47,0.00,,SKC,0.00,VWS V14.01,2013-11-14 23:18:00,
2013-11-14 17:19:00,44.6,25.6,29.85,SSW,195,4.0,13.7,47,0.00,,SKC,0.00,VWS V14.01,2013-11-14 23:19:00,
2013-11-14 17:20:00,44.6,25.6,29.85,South,183,5.6,10.5,47,0.00,,SKC,0.00,VWS V14.01,2013-11-14 23:20:00,
2013-11-14 17:21:00,44.6,25.6,29.85,South,178,4.8,10.5,47,0.00,,SKC,0.00,VWS V14.01,2013-11-14 23:21:00,
2013-11-14 17:22:00,44.6,25.6,29.85,SSW,207,5.6,7.2,47,0.00,,SKC,0.00,VWS V14.01,2013-11-14 23:22:00,
2013-11-14 17:23:00,44.6,25.6,29.85,SSE,162,5.6,9.7,47,0.00,,SKC,0.00,VWS V14.01,2013-11-14 23:23:00,
2013-11-14 17:24:00,44.6,25.6,29.85,South,185,5.6,7.2,47,0.00,,SKC,0.00,VWS V14.01,2013-11-14 23:24:00,
2013-11-14 17:25:00,44.6,25.6,29.85,South,170,7.2,7.2,47,0.00,,SKC,0.00,VWS V14.01,2013-11-14 23:25:00,
2013-11-14 17:26:00,44.6,25.6,29.85,South,186,6.4,7.2,47,0.00,,SKC,0.00,VWS V14.01,2013-11-14 23:26:00,
2013-11-14 17:27:00,44.6,25.6,29.85,SSE,162,6.4,6.4,47,0.00,,SKC,0.00,VWS V14.01,2013-11-14 23:27:00,
2013-11-14 17:28:00,44.6,25.6,29.85,South,190,4.8,7.2,47,0.00,,SKC,0.00,VWS V14.01,2013-11-14 23:28:00,
2013-11-14 17:29:00,44.6,25.6,29.85,SSW,201,4.8,5.6,47,0.00,,SKC,0.00,VWS V14.01,2013-11-14 23:29:00,
2013-11-14 17:30:00,44.6,25.6,29.85,South,184,4.0,8.1,47,0.00,,SKC,0.00,VWS V14.01,2013-11-14 23:30:00,
2013-11-14 17:31:00,44.6,25.6,29.85,SW,215,8.1,8.1,47,0.00,,SKC,0.00,VWS V14.01,2013-11-14 23:31:00,
2013-11-14 17:32:00,44.6,25.6,29.85,SSW,198,10.5,10.5,47,0.00,,SKC,0.00,VWS V14.01,2013-11-14 23:32:00,
2013-11-14 17:33:00,44.6,25.6,29.85,SW,227,0.0,10.5,47,0.00,,SKC,0.00,VWS V14.01,2013-11-14 23:33:00,
2013-11-14 17:34:00,44.6,25.6,29.85,South,170,4.8,6.4,47,0.00,,SKC,0.00,VWS V14.01,2013-11-14 23:34:00,
2013-11-14 17:35:00,44.6,25.6,29.85,SSW,207,10.5,10.5,47,0.00,,SKC,0.00,VWS V14.01,2013-11-14 23:35:00,
2013-11-14 17:36:00,44.4,26.0,29.85,SSE,163,9.7,10.5,48,0.00,,SKC,0.00,VWS V14.01,2013-11-14 23:36:00,
2013-11-14 17:37:00,44.4,26.0,29.85,South,176,0.0,9.7,48,0.00,,SKC,0.00,VWS V14.01,2013-11-14 23:37:00,
2013-11-14 17:38:00,44.4,26.0,29.85,South,176,10.5,10.5,48,0.00,,SKC,0.00,VWS V14.01,2013-11-14 23:38:00,
2013-11-14 17:39:00,44.4,26.0,29.85,SSW,212,0.0,10.5,48,0.00,,SKC,0.00,VWS V14.01,2013-11-14 23:39:00,
2013-11-14 17:40:00,44.4,26.0,29.85,SSW,211,0.0,0.0,48,0.00,,SKC,0.00,VWS V14.01,2013-11-14 23:40:00,
2013-11-14 17:41:00,44.4,26.0,29.85,SSW,211,0.0,0.0,48,0.00,,SKC,0.00,VWS V14.01,2013-11-14 23:41:00,
2013-11-14 17:42:00,44.2,25.8,29.85,SW,225,8.9,8.9,48,0.00,,SKC,0.00,VWS V14.01,2013-11-14 23:42:00,
2013-11-14 17:43:00,44.2,25.8,29.85,SSE,161,8.9,8.9,48,0.00,,SKC,0.00,VWS V14.01,2013-11-14 23:43:00,
2013-11-14 17:44:00,44.2,25.8,29.85,SSE,162,0.0,8.9,48,0.00,,SKC,0.00,VWS V14.01,2013-11-14 23:44:00,
2013-11-14 17:45:00,44.2,25.8,29.85,South,181,8.9,10.5,48,0.00,,SKC,0.00,VWS V14.01,2013-11-14 23:45:00,
2013-11-14 17:46:00,44.1,25.6,29.85,South,175,0.0,8.9,48,0.00,,SKC,0.00,VWS V14.01,2013-11-14 23:46:00,
2013-11-14 17:47:00,44.1,25.6,29.85,South,180,5.6,9.7,48,0.00,,SKC,0.00,VWS V14.01,2013-11-14 23:47:00,
2013-11-14 17:48:00,44.1,25.6,29.85,SSE,165,4.0,6.4,48,0.00,,SKC,0.00,VWS V14.01,2013-11-14 23:48:00,
2013-11-14 17:49:00,43.9,25.5,29.85,SSE,166,0.0,4.8,48,0.00,,SKC,0.00,VWS V14.01,2013-11-14 23:49:00,
2013-11-14 17:50:00,43.9,25.5,29.85,SSE,165,0.0,0.0,48,0.00,,SKC,0.00,VWS V14.01,2013-11-14 23:50:00,
2013-11-14 17:51:00,43.7,25.3,29.85,South,177,0.0,7.2,48,0.00,,SKC,0.00,VWS V14.01,2013-11-14 23:51:00,
2013-11-14 17:52:00,43.5,25.6,29.85,SSW,205,0.0,5.6,49,0.00,,SKC,0.00,VWS V14.01,2013-11-14 23:52:00,
2013-11-14 17:53:00,43.5,25.6,29.85,SSW,208,4.0,5.6,49,0.00,,SKC,0.00,VWS V14.01,2013-11-14 23:53:00,
2013-11-14 17:54:00,43.3,25.5,29.85,SSW,213,4.0,5.6,49,0.00,,SKC,0.00,VWS V14.01,2013-11-14 23:54:00,
2013-11-14 17:55:00,43.3,25.5,29.85,SSW,204,4.0,4.8,49,0.00,,SKC,0.00,VWS V14.01,2013-11-14 23:55:00,
2013-11-14 17:56:00,43.2,25.3,29.85,SSW,196,0.0,4.0,49,0.00,,SKC,0.00,VWS V14.01,2013-11-14 23:56:00,
2013-11-14 17:57:00,43.0,25.1,29.85,SSW,202,4.8,4.8,49,0.00,,SKC,0.00,VWS V14.01,2013-11-14 23:57:00,
2013-11-14 17:58:00,43.0,25.1,29.85,SSW,198,0.0,4.8,49,0.00,,SKC,0.00,VWS V14.01,2013-11-14 23:58:00,
2013-11-14 17:59:00,42.8,25.0,29.85,South,184,5.6,5.6,49,0.00,,SKC,0.00,VWS V14.01,2013-11-14 23:59:00,
2013-11-14 18:00:00,42.8,25.0,29.85,South,185,4.8,5.6,49,0.00,,SKC,0.00,VWS V14.01,2013-11-15 00:00:00,
2013-11-14 18:01:00,42.6,25.3,29.85,South,186,5.6,5.6,50,0.00,,SKC,0.00,VWS V14.01,2013-11-15 00:01:00,
2013-11-14 18:02:00,42.6,25.3,29.85,SSE,163,4.8,5.6,50,0.00,,SKC,0.00,VWS V14.01,2013-11-15 00:02:00,
2013-11-14 18:03:00,42.4,25.1,29.85,SSE,163,0.0,4.8,50,0.00,,SKC,0.00,VWS V14.01,2013-11-15 00:03:00,
2013-11-14 18:04:00,42.4,25.1,29.85,SSE,162,0.0,0.0,50,0.00,,SKC,0.00,VWS V14.01,2013-11-15 00:04:00,
2013-11-14 18:05:00,42.3,25.0,29.85,South,171,0.0,0.0,50,0.00,,SKC,0.00,VWS V14.01,2013-11-15 00:05:00,
2013-11-14 18:06:00,42.3,25.4,29.85,South,177,0.0,0.0,51,0.00,,SKC,0.00,VWS V14.01,2013-11-15 00:06:00,
2013-11-14 18:07:00,42.1,24.8,29.85,South,177,0.0,0.0,50,0.00,,SKC,0.00,VWS V14.01,2013-11-15 00:07:00,
2013-11-14 18:08:00,42.1,25.3,29.85,South,191,0.0,0.0,51,0.00,,SKC,0.00,VWS V14.01,2013-11-15 00:08:00,
2013-11-14 18:09:00,41.9,25.1,29.85,South,191,0.0,0.0,51,0.00,,SKC,0.00,VWS V14.01,2013-11-15 00:09:00,
2013-11-14 18:10:00,41.7,24.9,29.85,South,180,0.0,0.0,51,0.00,,SKC,0.00,VWS V14.01,2013-11-15 00:10:00,
2013-11-14 18:11:00,41.7,24.9,29.85,South,183,0.0,0.0,51,0.00,,SKC,0.00,VWS V14.01,2013-11-15 00:11:00,
2013-11-14 18:12:00,41.7,24.9,29.85,South,190,0.0,0.0,51,0.00,,SKC,0.00,VWS V14.01,2013-11-15 00:12:00,
2013-11-14 18:13:00,41.7,24.9,29.85,South,179,5.6,7.2,51,0.00,,SKC,0.00,VWS V14.01,2013-11-15 00:13:00,
2013-11-14 18:14:00,41.5,24.8,29.85,South,182,0.0,6.4,51,0.00,,SKC,0.00,VWS V14.01,2013-11-15 00:14:00,
2013-11-14 18:15:00,41.5,25.2,29.85,WSW,239,0.0,0.0,52,0.00,,SKC,0.00,VWS V14.01,2013-11-15 00:15:00,
2013-11-14 18:16:00,41.5,25.2,29.85,SW,236,0.0,4.8,52,0.00,,SKC,0.00,VWS V14.01,2013-11-15 00:16:00,
2013-11-14 18:17:00,41.4,25.1,29.85,SW,236,0.0,0.0,52,0.00,,SKC,0.00,VWS V14.01,2013-11-15 00:17:00,
2013-11-14 18:18:00,41.2,24.9,29.85,South,180,4.8,7.2,52,0.00,,SKC,0.00,VWS V14.01,2013-11-15 00:18:00,
2013-11-14 18:19:00,41.2,24.9,29.85,SSE,166,0.0,6.4,52,0.00,,SKC,0.00,VWS V14.01,2013-11-15 00:19:00,
2013-11-14 18:20:00,41.2,24.9,29.85,SSE,167,0.0,5.6,52,0.00,,SKC,0.00,VWS V14.01,2013-11-15 00:20:00,
2013-11-14 18:21:00,41.0,24.7,29.85,SSE,168,0.0,0.0,52,0.00,,SKC,0.00,VWS V14.01,2013-11-15 00:21:00,
2013-11-14 18:22:00,41.0,24.7,29.85,South,169,0.0,0.0,52,0.00,,SKC,0.00,VWS V14.01,2013-11-15 00:22:00,
2013-11-14 18:23:00,41.0,24.7,29.85,SSE,168,0.0,4.8,52,0.00,,SKC,0.00,VWS V14.01,2013-11-15 00:23:00,
2013-11-14 18:24:00,40.8,25.0,29.85,South,171,0.0,4.8,53,0.00,,SKC,0.00,VWS V14.01,2013-11-15 00:24:00,
2013-11-14 18:25:00,40.8,25.0,29.85,South,171,0.0,0.0,53,0.00,,SKC,0.00,VWS V14.01,2013-11-15 00:25:00,
2013-11-14 18:26:00,40.6,24.9,29.85,SSW,198,0.0,5.6,53,0.00,,SKC,0.00,VWS V14.01,2013-11-15 00:26:00,
2013-11-14 18:27:00,40.6,24.9,29.85,South,182,4.0,4.0,53,0.00,,SKC,0.00,VWS V14.01,2013-11-15 00:27:00,
2013-11-14 18:28:00,40.6,24.9,29.85,SSE,166,0.0,6.4,53,0.00,,SKC,0.00,VWS V14.01,2013-11-15 00:28:00,
2013-11-14 18:29:00,40.5,24.7,29.85,South,187,0.0,0.0,53,0.00,,SKC,0.00,VWS V14.01,2013-11-15 00:29:00,
2013-11-14 18:30:00,40.5,25.1,29.85,South,170,4.8,4.8,54,0.00,,SKC,0.00,VWS V14.01,2013-11-15 00:30:00,
2013-11-14 18:31:00,40.5,25.1,29.85,South,170,0.0,4.8,54,0.00,,SKC,0.00,VWS V14.01,2013-11-15 00:31:00,
2013-11-14 18:32:00,40.5,25.1,29.85,South,171,0.0,0.0,54,0.00,,SKC,0.00,VWS V14.01,2013-11-15 00:32:00,
2013-11-14 18:33:00,40.3,25.0,29.85,South,171,0.0,0.0,54,0.00,,SKC,0.00,VWS V14.01,2013-11-15 00:33:00,
2013-11-14 18:34:00,40.3,25.0,29.85,SSE,167,0.0,0.0,54,0.00,,SKC,0.00,VWS V14.01,2013-11-15 00:34:00,
2013-11-14 18:35:00,40.3,25.0,29.85,SSE,166,0.0,0.0,54,0.00,,SKC,0.00,VWS V14.01,2013-11-15 00:35:00,
2013-11-14 18:36:00,40.1,24.8,29.85,SSE,166,0.0,0.0,54,0.00,,SKC,0.00,VWS V14.01,2013-11-15 00:36:00,
2013-11-14 18:37:00,40.1,24.8,29.85,SW,226,5.6,5.6,54,0.00,,SKC,0.00,VWS V14.01,2013-11-15 00:37:00,
2013-11-14 18:38:00,40.1,24.8,29.85,SSW,205,0.0,5.6,54,0.00,,SKC,0.00,VWS V14.01,2013-11-15 00:38:00,
2013-11-14 18:39:00,39.9,24.6,29.85,SSW,204,0.0,0.0,54,0.00,,SKC,0.00,VWS V14.01,2013-11-15 00:39:00,
2013-11-14 18:40:00,39.9,24.6,29.85,SSW,192,0.0,4.8,54,0.00,,SKC,0.00,VWS V14.01,2013-11-15 00:40:00,
2013-11-14 18:41:00,39.9,25.1,29.88,SSW,192,0.0,0.0,55,0.00,,SKC,0.00,VWS V14.01,2013-11-15 00:41:00,
2013-11-14 18:42:00,39.9,25.1,29.88,South,186,0.0,0.0,55,0.00,,SKC,0.00,VWS V14.01,2013-11-15 00:42:00,
2013-11-14 18:43:00,39.9,25.1,29.88,South,183,0.0,0.0,55,0.00,,SKC,0.00,VWS V14.01,2013-11-15 00:43:00,
2013-11-14 18:44:00,39.7,24.9,29.88,South,174,0.0,0.0,55,0.00,,SKC,0.00,VWS V14.01,2013-11-15 00:44:00,
2013-11-14 18:45:00,39.7,24.9,29.88,South,174,0.0,0.0,55,0.00,,SKC,0.00,VWS V14.01,2013-11-15 00:45:00,
2013-11-14 18:46:00,39.9,25.5,29.88,South,176,0.0,0.0,56,0.00,,SKC,0.00,VWS V14.01,2013-11-15 00:46:00,
2013-11-14 18:47:00,39.7,25.3,29.88,SSE,165,0.0,0.0,56,0.00,,SKC,0.00,VWS V14.01,2013-11-15 00:47:00,
2013-11-14 18:48:00,39.7,25.3,29.88,SSE,167,0.0,0.0,56,0.00,,SKC,0.00,VWS V14.01,2013-11-15 00:48:00,
2013-11-14 18:49:00,39.7,25.3,29.88,SSE,167,0.0,0.0,56,0.00,,SKC,0.00,VWS V14.01,2013-11-15 00:49:00,
2013-11-14 18:50:00,39.6,25.2,29.88,South,172,0.0,0.0,56,0.00,,SKC,0.00,VWS V14.01,2013-11-15 00:50:00,
2013-11-14 18:51:00,39.6,25.2,29.88,South,172,0.0,0.0,56,0.00,,SKC,0.00,VWS V14.01,2013-11-15 00:51:00,
2013-11-14 18:52:00,39.6,25.2,29.88,South,184,0.0,0.0,56,0.00,,SKC,0.00,VWS V14.01,2013-11-15 00:52:00,
2013-11-14 18:53:00,39.6,25.2,29.88,South,190,0.0,0.0,56,0.00,,SKC,0.00,VWS V14.01,2013-11-15 00:53:00,
2013-11-14 18:54:00,39.6,25.6,29.88,South,188,0.0,0.0,57,0.00,,SKC,0.00,VWS V14.01,2013-11-15 00:54:00,
2013-11-14 18:55:00,39.4,25.4,29.88,SSE,163,0.0,0.0,57,0.00,,SKC,0.00,VWS V14.01,2013-11-15 00:55:00,
2013-11-14 18:56:00,39.4,25.0,29.85,South,175,0.0,0.0,56,0.00,,SKC,0.00,VWS V14.01,2013-11-15 00:56:00,
2013-11-14 18:57:00,39.4,25.0,29.85,South,175,0.0,0.0,56,0.00,,SKC,0.00,VWS V14.01,2013-11-15 00:57:00,
2013-11-14 18:58:00,39.2,24.8,29.85,South,175,0.0,0.0,56,0.00,,SKC,0.00,VWS V14.01,2013-11-15 00:58:00,
2013-11-14 18:59:00,39.2,25.3,29.85,SSE,154,0.0,0.0,57,0.00,,SKC,0.00,VWS V14.01,2013-11-15 00:59:00,
2013-11-14 19:01:00,39.2,25.3,29.85,SSE,154,0.0,0.0,57,0.00,,SKC,0.00,VWS V14.01,2013-11-15 01:01:00,
2013-11-14 19:02:00,39.0,25.1,29.85,SE,142,0.0,0.0,57,0.00,,SKC,0.00,VWS V14.01,2013-11-15 01:02:00,
2013-11-14 19:03:00,39.2,25.3,29.85,South,171,0.0,0.0,57,0.00,,SKC,0.00,VWS V14.01,2013-11-15 01:03:00,
2013-11-14 19:04:00,39.0,25.1,29.85,SSE,159,0.0,0.0,57,0.00,,SKC,0.00,VWS V14.01,2013-11-15 01:04:00,
2013-11-14 19:05:00,39.0,25.1,29.85,South,176,0.0,0.0,57,0.00,,SKC,0.00,VWS V14.01,2013-11-15 01:05:00,
2013-11-14 19:06:00,38.8,25.3,29.85,South,176,0.0,0.0,58,0.00,,SKC,0.00,VWS V14.01,2013-11-15 01:06:00,
2013-11-14 19:07:00,38.8,25.3,29.85,South,176,0.0,0.0,58,0.00,,SKC,0.00,VWS V14.01,2013-11-15 01:07:00,
2013-11-14 19:08:00,38.7,25.2,29.85,South,176,0.0,0.0,58,0.00,,SKC,0.00,VWS V14.01,2013-11-15 01:08:00,
2013-11-14 19:09:00,38.7,25.2,29.85,SSE,163,0.0,0.0,58,0.00,,SKC,0.00,VWS V14.01,2013-11-15 01:09:00,
2013-11-14 19:10:00,38.7,25.2,29.85,SSE,163,0.0,0.0,58,0.00,,SKC,0.00,VWS V14.01,2013-11-15 01:10:00,
2013-11-14 19:11:00,38.7,25.2,29.85,SSE,163,0.0,0.0,58,0.00,,SKC,0.00,VWS V14.01,2013-11-15 01:11:00,
2013-11-14 19:12:00,38.5,25.0,29.85,South,190,0.0,6.4,58,0.00,,SKC,0.00,VWS V14.01,2013-11-15 01:12:00,
2013-11-14 19:13:00,38.5,25.0,29.85,South,189,0.0,0.0,58,0.00,,SKC,0.00,VWS V14.01,2013-11-15 01:13:00,
2013-11-14 19:14:00,38.5,25.0,29.85,SSW,198,4.8,4.8,58,0.00,,SKC,0.00,VWS V14.01,2013-11-15 01:14:00,
2013-11-14 19:15:00,38.5,25.0,29.85,South,187,4.8,4.8,58,0.00,,SKC,0.00,VWS V14.01,2013-11-15 01:15:00,
2013-11-14 19:16:00,38.3,24.8,29.85,South,187,0.0,4.8,58,0.00,,SKC,0.00,VWS V14.01,2013-11-15 01:16:00,
2013-11-14 19:17:00,38.3,24.8,29.85,South,187,0.0,0.0,58,0.00,,SKC,0.00,VWS V14.01,2013-11-15 01:17:00,
2013-11-14 19:18:00,38.3,24.8,29.85,South,187,0.0,0.0,58,0.00,,SKC,0.00,VWS V14.01,2013-11-15 01:18:00,
2013-11-14 19:19:00,38.1,24.7,29.85,South,187,0.0,0.0,58,0.00,,SKC,0.00,VWS V14.01,2013-11-15 01:19:00,
2013-11-14 19:20:00,38.1,24.7,29.85,South,187,0.0,0.0,58,0.00,,SKC,0.00,VWS V14.01,2013-11-15 01:20:00,
2013-11-14 19:21:00,38.1,24.7,29.85,South,187,0.0,0.0,58,0.00,,SKC,0.00,VWS V14.01,2013-11-15 01:21:00,
2013-11-14 19:22:00,38.1,24.7,29.85,South,187,0.0,0.0,58,0.00,,SKC,0.00,VWS V14.01,2013-11-15 01:22:00,
2013-11-14 19:23:00,38.1,24.7,29.85,South,187,0.0,0.0,58,0.00,,SKC,0.00,VWS V14.01,2013-11-15 01:23:00,
2013-11-14 19:24:00,38.1,25.1,29.85,South,187,0.0,0.0,59,0.00,,SKC,0.00,VWS V14.01,2013-11-15 01:24:00,
2013-11-14 19:25:00,38.1,25.1,29.85,South,187,0.0,0.0,59,0.00,,SKC,0.00,VWS V14.01,2013-11-15 01:25:00,
2013-11-14 19:26:00,38.1,25.1,29.85,South,187,0.0,0.0,59,0.00,,SKC,0.00,VWS V14.01,2013-11-15 01:26:00,
2013-11-14 19:27:00,37.9,24.9,29.85,South,187,0.0,0.0,59,0.00,,SKC,0.00,VWS V14.01,2013-11-15 01:27:00,
2013-11-14 19:28:00,37.9,24.9,29.85,South,187,0.0,0.0,59,0.00,,SKC,0.00,VWS V14.01,2013-11-15 01:28:00,
2013-11-14 19:29:00,37.9,24.9,29.85,South,183,0.0,4.0,59,0.00,,SKC,0.00,VWS V14.01,2013-11-15 01:29:00,
2013-11-14 19:30:00,37.8,24.7,29.85,South,182,4.0,4.8,59,0.00,,SKC,0.00,VWS V14.01,2013-11-15 01:30:00,
2013-11-14 19:31:00,37.8,24.7,29.85,South,175,0.0,4.0,59,0.00,,SKC,0.00,VWS V14.01,2013-11-15 01:31:00,
2013-11-14 19:32:00,37.8,24.7,29.85,South,191,0.0,4.0,59,0.00,,SKC,0.00,VWS V14.01,2013-11-15 01:32:00,
2013-11-14 19:33:00,37.6,24.6,29.85,South,190,0.0,0.0,59,0.00,,SKC,0.00,VWS V14.01,2013-11-15 01:33:00,
2013-11-14 19:34:00,37.6,24.6,29.85,South,190,0.0,0.0,59,0.00,,SKC,0.00,VWS V14.01,2013-11-15 01:34:00,
2013-11-14 19:35:00,37.6,24.6,29.85,South,190,0.0,0.0,59,0.00,,SKC,0.00,VWS V14.01,2013-11-15 01:35:00,
2013-11-14 19:36:00,37.6,24.6,29.85,South,190,0.0,0.0,59,0.00,,SKC,0.00,VWS V14.01,2013-11-15 01:36:00,
2013-11-14 19:37:00,37.6,24.6,29.85,South,190,0.0,0.0,59,0.00,,SKC,0.00,VWS V14.01,2013-11-15 01:37:00,
2013-11-14 19:38:00,37.6,24.6,29.85,South,190,0.0,0.0,59,0.00,,SKC,0.00,VWS V14.01,2013-11-15 01:38:00,
2013-11-14 19:39:00,37.6,25.0,29.85,South,189,0.0,0.0,60,0.00,,SKC,0.00,VWS V14.01,2013-11-15 01:39:00,
2013-11-14 19:40:00,37.6,25.0,29.85,South,183,4.8,4.8,60,0.00,,SKC,0.00,VWS V14.01,2013-11-15 01:40:00,
2013-11-14 19:41:00,37.6,25.0,29.85,South,183,0.0,4.8,60,0.00,,SKC,0.00,VWS V14.01,2013-11-15 01:41:00,
2013-11-14 19:42:00,37.6,25.0,29.85,South,183,0.0,0.0,60,0.00,,SKC,0.00,VWS V14.01,2013-11-15 01:42:00,
2013-11-14 19:43:00,37.6,25.0,29.85,South,183,0.0,0.0,60,0.00,,SKC,0.00,VWS V14.01,2013-11-15 01:43:00,
2013-11-14 19:44:00,37.6,25.0,29.85,SSE,167,0.0,0.0,60,0.00,,SKC,0.00,VWS V14.01,2013-11-15 01:44:00,
2013-11-14 19:45:00,37.4,24.8,29.85,SSE,167,0.0,0.0,60,0.00,,SKC,0.00,VWS V14.01,2013-11-15 01:45:00,
2013-11-14 19:46:00,37.4,24.8,29.85,SSE,166,0.0,0.0,60,0.00,,SKC,0.00,VWS V14.01,2013-11-15 01:46:00,
2013-11-14 19:47:00,37.4,24.8,29.85,SSE,166,0.0,0.0,60,0.00,,SKC,0.00,VWS V14.01,2013-11-15 01:47:00,
2013-11-14 19:48:00,37.4,24.8,29.85,SSE,167,0.0,0.0,60,0.00,,SKC,0.00,VWS V14.01,2013-11-15 01:48:00,
2013-11-14 19:49:00,37.4,25.2,29.85,SSE,167,0.0,0.0,61,0.00,,SKC,0.00,VWS V14.01,2013-11-15 01:49:00,
2013-11-14 19:50:00,37.4,25.2,29.85,SSE,167,0.0,0.0,61,0.00,,SKC,0.00,VWS V14.01,2013-11-15 01:50:00,
2013-11-14 19:51:00,37.4,25.2,29.85,SSE,167,0.0,0.0,61,0.00,,SKC,0.00,VWS V14.01,2013-11-15 01:51:00,
2013-11-14 19:52:00,37.2,25.0,29.85,SSE,167,0.0,0.0,61,0.00,,SKC,0.00,VWS V14.01,2013-11-15 01:52:00,
2013-11-14 19:53:00,37.2,25.0,29.85,SSE,167,0.0,0.0,61,0.00,,SKC,0.00,VWS V14.01,2013-11-15 01:53:00,
2013-11-14 19:54:00,37.2,25.0,29.85,SSE,168,0.0,0.0,61,0.00,,SKC,0.00,VWS V14.01,2013-11-15 01:54:00,
2013-11-14 19:55:00,37.0,24.9,29.85,SSE,168,0.0,0.0,61,0.00,,SKC,0.00,VWS V14.01,2013-11-15 01:55:00,
2013-11-14 19:56:00,37.0,24.9,29.85,SSE,168,0.0,0.0,61,0.00,,SKC,0.00,VWS V14.01,2013-11-15 01:56:00,
2013-11-14 19:57:00,37.0,24.9,29.85,SSE,168,0.0,0.0,61,0.00,,SKC,0.00,VWS V14.01,2013-11-15 01:57:00,
2013-11-14 19:58:00,36.9,24.3,29.85,SSE,167,0.0,0.0,60,0.00,,SKC,0.00,VWS V14.01,2013-11-15 01:58:00,
2013-11-14 19:59:00,36.9,24.3,29.85,SSE,167,0.0,0.0,60,0.00,,SKC,0.00,VWS V14.01,2013-11-15 01:59:00,
2013-11-14 20:00:00,36.7,24.1,29.85,SSE,167,0.0,0.0,60,0.00,,SKC,0.00,VWS V14.01,2013-11-15 02:00:00,
2013-11-14 20:01:00,36.7,24.1,29.85,SSE,167,0.0,0.0,60,0.00,,SKC,0.00,VWS V14.01,2013-11-15 02:01:00,
2013-11-14 20:02:00,36.7,24.1,29.85,SSE,167,0.0,0.0,60,0.00,,SKC,0.00,VWS V14.01,2013-11-15 02:02:00,
2013-11-14 20:03:00,36.7,24.1,29.85,SSE,167,0.0,0.0,60,0.00,,SKC,0.00,VWS V14.01,2013-11-15 02:03:00,
2013-11-14 20:04:00,36.7,24.1,29.85,SSE,167,0.0,0.0,60,0.00,,SKC,0.00,VWS V14.01,2013-11-15 02:04:00,
2013-11-14 20:05:00,36.5,24.0,29.85,SSE,167,0.0,0.0,60,0.00,,SKC,0.00,VWS V14.01,2013-11-15 02:05:00,
2013-11-14 20:06:00,36.5,24.0,29.85,SSE,167,0.0,0.0,60,0.00,,SKC,0.00,VWS V14.01,2013-11-15 02:06:00,
2013-11-14 20:07:00,36.3,23.8,29.85,SSE,167,0.0,0.0,60,0.00,,SKC,0.00,VWS V14.01,2013-11-15 02:07:00,
2013-11-14 20:08:00,36.3,23.8,29.85,SSE,167,0.0,0.0,60,0.00,,SKC,0.00,VWS V14.01,2013-11-15 02:08:00,
2013-11-14 20:09:00,36.3,23.8,29.85,SSE,167,0.0,0.0,60,0.00,,SKC,0.00,VWS V14.01,2013-11-15 02:09:00,
2013-11-14 20:10:00,36.3,23.8,29.85,SSE,167,0.0,0.0,60,0.00,,SKC,0.00,VWS V14.01,2013-11-15 02:10:00,
2013-11-14 20:11:00,36.1,23.6,29.85,SSE,167,0.0,0.0,60,0.00,,SKC,0.00,VWS V14.01,2013-11-15 02:11:00,
2013-11-14 20:12:00,36.1,23.6,29.88,SSE,167,0.0,0.0,60,0.00,,SKC,0.00,VWS V14.01,2013-11-15 02:12:00,
2013-11-14 20:13:00,36.1,23.6,29.88,SSE,167,0.0,0.0,60,0.00,,SKC,0.00,VWS V14.01,2013-11-15 02:13:00,
2013-11-14 20:14:00,36.1,23.6,29.88,SSE,167,0.0,0.0,60,0.00,,SKC,0.00,VWS V14.01,2013-11-15 02:14:00,
2013-11-14 20:15:00,36.0,23.4,29.88,SSE,167,0.0,0.0,60,0.00,,SKC,0.00,VWS V14.01,2013-11-15 02:15:00,
2013-11-14 20:16:00,36.0,23.4,29.88,SSE,167,0.0,0.0,60,0.00,,SKC,0.00,VWS V14.01,2013-11-15 02:16:00,
2013-11-14 20:17:00,35.8,23.3,29.88,SSE,167,0.0,0.0,60,0.00,,SKC,0.00,VWS V14.01,2013-11-15 02:17:00,
2013-11-14 20:18:00,35.8,23.3,29.88,SSE,167,0.0,0.0,60,0.00,,SKC,0.00,VWS V14.01,2013-11-15 02:18:00,
2013-11-14 20:19:00,35.8,23.3,29.88,SSE,167,0.0,0.0,60,0.00,,SKC,0.00,VWS V14.01,2013-11-15 02:19:00,
2013-11-14 20:20:00,35.8,23.3,29.88,SSE,167,0.0,0.0,60,0.00,,SKC,0.00,VWS V14.01,2013-11-15 02:20:00,
2013-11-14 20:21:00,35.8,23.3,29.88,SSE,167,0.0,0.0,60,0.00,,SKC,0.00,VWS V14.01,2013-11-15 02:21:00,
2013-11-14 20:22:00,35.6,23.1,29.88,SSE,167,0.0,0.0,60,0.00,,SKC,0.00,VWS V14.01,2013-11-15 02:22:00,
2013-11-14 20:23:00,35.6,23.1,29.88,SSE,167,0.0,0.0,60,0.00,,SKC,0.00,VWS V14.01,2013-11-15 02:23:00,
2013-11-14 20:24:00,35.6,23.1,29.88,SSE,167,0.0,0.0,60,0.00,,SKC,0.00,VWS V14.01,2013-11-15 02:24:00,
2013-11-14 20:25:00,35.6,23.1,29.88,SSE,167,0.0,0.0,60,0.00,,SKC,0.00,VWS V14.01,2013-11-15 02:25:00,
2013-11-14 20:26:00,35.6,23.1,29.88,SSE,167,0.0,0.0,60,0.00,,SKC,0.00,VWS V14.01,2013-11-15 02:26:00,
2013-11-14 20:27:00,35.6,23.1,29.88,SSE,167,0.0,0.0,60,0.00,,SKC,0.00,VWS V14.01,2013-11-15 02:27:00,
2013-11-14 20:28:00,35.6,23.1,29.88,SSE,167,0.0,0.0,60,0.00,,SKC,0.00,VWS V14.01,2013-11-15 02:28:00,
2013-11-14 20:29:00,35.4,23.3,29.88,SSE,167,0.0,0.0,61,0.00,,SKC,0.00,VWS V14.01,2013-11-15 02:29:00,
2013-11-14 20:30:00,35.4,23.3,29.88,SSE,167,0.0,0.0,61,0.00,,SKC,0.00,VWS V14.01,2013-11-15 02:30:00,
2013-11-14 20:31:00,35.4,23.3,29.88,SSE,167,0.0,0.0,61,0.00,,SKC,0.00,VWS V14.01,2013-11-15 02:31:00,
2013-11-14 20:32:00,35.4,23.3,29.88,SSE,167,0.0,0.0,61,0.00,,SKC,0.00,VWS V14.01,2013-11-15 02:32:00,
2013-11-14 20:33:00,35.4,23.3,29.88,SSE,167,0.0,0.0,61,0.00,,SKC,0.00,VWS V14.01,2013-11-15 02:33:00,
2013-11-14 20:34:00,35.2,23.1,29.88,SSE,167,0.0,0.0,61,0.00,,SKC,0.00,VWS V14.01,2013-11-15 02:34:00,
2013-11-14 20:35:00,35.2,23.1,29.88,SSE,167,0.0,0.0,61,0.00,,SKC,0.00,VWS V14.01,2013-11-15 02:35:00,
2013-11-14 20:36:00,35.1,23.0,29.88,SSE,167,0.0,0.0,61,0.00,,SKC,0.00,VWS V14.01,2013-11-15 02:36:00,
2013-11-14 20:37:00,35.1,23.0,29.88,SSE,167,0.0,0.0,61,0.00,,SKC,0.00,VWS V14.01,2013-11-15 02:37:00,
2013-11-14 20:38:00,35.1,23.0,29.88,SSE,167,0.0,0.0,61,0.00,,SKC,0.00,VWS V14.01,2013-11-15 02:38:00,
2013-11-14 20:39:00,35.1,23.0,29.88,SSE,167,0.0,0.0,61,0.00,,SKC,0.00,VWS V14.01,2013-11-15 02:39:00,
2013-11-14 20:40:00,35.1,23.0,29.88,SSE,167,0.0,0.0,61,0.00,,SKC,0.00,VWS V14.01,2013-11-15 02:40:00,
2013-11-14 20:41:00,34.9,22.8,29.88,SSE,167,0.0,0.0,61,0.00,,SKC,0.00,VWS V14.01,2013-11-15 02:41:00,
2013-11-14 20:42:00,34.9,23.2,29.88,SSE,167,0.0,0.0,62,0.00,,SKC,0.00,VWS V14.01,2013-11-15 02:42:00,
2013-11-14 20:43:00,34.9,23.2,29.88,SSE,167,0.0,0.0,62,0.00,,SKC,0.00,VWS V14.01,2013-11-15 02:43:00,
2013-11-14 20:44:00,34.9,23.2,29.88,SSE,167,0.0,0.0,62,0.00,,SKC,0.00,VWS V14.01,2013-11-15 02:44:00,
2013-11-14 20:45:00,34.9,23.2,29.88,SSE,167,0.0,0.0,62,0.00,,SKC,0.00,VWS V14.01,2013-11-15 02:45:00,
2013-11-14 20:46:00,34.9,23.2,29.88,SSE,167,0.0,0.0,62,0.00,,SKC,0.00,VWS V14.01,2013-11-15 02:46:00,
2013-11-14 20:47:00,34.9,23.2,29.88,SSE,167,0.0,0.0,62,0.00,,SKC,0.00,VWS V14.01,2013-11-15 02:47:00,
2013-11-14 20:48:00,34.7,22.6,29.88,SSE,167,0.0,0.0,61,0.00,,SKC,0.00,VWS V14.01,2013-11-15 02:48:00,
2013-11-14 20:49:00,34.7,22.6,29.88,SSE,167,0.0,0.0,61,0.00,,SKC,0.00,VWS V14.01,2013-11-15 02:49:00,
2013-11-14 20:50:00,34.7,22.6,29.88,SSE,167,0.0,0.0,61,0.00,,SKC,0.00,VWS V14.01,2013-11-15 02:50:00,
2013-11-14 20:51:00,34.7,22.6,29.88,SSE,167,0.0,0.0,61,0.00,,SKC,0.00,VWS V14.01,2013-11-15 02:51:00,
2013-11-14 20:52:00,34.5,22.5,29.88,SSE,167,0.0,0.0,61,0.00,,SKC,0.00,VWS V14.01,2013-11-15 02:52:00,
2013-11-14 20:53:00,34.5,22.5,29.88,SSE,167,0.0,0.0,61,0.00,,SKC,0.00,VWS V14.01,2013-11-15 02:53:00,
2013-11-14 20:54:00,34.5,22.9,29.88,SSE,167,0.0,0.0,62,0.00,,SKC,0.00,VWS V14.01,2013-11-15 02:54:00,
2013-11-14 20:55:00,34.5,22.9,29.88,SSE,167,0.0,0.0,62,0.00,,SKC,0.00,VWS V14.01,2013-11-15 02:55:00,
2013-11-14 20:56:00,34.5,22.9,29.88,SSE,167,0.0,0.0,62,0.00,,SKC,0.00,VWS V14.01,2013-11-15 02:56:00,
2013-11-14 20:57:00,34.3,22.7,29.88,SSE,167,0.0,0.0,62,0.00,,SKC,0.00,VWS V14.01,2013-11-15 02:57:00,
2013-11-14 20:58:00,34.3,22.7,29.88,SSE,167,0.0,0.0,62,0.00,,SKC,0.00,VWS V14.01,2013-11-15 02:58:00,
2013-11-14 20:59:00,34.3,22.3,29.88,SSE,167,0.0,0.0,61,0.00,,SKC,0.00,VWS V14.01,2013-11-15 02:59:00,
2013-11-14 21:00:00,34.2,22.1,29.88,SSE,167,0.0,0.0,61,0.00,,SKC,0.00,VWS V14.01,2013-11-15 03:00:00,
2013-11-14 21:01:00,34.2,22.1,29.88,SSE,167,0.0,0.0,61,0.00,,SKC,0.00,VWS V14.01,2013-11-15 03:01:00,
2013-11-14 21:02:00,34.2,22.1,29.88,SSE,167,0.0,0.0,61,0.00,,SKC,0.00,VWS V14.01,2013-11-15 03:02:00,
2013-11-14 21:04:00,34.2,22.1,29.88,SSE,167,0.0,0.0,61,0.00,,SKC,0.00,VWS V14.01,2013-11-15 03:04:00,
2013-11-14 21:05:00,34.0,22.0,29.88,SSE,167,0.0,0.0,61,0.00,,SKC,0.00,VWS V14.01,2013-11-15 03:05:00,
2013-11-14 21:06:00,34.0,22.0,29.88,SSE,167,0.0,0.0,61,0.00,,SKC,0.00,VWS V14.01,2013-11-15 03:06:00,
2013-11-14 21:07:00,34.0,22.0,29.88,SSE,167,0.0,0.0,61,0.00,,SKC,0.00,VWS V14.01,2013-11-15 03:07:00,
2013-11-14 21:08:00,34.0,22.0,29.88,SSE,167,0.0,0.0,61,0.00,,SKC,0.00,VWS V14.01,2013-11-15 03:08:00,
2013-11-14 21:09:00,33.8,22.2,29.88,SSE,167,0.0,0.0,62,0.00,,SKC,0.00,VWS V14.01,2013-11-15 03:09:00,
2013-11-14 21:10:00,33.8,22.2,29.88,SSE,167,0.0,0.0,62,0.00,,SKC,0.00,VWS V14.01,2013-11-15 03:10:00,
2013-11-14 21:11:00,33.8,22.2,29.88,SSE,167,0.0,0.0,62,0.00,,SKC,0.00,VWS V14.01,2013-11-15 03:11:00,
2013-11-14 21:12:00,33.8,22.2,29.88,SSE,167,0.0,0.0,62,0.00,,SKC,0.00,VWS V14.01,2013-11-15 03:12:00,
2013-11-14 21:13:00,33.8,22.2,29.88,SSE,167,0.0,0.0,62,0.00,,SKC,0.00,VWS V14.01,2013-11-15 03:13:00,
2013-11-14 21:14:00,33.8,22.2,29.88,SSE,167,0.0,0.0,62,0.00,,SKC,0.00,VWS V14.01,2013-11-15 03:14:00,
2013-11-14 21:15:00,33.8,22.2,29.88,SSE,167,0.0,0.0,62,0.00,,SKC,0.00,VWS V14.01,2013-11-15 03:15:00,
2013-11-14 21:16:00,33.6,22.0,29.88,SSE,167,0.0,0.0,62,0.00,,SKC,0.00,VWS V14.01,2013-11-15 03:16:00,
2013-11-14 21:17:00,33.8,22.2,29.88,SSE,167,0.0,0.0,62,0.00,,SKC,0.00,VWS V14.01,2013-11-15 03:17:00,
2013-11-14 21:18:00,33.8,22.2,29.88,SSE,167,0.0,0.0,62,0.00,,SKC,0.00,VWS V14.01,2013-11-15 03:18:00,
2013-11-14 21:19:00,33.8,22.5,29.88,SSE,167,0.0,0.0,63,0.00,,SKC,0.00,VWS V14.01,2013-11-15 03:19:00,
2013-11-14 21:20:00,33.8,22.5,29.88,SSE,167,0.0,0.0,63,0.00,,SKC,0.00,VWS V14.01,2013-11-15 03:20:00,
2013-11-14 21:21:00,33.8,22.5,29.88,SSE,167,0.0,0.0,63,0.00,,SKC,0.00,VWS V14.01,2013-11-15 03:21:00,
2013-11-14 21:22:00,33.8,22.5,29.88,SSE,167,0.0,0.0,63,0.00,,SKC,0.00,VWS V14.01,2013-11-15 03:22:00,
2013-11-14 21:23:00,33.8,22.5,29.88,SSE,167,0.0,0.0,63,0.00,,SKC,0.00,VWS V14.01,2013-11-15 03:23:00,
2013-11-14 21:24:00,33.8,22.5,29.88,SSE,167,0.0,0.0,63,0.00,,SKC,0.00,VWS V14.01,2013-11-15 03:24:00,
2013-11-14 21:25:00,33.8,22.5,29.88,SSE,167,0.0,0.0,63,0.00,,SKC,0.00,VWS V14.01,2013-11-15 03:25:00,
2013-11-14 21:26:00,33.8,22.5,29.88,SSE,167,0.0,0.0,63,0.00,,SKC,0.00,VWS V14.01,2013-11-15 03:26:00,
2013-11-14 21:27:00,33.8,22.9,29.88,SSE,167,0.0,0.0,64,0.00,,SKC,0.00,VWS V14.01,2013-11-15 03:27:00,
2013-11-14 21:28:00,33.8,22.9,29.88,SSE,167,0.0,0.0,64,0.00,,SKC,0.00,VWS V14.01,2013-11-15 03:28:00,
2013-11-14 21:29:00,33.8,22.9,29.88,SSE,167,0.0,0.0,64,0.00,,SKC,0.00,VWS V14.01,2013-11-15 03:29:00,
2013-11-14 21:30:00,33.8,22.9,29.88,SSE,167,0.0,0.0,64,0.00,,SKC,0.00,VWS V14.01,2013-11-15 03:30:00,
2013-11-14 21:31:00,33.8,22.9,29.88,SSE,167,0.0,0.0,64,0.00,,SKC,0.00,VWS V14.01,2013-11-15 03:31:00,
2013-11-14 21:32:00,33.8,22.9,29.88,SSE,167,0.0,0.0,64,0.00,,SKC,0.00,VWS V14.01,2013-11-15 03:32:00,
2013-11-14 21:33:00,33.8,22.9,29.88,SSE,167,0.0,0.0,64,0.00,,SKC,0.00,VWS V14.01,2013-11-15 03:33:00,
2013-11-14 21:34:00,33.8,22.9,29.88,SSE,167,0.0,0.0,64,0.00,,SKC,0.00,VWS V14.01,2013-11-15 03:34:00,
2013-11-14 21:35:00,33.8,22.9,29.88,SSE,167,0.0,0.0,64,0.00,,SKC,0.00,VWS V14.01,2013-11-15 03:35:00,
2013-11-14 21:36:00,33.8,22.9,29.88,SSE,167,0.0,0.0,64,0.00,,SKC,0.00,VWS V14.01,2013-11-15 03:36:00,
2013-11-14 21:37:00,33.8,22.9,29.88,SSE,167,0.0,0.0,64,0.00,,SKC,0.00,VWS V14.01,2013-11-15 03:37:00,
2013-11-14 21:38:00,33.6,22.8,29.88,SSE,167,0.0,0.0,64,0.00,,SKC,0.00,VWS V14.01,2013-11-15 03:38:00,
2013-11-14 21:39:00,33.6,22.8,29.88,SSE,167,0.0,0.0,64,0.00,,SKC,0.00,VWS V14.01,2013-11-15 03:39:00,
2013-11-14 21:40:00,33.6,22.8,29.88,SSE,167,0.0,0.0,64,0.00,,SKC,0.00,VWS V14.01,2013-11-15 03:40:00,
2013-11-14 21:41:00,33.6,22.8,29.88,SSE,167,0.0,0.0,64,0.00,,SKC,0.00,VWS V14.01,2013-11-15 03:41:00,
2013-11-14 21:42:00,33.6,22.8,29.88,SSE,167,0.0,0.0,64,0.00,,SKC,0.00,VWS V14.01,2013-11-15 03:42:00,
2013-11-14 21:43:00,33.6,22.8,29.88,SSE,167,0.0,0.0,64,0.00,,SKC,0.00,VWS V14.01,2013-11-15 03:43:00,
2013-11-14 21:44:00,33.6,22.8,29.88,SSE,167,0.0,0.0,64,0.00,,SKC,0.00,VWS V14.01,2013-11-15 03:44:00,
2013-11-14 21:45:00,33.4,22.6,29.88,SSE,167,0.0,0.0,64,0.00,,SKC,0.00,VWS V14.01,2013-11-15 03:45:00,
2013-11-14 21:46:00,33.4,22.6,29.88,SSE,167,0.0,0.0,64,0.00,,SKC,0.00,VWS V14.01,2013-11-15 03:46:00,
2013-11-14 21:47:00,33.4,22.6,29.88,SSE,167,0.0,0.0,64,0.00,,SKC,0.00,VWS V14.01,2013-11-15 03:47:00,
2013-11-14 21:48:00,33.4,23.0,29.88,SSE,167,0.0,0.0,65,0.00,,SKC,0.00,VWS V14.01,2013-11-15 03:48:00,
2013-11-14 21:49:00,33.4,23.0,29.88,SSE,167,0.0,0.0,65,0.00,,SKC,0.00,VWS V14.01,2013-11-15 03:49:00,
2013-11-14 21:50:00,33.4,23.0,29.88,SSE,167,0.0,0.0,65,0.00,,SKC,0.00,VWS V14.01,2013-11-15 03:50:00,
2013-11-14 21:51:00,33.4,23.0,29.88,SSE,167,0.0,0.0,65,0.00,,SKC,0.00,VWS V14.01,2013-11-15 03:51:00,
2013-11-14 21:52:00,33.3,22.8,29.88,SSE,167,0.0,0.0,65,0.00,,SKC,0.00,VWS V14.01,2013-11-15 03:52:00,
2013-11-14 21:53:00,33.3,22.8,29.88,SSE,167,0.0,0.0,65,0.00,,SKC,0.00,VWS V14.01,2013-11-15 03:53:00,
2013-11-14 21:54:00,33.3,22.8,29.88,SSE,167,0.0,0.0,65,0.00,,SKC,0.00,VWS V14.01,2013-11-15 03:54:00,
2013-11-14 21:55:00,33.3,23.1,29.88,SSE,167,0.0,0.0,66,0.00,,SKC,0.00,VWS V14.01,2013-11-15 03:55:00,
2013-11-14 21:56:00,33.3,23.1,29.88,SSE,167,0.0,0.0,66,0.00,,SKC,0.00,VWS V14.01,2013-11-15 03:56:00,
2013-11-14 21:57:00,33.3,23.1,29.88,SSE,167,0.0,0.0,66,0.00,,SKC,0.00,VWS V14.01,2013-11-15 03:57:00,
2013-11-14 21:59:00,33.3,23.1,29.88,SSE,167,0.0,0.0,66,0.00,,SKC,0.00,VWS V14.01,2013-11-15 03:59:00,
2013-11-14 22:00:00,33.3,23.1,29.88,SSE,167,0.0,0.0,66,0.00,,SKC,0.00,VWS V14.01,2013-11-15 04:00:00,
2013-11-14 22:01:00,33.3,23.1,29.88,SSE,167,0.0,0.0,66,0.00,,SKC,0.00,VWS V14.01,2013-11-15 04:01:00,
2013-11-14 22:02:00,33.3,23.1,29.88,SSE,167,0.0,0.0,66,0.00,,SKC,0.00,VWS V14.01,2013-11-15 04:02:00,
2013-11-14 22:03:00,33.3,23.1,29.88,SSE,167,0.0,0.0,66,0.00,,SKC,0.00,VWS V14.01,2013-11-15 04:03:00,
2013-11-14 22:05:00,33.3,23.1,29.88,SSE,167,0.0,0.0,66,0.00,,SKC,0.00,VWS V14.01,2013-11-15 04:05:00,
2013-11-14 22:06:00,33.3,23.1,29.88,SSE,167,0.0,0.0,66,0.00,,SKC,0.00,VWS V14.01,2013-11-15 04:06:00,
2013-11-14 22:07:00,33.3,23.1,29.88,SSE,167,0.0,0.0,66,0.00,,SKC,0.00,VWS V14.01,2013-11-15 04:07:00,
2013-11-14 22:08:00,33.1,23.0,29.88,SSE,167,0.0,0.0,66,0.00,,SKC,0.00,VWS V14.01,2013-11-15 04:08:00,
2013-11-14 22:09:00,33.1,23.0,29.88,SSE,167,0.0,0.0,66,0.00,,SKC,0.00,VWS V14.01,2013-11-15 04:09:00,
2013-11-14 22:10:00,33.1,23.0,29.88,SSE,167,0.0,0.0,66,0.00,,SKC,0.00,VWS V14.01,2013-11-15 04:10:00,
2013-11-14 22:11:00,33.1,23.0,29.88,SSE,167,0.0,0.0,66,0.00,,SKC,0.00,VWS V14.01,2013-11-15 04:11:00,
2013-11-14 22:12:00,33.1,23.0,29.88,SSE,167,0.0,0.0,66,0.00,,SKC,0.00,VWS V14.01,2013-11-15 04:12:00,
2013-11-14 22:13:00,33.1,23.0,29.88,SSE,167,0.0,0.0,66,0.00,,SKC,0.00,VWS V14.01,2013-11-15 04:13:00,
2013-11-14 22:14:00,33.1,23.0,29.88,SSE,167,0.0,0.0,66,0.00,,SKC,0.00,VWS V14.01,2013-11-15 04:14:00,
2013-11-14 22:15:00,33.1,23.0,29.88,SSE,167,0.0,0.0,66,0.00,,SKC,0.00,VWS V14.01,2013-11-15 04:15:00,
2013-11-14 22:16:00,33.3,23.1,29.88,SSE,167,0.0,0.0,66,0.00,,SKC,0.00,VWS V14.01,2013-11-15 04:16:00,
2013-11-14 22:17:00,33.1,23.0,29.88,SSE,167,0.0,0.0,66,0.00,,SKC,0.00,VWS V14.01,2013-11-15 04:17:00,
2013-11-14 22:18:00,33.1,23.0,29.88,SSE,167,0.0,0.0,66,0.00,,SKC,0.00,VWS V14.01,2013-11-15 04:18:00,
2013-11-14 22:19:00,33.1,23.0,29.88,SSE,167,0.0,0.0,66,0.00,,SKC,0.00,VWS V14.01,2013-11-15 04:19:00,
2013-11-14 22:20:00,33.1,23.3,29.88,SSE,167,0.0,0.0,67,0.00,,SKC,0.00,VWS V14.01,2013-11-15 04:20:00,
2013-11-14 22:21:00,33.3,23.9,29.88,SSE,167,0.0,0.0,68,0.00,,SKC,0.00,VWS V14.01,2013-11-15 04:21:00,
2013-11-14 22:22:00,33.3,23.9,29.88,SSE,167,0.0,0.0,68,0.00,,SKC,0.00,VWS V14.01,2013-11-15 04:22:00,
2013-11-14 22:23:00,33.3,23.9,29.88,SSE,167,0.0,0.0,68,0.00,,SKC,0.00,VWS V14.01,2013-11-15 04:23:00,
2013-11-14 22:24:00,33.3,23.9,29.88,SSE,167,0.0,0.0,68,0.00,,SKC,0.00,VWS V14.01,2013-11-15 04:24:00,
2013-11-14 22:25:00,33.4,24.4,29.88,SSE,168,0.0,0.0,69,0.00,,SKC,0.00,VWS V14.01,2013-11-15 04:25:00,
2013-11-14 22:26:00,33.4,24.4,29.88,SSW,204,0.0,0.0,69,0.00,,SKC,0.00,VWS V14.01,2013-11-15 04:26:00,
2013-11-14 22:27:00,33.4,24.4,29.88,SSW,204,0.0,0.0,69,0.00,,SKC,0.00,VWS V14.01,2013-11-15 04:27:00,
2013-11-14 22:28:00,33.3,24.2,29.88,SSW,204,0.0,0.0,69,0.00,,SKC,0.00,VWS V14.01,2013-11-15 04:28:00,
2013-11-14 22:29:00,33.3,24.2,29.88,SSW,204,0.0,0.0,69,0.00,,SKC,0.00,VWS V14.01,2013-11-15 04:29:00,
2013-11-14 22:30:00,33.3,24.2,29.88,SSW,204,0.0,0.0,69,0.00,,SKC,0.00,VWS V14.01,2013-11-15 04:30:00,
2013-11-14 22:31:00,33.3,24.2,29.88,SSW,204,0.0,0.0,69,0.00,,SKC,0.00,VWS V14.01,2013-11-15 04:31:00,
2013-11-14 22:32:00,33.3,24.2,29.88,SSW,204,0.0,0.0,69,0.00,,SKC,0.00,VWS V14.01,2013-11-15 04:32:00,
2013-11-14 22:33:00,33.3,24.2,29.88,SSW,204,0.0,0.0,69,0.00,,SKC,0.00,VWS V14.01,2013-11-15 04:33:00,
2013-11-14 22:34:00,33.3,24.2,29.88,SSW,204,0.0,0.0,69,0.00,,SKC,0.00,VWS V14.01,2013-11-15 04:34:00,
2013-11-14 22:35:00,33.1,24.0,29.88,SSW,204,0.0,0.0,69,0.00,,SKC,0.00,VWS V14.01,2013-11-15 04:35:00,
2013-11-14 22:36:00,33.1,24.0,29.88,SSW,204,0.0,0.0,69,0.00,,SKC,0.00,VWS V14.01,2013-11-15 04:36:00,
2013-11-14 22:37:00,33.1,24.0,29.88,SSW,204,0.0,0.0,69,0.00,,SKC,0.00,VWS V14.01,2013-11-15 04:37:00,
2013-11-14 22:38:00,33.1,24.0,29.88,SSW,204,0.0,0.0,69,0.00,,SKC,0.00,VWS V14.01,2013-11-15 04:38:00,
2013-11-14 22:39:00,33.1,24.0,29.88,SSW,204,0.0,0.0,69,0.00,,SKC,0.00,VWS V14.01,2013-11-15 04:39:00,
2013-11-14 22:40:00,33.1,24.0,29.88,SSW,204,0.0,0.0,69,0.00,,SKC,0.00,VWS V14.01,2013-11-15 04:40:00,
2013-11-14 22:41:00,32.9,23.9,29.88,SSW,204,0.0,0.0,69,0.00,,SKC,0.00,VWS V14.01,2013-11-15 04:41:00,
2013-11-14 22:42:00,32.9,23.9,29.88,SSW,204,0.0,0.0,69,0.00,,SKC,0.00,VWS V14.01,2013-11-15 04:42:00,
2013-11-14 22:43:00,32.9,23.9,29.88,SSW,204,0.0,0.0,69,0.00,,SKC,0.00,VWS V14.01,2013-11-15 04:43:00,
2013-11-14 22:44:00,32.9,23.9,29.88,SSW,204,0.0,0.0,69,0.00,,SKC,0.00,VWS V14.01,2013-11-15 04:44:00,
2013-11-14 22:45:00,32.9,23.9,29.88,SSW,204,0.0,0.0,69,0.00,,SKC,0.00,VWS V14.01,2013-11-15 04:45:00,
2013-11-14 22:46:00,32.9,23.9,29.88,SSW,204,0.0,0.0,69,0.00,,SKC,0.00,VWS V14.01,2013-11-15 04:46:00,
2013-11-14 22:47:00,32.7,23.7,29.88,SSW,204,0.0,0.0,69,0.00,,SKC,0.00,VWS V14.01,2013-11-15 04:47:00,
2013-11-14 22:48:00,32.7,23.7,29.88,SSW,204,0.0,0.0,69,0.00,,SKC,0.00,VWS V14.01,2013-11-15 04:48:00,
2013-11-14 22:49:00,32.7,23.7,29.88,SSW,204,0.0,0.0,69,0.00,,SKC,0.00,VWS V14.01,2013-11-15 04:49:00,
2013-11-14 22:50:00,32.7,23.7,29.88,SSW,204,0.0,0.0,69,0.00,,SKC,0.00,VWS V14.01,2013-11-15 04:50:00,
2013-11-14 22:51:00,32.7,23.7,29.88,SSW,204,0.0,0.0,69,0.00,,SKC,0.00,VWS V14.01,2013-11-15 04:51:00,
2013-11-14 22:52:00,32.7,23.7,29.88,SSW,204,0.0,0.0,69,0.00,,SKC,0.00,VWS V14.01,2013-11-15 04:52:00,
2013-11-14 22:53:00,32.7,23.7,29.88,SSW,204,0.0,0.0,69,0.00,,SKC,0.00,VWS V14.01,2013-11-15 04:53:00,
2013-11-14 22:54:00,32.7,23.7,29.88,SSW,204,0.0,0.0,69,0.00,,SKC,0.00,VWS V14.01,2013-11-15 04:54:00,
2013-11-14 22:55:00,32.5,23.5,29.88,SSW,204,0.0,0.0,69,0.00,,SKC,0.00,VWS V14.01,2013-11-15 04:55:00,
2013-11-14 22:56:00,32.5,23.5,29.88,SSW,204,0.0,0.0,69,0.00,,SKC,0.00,VWS V14.01,2013-11-15 04:56:00,
2013-11-14 22:57:00,32.5,23.5,29.88,SSW,204,0.0,0.0,69,0.00,,SKC,0.00,VWS V14.01,2013-11-15 04:57:00,
2013-11-14 22:58:00,32.5,23.5,29.88,SSW,204,0.0,0.0,69,0.00,,SKC,0.00,VWS V14.01,2013-11-15 04:58:00,
2013-11-14 22:59:00,32.5,23.5,29.88,SSW,204,0.0,0.0,69,0.00,,SKC,0.00,VWS V14.01,2013-11-15 04:59:00,
2013-11-14 23:00:00,32.4,23.3,29.88,SSW,204,0.0,0.0,69,0.00,,SKC,0.00,VWS V14.01,2013-11-15 05:00:00,
2013-11-14 23:01:00,32.4,23.3,29.88,SSW,204,0.0,0.0,69,0.00,,SKC,0.00,VWS V14.01,2013-11-15 05:01:00,
2013-11-14 23:02:00,32.4,23.3,29.88,SSW,204,0.0,0.0,69,0.00,,SKC,0.00,VWS V14.01,2013-11-15 05:02:00,
2013-11-14 23:03:00,32.4,23.3,29.88,SSW,204,0.0,0.0,69,0.00,,SKC,0.00,VWS V14.01,2013-11-15 05:03:00,
2013-11-14 23:04:00,32.4,23.7,29.88,SSW,204,0.0,0.0,70,0.00,,SKC,0.00,VWS V14.01,2013-11-15 05:04:00,
2013-11-14 23:05:00,32.4,23.7,29.88,SSW,204,0.0,0.0,70,0.00,,SKC,0.00,VWS V14.01,2013-11-15 05:05:00,
2013-11-14 23:06:00,32.2,23.5,29.88,SSW,204,0.0,0.0,70,0.00,,SKC,0.00,VWS V14.01,2013-11-15 05:06:00,
2013-11-14 23:07:00,32.2,23.5,29.88,SSW,204,0.0,0.0,70,0.00,,SKC,0.00,VWS V14.01,2013-11-15 05:07:00,
2013-11-14 23:08:00,32.2,23.5,29.88,SSW,204,0.0,0.0,70,0.00,,SKC,0.00,VWS V14.01,2013-11-15 05:08:00,
2013-11-14 23:09:00,32.2,23.5,29.88,SSW,204,0.0,0.0,70,0.00,,SKC,0.00,VWS V14.01,2013-11-15 05:09:00,
2013-11-14 23:10:00,32.2,23.5,29.88,SSW,204,0.0,0.0,70,0.00,,SKC,0.00,VWS V14.01,2013-11-15 05:10:00,
2013-11-14 23:11:00,32.2,23.5,29.88,SSW,204,0.0,0.0,70,0.00,,SKC,0.00,VWS V14.01,2013-11-15 05:11:00,
2013-11-14 23:12:00,32.2,23.5,29.88,SSW,204,0.0,0.0,70,0.00,,SKC,0.00,VWS V14.01,2013-11-15 05:12:00,
2013-11-14 23:13:00,32.2,23.5,29.88,SSW,204,0.0,0.0,70,0.00,,SKC,0.00,VWS V14.01,2013-11-15 05:13:00,
2013-11-14 23:14:00,32.2,23.5,29.88,SSW,204,0.0,0.0,70,0.00,,SKC,0.00,VWS V14.01,2013-11-15 05:14:00,
2013-11-14 23:15:00,32.2,23.5,29.88,SSW,204,0.0,0.0,70,0.00,,SKC,0.00,VWS V14.01,2013-11-15 05:15:00,
2013-11-14 23:16:00,32.4,23.7,29.88,SSW,204,0.0,0.0,70,0.00,,SKC,0.00,VWS V14.01,2013-11-15 05:16:00,
2013-11-14 23:17:00,32.4,23.7,29.88,SSW,204,0.0,0.0,70,0.00,,SKC,0.00,VWS V14.01,2013-11-15 05:17:00,
2013-11-14 23:18:00,32.4,23.7,29.88,SSW,204,0.0,0.0,70,0.00,,SKC,0.00,VWS V14.01,2013-11-15 05:18:00,
2013-11-14 23:19:00,32.4,23.7,29.88,SSW,204,0.0,0.0,70,0.00,,SKC,0.00,VWS V14.01,2013-11-15 05:19:00,
2013-11-14 23:20:00,32.4,23.7,29.88,SSW,204,0.0,0.0,70,0.00,,SKC,0.00,VWS V14.01,2013-11-15 05:20:00,
2013-11-14 23:21:00,32.4,23.7,29.88,SSW,204,0.0,0.0,70,0.00,,SKC,0.00,VWS V14.01,2013-11-15 05:21:00,
2013-11-14 23:22:00,32.4,23.7,29.88,SSW,204,0.0,0.0,70,0.00,,SKC,0.00,VWS V14.01,2013-11-15 05:22:00,
2013-11-14 23:23:00,32.4,23.7,29.88,SSW,204,0.0,0.0,70,0.00,,SKC,0.00,VWS V14.01,2013-11-15 05:23:00,
2013-11-14 23:24:00,32.2,23.5,29.88,SSW,204,0.0,0.0,70,0.00,,SKC,0.00,VWS V14.01,2013-11-15 05:24:00,
2013-11-14 23:25:00,32.2,23.5,29.88,SSW,204,0.0,0.0,70,0.00,,SKC,0.00,VWS V14.01,2013-11-15 05:25:00,
2013-11-14 23:26:00,32.2,23.2,29.88,SSW,204,0.0,0.0,69,0.00,,SKC,0.00,VWS V14.01,2013-11-15 05:26:00,
2013-11-14 23:27:00,32.2,23.2,29.88,SSW,204,0.0,0.0,69,0.00,,SKC,0.00,VWS V14.01,2013-11-15 05:27:00,
2013-11-14 23:28:00,32.0,23.0,29.88,SSW,204,0.0,0.0,69,0.00,,SKC,0.00,VWS V14.01,2013-11-15 05:28:00,
2013-11-14 23:29:00,32.0,23.0,29.88,SSW,204,0.0,0.0,69,0.00,,SKC,0.00,VWS V14.01,2013-11-15 05:29:00,
2013-11-14 23:30:00,32.0,23.0,29.88,SSW,204,0.0,0.0,69,0.00,,SKC,0.00,VWS V14.01,2013-11-15 05:30:00,
2013-11-14 23:31:00,32.0,23.0,29.88,SSW,204,0.0,0.0,69,0.00,,SKC,0.00,VWS V14.01,2013-11-15 05:31:00,
2013-11-14 23:32:00,32.0,23.0,29.88,SSW,204,0.0,0.0,69,0.00,,SKC,0.00,VWS V14.01,2013-11-15 05:32:00,
2013-11-14 23:33:00,31.8,22.8,29.88,SSW,204,0.0,0.0,69,0.00,,SKC,0.00,VWS V14.01,2013-11-15 05:33:00,
2013-11-14 23:34:00,31.8,22.8,29.88,SSW,204,0.0,0.0,69,0.00,,SKC,0.00,VWS V14.01,2013-11-15 05:34:00,
2013-11-14 23:35:00,31.8,22.8,29.88,SSW,204,0.0,0.0,69,0.00,,SKC,0.00,VWS V14.01,2013-11-15 05:35:00,
2013-11-14 23:36:00,31.6,22.6,29.88,SSW,204,0.0,0.0,69,0.00,,SKC,0.00,VWS V14.01,2013-11-15 05:36:00,
2013-11-14 23:37:00,31.6,22.6,29.88,SSW,204,0.0,0.0,69,0.00,,SKC,0.00,VWS V14.01,2013-11-15 05:37:00,
2013-11-14 23:38:00,31.6,23.0,29.88,SSW,204,0.0,0.0,70,0.00,,SKC,0.00,VWS V14.01,2013-11-15 05:38:00,
2013-11-14 23:39:00,31.5,22.8,29.88,SSW,204,0.0,0.0,70,0.00,,SKC,0.00,VWS V14.01,2013-11-15 05:39:00,
2013-11-14 23:40:00,31.5,22.8,29.88,SSW,204,0.0,0.0,70,0.00,,SKC,0.00,VWS V14.01,2013-11-15 05:40:00,
2013-11-14 23:41:00,31.5,22.8,29.88,SSW,204,0.0,0.0,70,0.00,,SKC,0.00,VWS V14.01,2013-11-15 05:41:00,
2013-11-14 23:42:00,31.5,22.8,29.88,SSW,204,0.0,0.0,70,0.00,,SKC,0.00,VWS V14.01,2013-11-15 05:42:00,
2013-11-14 23:43:00,31.5,22.8,29.88,SSW,204,0.0,0.0,70,0.00,,SKC,0.00,VWS V14.01,2013-11-15 05:43:00,
2013-11-14 23:44:00,31.5,22.8,29.88,SSW,204,0.0,0.0,70,0.00,,SKC,0.00,VWS V14.01,2013-11-15 05:44:00,
2013-11-14 23:45:00,31.3,22.6,29.88,SSW,204,0.0,0.0,70,0.00,,SKC,0.00,VWS V14.01,2013-11-15 05:45:00,
2013-11-14 23:46:00,31.3,22.3,29.88,SSW,204,0.0,0.0,69,0.00,,SKC,0.00,VWS V14.01,2013-11-15 05:46:00,
2013-11-14 23:47:00,31.1,22.1,29.88,SSW,204,0.0,0.0,69,0.00,,SKC,0.00,VWS V14.01,2013-11-15 05:47:00,
2013-11-14 23:48:00,31.1,22.1,29.88,SSW,204,0.0,0.0,69,0.00,,SKC,0.00,VWS V14.01,2013-11-15 05:48:00,
2013-11-14 23:49:00,30.9,22.0,29.88,SSW,204,0.0,0.0,69,0.00,,SKC,0.00,VWS V14.01,2013-11-15 05:49:00,
2013-11-14 23:50:00,30.9,22.0,29.88,SSW,204,0.0,0.0,69,0.00,,SKC,0.00,VWS V14.01,2013-11-15 05:50:00,
2013-11-14 23:51:00,30.7,21.8,29.88,SSW,204,0.0,0.0,69,0.00,,SKC,0.00,VWS V14.01,2013-11-15 05:51:00,
2013-11-14 23:52:00,30.7,21.8,29.88,SSW,204,0.0,0.0,69,0.00,,SKC,0.00,VWS V14.01,2013-11-15 05:52:00,
2013-11-14 23:53:00,30.6,21.6,29.88,SSW,204,0.0,0.0,69,0.00,,SKC,0.00,VWS V14.01,2013-11-15 05:53:00,
2013-11-14 23:54:00,30.6,21.6,29.88,SSW,204,0.0,0.0,69,0.00,,SKC,0.00,VWS V14.01,2013-11-15 05:54:00,
2013-11-14 23:55:00,30.4,21.4,29.88,SSW,204,0.0,0.0,69,0.00,,SKC,0.00,VWS V14.01,2013-11-15 05:55:00,
2013-11-14 23:56:00,30.4,21.4,29.88,SSW,204,0.0,0.0,69,0.00,,SKC,0.00,VWS V14.01,2013-11-15 05:56:00,
2013-11-14 23:57:00,30.4,21.4,29.88,SSW,204,0.0,0.0,69,0.00,,SKC,0.00,VWS V14.01,2013-11-15 05:57:00,
2013-11-14 23:58:00,30.2,21.3,29.88,SSW,204,0.0,0.0,69,0.00,,SKC,0.00,VWS V14.01,2013-11-15 05:58:00,
2013-11-14 23:59:00,30.2,21.3,29.88,SSW,204,0.0,0.0,69,0.00,,SKC,0.00,VWS V14.01,2013-11-15 05:59:00,